     2              OBSERVATION DATA    GPS                 RINEX VERSION / TYPE
teqc 1997Jul24 19970902 21:16:11UTC                         PGM / RUN BY / DATE
                                                            COMMENT
BIT 2 OF LLI FLAGS DATA COLLECTED UNDER A-S CONDITION       COMMENT
BIT 2 OF LLI FLAGS DATA COLLECTED UNDER A-S CONDITION       COMMENT
Original Marker Name: 55496.YUMA                            COMMENT
Campaign Name: Salt. Tr. Crust. Monit. May-Jun 1986         COMMENT
4-Character Station Name: YUMA                              COMMENT
6-Character Antenna Code: TI4100                            COMMENT
Vertical Measurement Point: PAE                             COMMENT
Vertical Offset to Rinex Ref. Point: 0.0000                 COMMENT
Radial Measurement Point: RRP                               COMMENT
Radial Offset to Rinex Ref. Point: 0.0000                   COMMENT
Antenna Height from Field Measurement: 1.4170 m             COMMENT
Original XYZ: -2197395.3381 -4889426.3693 3444652.3504      COMMENT
New XYZ position is based on association with SCEC monument COMMENT
E1C9S0R6+0011. Position of that monument is believed to be  COMMENT
valid to within 1 m horizontally; vertical accuracy         COMMENT
should be no worse than 3-times this value.                 COMMENT
                                                            COMMENT
Revised Rinex header created by UCSD GPS archive for        COMMENT
GSAC on 12-Apr-1999 (1999:102) 01:29:01 GMT                 COMMENT
For assistance contact dagnew@ucsd.edu or hjohnson@ucsd.edu COMMENT
                                                            COMMENT
YUMA NCMN 1983                                              MARKER NAME
5 NATIONAL GEODETIC SURVEY                                  OBSERVER / AGENCY
UT04 TI 4100 1.0                                            REC # / TYPE / VERS
108 TI 4100                                                 ANT # / TYPE
 -2196778.0000 -4887337.0000  3448425.0000                  APPROX POSITION XYZ
        1.4170        0.0000        0.0000                  ANTENNA: DELTA H/E/N
     1     1     0                                          WAVELENGTH FACT L1/2
     4    P1    P2    L1    L2                              # / TYPES OF OBSERV
     6                                                      INTERVAL
  1986     6    18    23    13   59.000000                  TIME OF FIRST OBS
  1986     6    19     0    59   41.000000                  TIME OF LAST OBS
     0                                                      # OF SATELLITES
                                                            END OF HEADER
 86  6 18 23 13 59.0800000  0  1G 8
                  23462882.138       90967.384 9
 86  6 18 23 14  5.0800000  0  2G 6G 8
                  22987431.146       -1669.442 9
                  23465514.986      104845.738 9
 86  6 18 23 14 11.0800000  0  2G 6G 8
                  22985958.517       -9409.643 1
                  23468192.692      118743.709 7
 86  6 18 23 14 17.0800000  0  2G 6G 8
                  22984517.819      -17139.173 1
  23470840.207    23470825.598      132662.692 8    265057.257 1
 86  6 18 23 14 23.0800000  0  2G 6G 8
  22983050.693    22983054.814      -24856.491 1    298211.139 1
  23473491.618    23473495.527      146601.861 8    275919.140 8
 86  6 18 23 14 29.0800000  0  2G 6G 8
  22981582.942    22981588.582      -32562.306 7    292206.633 8
  23476149.112    23476154.022      160561.312 8    286796.625 8
 86  6 18 23 14 35.0800000  0  3G 6G 8G 9
  22980119.045    22980124.059      -40256.567 8    286211.606 9
  23478809.445    23478813.389      174540.929 8    297690.321 8
                  25195586.151     -147731.527 8
 86  6 18 23 14 41.0800000  0  3G 6G 8G 9
  22978657.087    22978662.703      -47939.195 8    280225.150 9
  23481473.506    23481477.156      188540.802 8    308599.308 8
                  25192177.556     -165598.469 8
 86  6 18 23 14 47.0800000  0  3G 6G 8G 9
  22977197.646    22977202.536      -55610.226 9    274247.720 9
  23484141.787    23484144.733      202560.882 9    319524.056 8
                  25188808.054     -183464.589 6
 86  6 18 23 14 53.0800000  0  3G 6G 8G 9
  22975740.633    22975745.038      -63269.630 8    268279.347 9
  23486814.076    23486816.803      216601.137 9    330464.500 8
  25185406.886    25185412.582     -201329.536 6    523336.217 8
 86  6 18 23 14 59.0800000  0  3G 6G 8G 9
  22974285.398    22974289.177      -70917.416 9    262320.033 8
  23489489.537    23489493.054      230661.556 9    341420.677 8
  25182007.850    25182014.668     -219193.218 7    509416.428 8
 86  6 18 23 15  5.0800000  0  3G 6G 8G 9
  22972832.043    22972836.070      -78553.613 8    256369.749 9
  23492168.666    23492172.257      244742.037 7    352392.475 8
  25178607.580    25178614.767     -237056.029 7    495497.376 8
 86  6 18 23 15 11.0800000  0  3G 6G 8G 9
  22971381.704    22971386.043      -86178.174 7    250428.535 9
  23494851.754    23494854.703      258842.525 8    363379.875 8
  25175208.799    25175215.745     -254917.814 6    481579.120 8
 86  6 18 23 15 17.0800000  0  3G 6G 8G 9
  22969932.285    22969936.643      -93791.045 8    244496.428 8
  23497538.413    23497541.641      272963.037 9    374382.880 7
  25171809.483    25171817.254     -272778.551 6    467661.671 9
 86  6 18 23 15 23.0800000  0  3G 6G 8G 9
  22968486.027    22968489.334     -101392.252 9    238573.410 8
  23500229.714    23500232.596      287103.584 9    385401.470 9
  25168412.650    25168418.535     -290638.259 6    453745.034 8
 86  6 18 23 15 29.0800000  0  3G 6G 8G 9
  22967041.148    22967045.620     -108981.751 8    232659.518 8
  23502923.413    23502927.205      301264.134 8    396435.662 8
  25165012.614    25165018.937     -308496.918 8    439829.218 8
 86  6 18 23 15 35.0800000  0  3G 6G 8G 9
  22965600.432    22965604.454     -116559.562 9    226754.731 8
  23505622.023    23505625.473      315444.643 8    407485.406 7
  25161615.156    25161621.550     -326354.504 6    425914.230 9
 86  6 18 23 15 41.0800000  0  3G 6G 8G 9
  22964159.866    22964163.808     -124125.632 9    220859.088 9
  23508324.303    23508327.628      329645.039 8    418550.655 8
  25158218.285    25158223.285     -344210.993 6    412000.086 8
 86  6 18 23 15 47.0800000  0  3G 6G 8G 9
  22962722.088    22962726.593     -131679.984 8    214972.580 9
  23511030.262    23511034.107      343865.367 8    429631.416 8
  25154820.379    25154825.968     -362066.294 6    398086.877 8
 86  6 18 23 15 53.0800000  0  3G 6G 8G 9
  22961287.108    22961292.186     -139222.576 8    209095.242 8
  23513739.319    23513744.668      358105.545 9    440727.674 8
  25151422.878    25151427.964     -379920.446 7    384174.563 9
 86  6 18 23 15 59.0800000  0  3G 6G 8G 9
  22959855.008    22959857.579     -146753.414 9    203227.056 8
  23516453.645    23516458.690      372365.581 8    451839.376 8
  25148023.284    25148030.827     -397773.518 7    370263.095 8
 86  6 18 23 16  5.0800000  0  3G 6G 8G 9
  22958423.337    22958426.854     -154272.480 8    197368.050 8
  23519170.779    23519175.910      386645.427 8    462966.529 7
  25144628.005    25144633.922     -415625.487 7    356352.482 6
 86  6 18 23 16 11.0800000  0  3G 6G 8G 9
  22956995.303    22956999.039     -161779.720 8    191518.253 8
  23521892.605    23521895.976      400945.029 8    474109.074 8
  25141231.424    25141236.377     -433476.332 7    342442.744 8
 86  6 18 23 16 17.0800000  0  3G 6G 8G 9
  22955568.590    22955572.621     -169275.123 8    185677.676 8
  23524617.338    23524620.825      415264.446 9    485267.057 8
  25137835.342    25137840.278     -451325.950 8    328533.960 9
 86  6 18 23 16 23.0800000  0  3G 6G 8G 9
  22954145.226    22954147.446     -176758.703 9    179846.319 9
  23527345.973    23527350.080      429603.619 8    496440.439 8
  25134439.674    25134443.962     -469174.362 8    314626.111 9
 86  6 18 23 16 29.0800000  0  3G 6G 8G 9
  22952723.373    22952726.701     -184230.407 9    174024.209 8
  23530077.886    23530082.138      443962.494 8    507629.169 8
  25131042.684    25131047.897     -487021.554 8    300719.208 8
 86  6 18 23 16 35.0800000  0  3G 6G 8G 9
  22951302.913    22951306.580     -191690.234 9    168211.365 8
  23532813.688    23532816.621      458341.102 8    518833.281 8
  25127646.107    25127651.900     -504867.490 8    286813.297 8
 86  6 18 23 16 41.0800000  0  3G 6G 8G 9
  22949886.122    22949889.886     -199138.059 8    162407.875 8
  23535554.074    23535557.849      472739.457 8    530052.780 8
  25124252.008    25124255.147     -522712.185 8    272908.359 8
 86  6 18 23 16 47.0800000  0  3G 6G 8G 9
  22948472.583    22948474.970     -206573.912 8    156613.696 8
  23538297.371    23538302.715      487157.508 9    541287.601 8
  25120856.057    25120859.612     -540555.562 6    259004.428 9
 86  6 18 23 16 53.0800000  0  3G 6G 8G 9
  22947059.595    22947061.267     -213997.694 8    150828.938 9
  23541045.049    23541047.743      501595.303 8    552537.846 8
  25117458.715    25117464.571     -558397.623 7    245101.538 8
 86  6 18 23 16 59.0800000  0  3G 6G 8G 9
  22945647.748    22945651.846     -221409.525 6    145053.493 6
  23543797.121    23543800.105      516052.800 4    563803.418 5
  25114064.320    25114071.054     -576238.339 5    231199.690 5
 86  6 18 23 17  5.0800000  0  3G 6G 8G 9
  22944239.673    22944243.642     -228809.221 9    139287.492 7
  23546551.645    23546554.923      530529.937 8    575084.294 8
  25110669.628    25110676.156     -594077.540 7    217299.017 8
 86  6 18 23 17 11.0800000  0  4G 6G 8G 9G 9
  22942834.781    22942838.053     -236196.893 8    133530.867 8
  23549310.526    23549313.396      545026.709 9    586380.484 7
  25107274.793    25107281.478     -611915.416 7    203399.390 8
                  25107243.636    -1183809.154 8
 86  6 18 23 17 17.0800000  0  4G 6G 8G 9G 9
  22941430.997    22941434.522     -243572.442 8    127783.682 7
  23552071.993    23552076.898      559543.045 8    597691.907 7
  25103881.956    25103887.230     -629751.921 7    189500.830 9
                  25103850.140    -1201645.667 8
 86  6 18 23 17 23.0800000  0  4G 6G 8G 9G 9
  22940030.210    22940032.046     -250936.036 9    122045.819 8
  23554838.114    23554842.140      574078.890 9    609018.545 8
  25100487.232    25100492.804     -647587.087 8    175603.318 9
  25100487.144                    -1219481.091 5
 86  6 18 23 17 29.0800000  0  4G 6G 8G 9G 9
  22938631.089    22938633.204     -258287.581 9    116317.353 7
  23557608.935    23557611.223      588634.189 8    620360.327 7
  25097094.303    25097099.966     -665420.910 7    161706.835 8
  25097094.847    25097102.629    -1237314.891 7   1710978.335 9
 86  6 18 23 17 35.0800000  0  4G 6G 8G 9G 9
  22937235.329    22937237.632     -265627.114 8    110598.228 8
  23560381.993    23560386.071      603208.878 8    631717.234 8
  25093700.993    25093706.046     -683253.465 7    147811.345 8
  25093700.435    25093705.227    -1255147.448 8   1697082.854 8
 86  6 18 23 17 41.0800000  0  4G 6G 8G 9G 9
  22935840.039    22935842.674     -272954.627 9    104888.484 8
  23563158.732    23563162.941      617802.951 9    643089.242 8
  25090307.747    25090312.465     -701084.685 7    133916.908 9
  25090307.369    25090312.121    -1272978.672 7   1683187.902 9
 86  6 18 23 17 47.0800000  0  4G 6G 8G 9G 9
  22934447.042    22934449.416     -280270.065 9     99188.136 8
  23565938.877    23565943.784      632416.413 8    654476.353 8
  25086914.526    25086919.089     -718914.541 9    120023.509 8
  25086914.932    25086919.753    -1290808.541 8   1669294.501 8
 86  6 18 23 17 53.0800000  0  4G 6G 8G 9G 9
  22933057.885    22933061.073     -287573.392 9     93497.237 8
  23568723.748    23568728.200      647049.244 7    665878.552 8
  25083521.664    25083527.475     -736742.962 7    106131.251 8
  25083522.752    25083526.958    -1308636.963 7   1655402.248 8
 86  6 18 23 17 59.0800000  0  4G 6G 8G 9G 9
  22931669.349    22931672.967     -294864.577 9     87815.798 8
  23571511.842    23571515.732      661701.472 8    677295.879 7
  25080128.445    25080134.843     -754569.935 8     92240.093 9
  25080129.612    25080133.504    -1326463.937 8   1641511.096 8
 86  6 18 23 18  5.0800000  0  4G 6G 8G 9G 9
  22930285.820    22930287.988     -302143.540 8     82143.885 8
  23574302.672    23574308.302      676373.017 7    688728.245 8
  25076736.953    25076743.487     -772395.514 8     78350.051 9
  25076737.302    25076742.312    -1344289.508 8   1627621.055 8
 86  6 18 23 18 11.0800000  0  4G 6G 8G 9G 9
  22928902.048    22928904.236     -309410.329 9     76481.453 7
  23577100.102    23577104.375      691063.882 8    700175.671 8
  25073345.304    25073351.152     -790219.603 7     64461.164 9
  25073345.765    25073351.235    -1362113.606 7   1613732.161 8
 86  6 18 23 18 17.0800000  0  4G 6G 8G 9G 9
  22927522.631    22927525.178     -316664.901 9     70828.546 7
  23579898.476    23579903.704      705774.080 8    711638.153 8
  25069953.238    25069958.060     -808042.195 7     50573.429 8
  25069954.001    25069958.925    -1379936.198 7   1599844.437 7
 86  6 18 23 18 23.0800000  0  4G 6G 8G 9G 9
  20718831.588    20718834.065     -323871.879 9     65122.332 9
  21375394.728    21375399.040      720565.788 8    723073.783 8
  22859248.193    22859253.198     -825840.880 7     36613.965 9
  22859249.743    22859253.346    -1397734.881 7   1585884.972 8
 86  6 18 23 18 29.0800000  0  4G 6G 8G 9G 9
  20717457.204    20717458.713     -331101.876 8     59488.580 8
  21378201.561    21378205.843      735314.626 8    734566.386 8
  22855857.364    22855862.831     -843660.313 8     22728.709 8
  22855858.951    22855862.634    -1415554.316 8   1571999.702 9
 86  6 18 23 18 35.0800000  0  4G 6G 8G 9G 9
  20716083.297    20716084.935     -338319.558 9     53864.411 8
  21381010.955    21381016.727      750082.675 9    746073.955 7
  22852466.340    22852471.951     -861478.139 8      8844.680 8
  22852466.837    22852471.121    -1433372.156 7   1558115.684 8
 86  6 18 23 18 41.0800000  0  4G 6G 8G 9G 9
  20714711.209    20714714.048     -345524.987 9     48249.797 8
  21383825.385    21383829.694      764869.977 9    757596.521 7
  22849077.417    22849081.762     -879294.423 8     -5038.131 9
  22849077.484    22849081.445    -1451188.428 7   1544232.879 9
 86  6 18 23 18 47.0800000  0  4G 6G 8G 9G 9
  20713342.434    20713345.584     -352718.099 8     42644.760 8
  21386642.669    21386647.601      779676.432 8    769134.026 8
  22845686.422    22845691.055     -897109.183 7    -18919.734 8
  22845686.483    22845691.013    -1469003.186 8   1530351.273 8
 86  6 18 23 18 53.0800000  0  4G 6G 8G 9G 9
  20711975.414    20711978.692     -359898.793 9     37049.433 8
  21389464.257    21389468.278      794502.028 8    780686.440 8
  22842296.454    22842301.277     -914922.362 9    -32800.136 9
  22842297.820    22842301.704    -1486816.350 8   1516470.859 8
 86  6 18 23 18 59.0800000  0  4G 6G 8G 9G 9
  20710611.819    20710614.053     -367067.161 9     31463.683 9
  21392289.243    21392292.857      809346.789 8    792253.776 7
  22838908.225    22838912.678     -932733.910 8    -46679.252 8
  22838908.281    22838912.148    -1504627.906 8   1502591.734 9
 86  6 18 23 19  5.0800000  0  4G 6G 8G 9G 9
  20709250.582    20709253.384     -374223.215 9     25887.538 8
  21395117.590    21395121.451      824210.704 8    803836.029 7
  22835518.274    22835522.782     -950543.735 8    -60557.044 8
  22835517.255    22835522.232    -1522437.741 8   1488713.960 8
 86  6 18 23 19 11.0800000  0  4G 6G 8G 9G 9
  20707890.679    20707894.372     -381366.826 9     20321.094 8
  21397950.876    21397955.779      839093.659 8    815433.151 7
  22832129.076    22832134.827     -968351.954 7    -74433.569 8
  22832129.534    22832133.775    -1540245.962 8   1474837.431 9
 86  6 18 23 19 17.0800000  0  4G 6G 8G 9G 9
  20706533.824    20706536.391     -388498.024 9     14764.319 8
  21400786.173    21400790.073      853995.683 8    827045.105 8
  22828740.467    22828745.655     -986158.577 9    -88308.847 8
  22828741.767    22828745.656    -1558052.580 8   1460962.154 9
 86  6 18 23 19 23.0800000  0  4G 6G 8G 9G 9
  20705178.999    20705181.751     -395616.840 9      9217.196 8
  21403624.773    21403630.774      868916.709 9    838671.880 8
  22825352.649    22825357.497    -1003963.565 8   -102182.840 8
  22825352.889    22825357.966    -1575857.569 8   1447088.154 8
 86  6 18 23 19 29.0800000  0  4G 6G 8G 9G 9
  20703826.910    20703829.626     -402723.267 8      3679.712 9
  21406468.521    21406472.311      883856.740 9    850313.479 8
  22821964.970    22821969.134    -1021766.933 8   -116055.598 9
  22821964.690    22821969.601    -1593660.939 9   1433215.407 8
 86  6 18 23 19 35.0800000  0  4G 6G 8G 9G 9
  20702476.419    20702479.677     -409817.231 9     -1848.040 7
  21409315.727    21409319.003      898815.699 8    861969.800 8
  22818577.495    22818582.548    -1039568.571 8   -129926.991 7
  22818578.591    22818582.243    -1611462.571 8   1419344.011 8
 86  6 18 23 19 41.0800000  0  4G 6G 8G 9G 9
  20701129.383    20701131.876     -416898.761 8     -7366.126 8
  21412164.969    21412170.154      913793.607 9    873640.902 8
  22815189.867    22815194.396    -1057368.526 8   -143797.079 7
  22815189.783    22815194.713    -1629262.518 9   1405473.923 8
 86  6 18 23 19 47.0800000  0  4G 6G 8G 9G 9
  20699784.149    20699785.810     -423967.831 9    -12874.490 8
  21415020.214    21415022.788      928790.452 8    885326.764 8
  22811803.765    22811807.637    -1075166.795 8   -157665.857 9
  22811803.844    22811808.306    -1647060.796 8   1391605.145 8
 86  6 18 23 19 53.0800000  0  4G 6G 8G 9G 9
  20698440.471    20698443.980     -431024.399 9    -18373.109 9
  21417876.263    21417879.866      943806.098 9    897027.257 9
  22808416.567    22808421.942    -1092963.355 9   -171533.302 8
  22808416.409    22808421.228    -1664857.352 8   1377737.700 8
 86  6 18 23 19 59.0800000  0  3G 6G 8G 9
  20697101.357    20697104.991     -438068.522 1    -23862.073 1
  21420737.857    21420741.641      958840.540 8    908742.407 8
  22805031.335    22805035.231    -1110758.182 8   -185399.397 8
 86  6 18 23 20  5.0800000  0  3G 6G 8G 9
  20695761.221    20695764.981     -445100.159 1    -29341.236 1
  21423602.884    21423606.005      973893.808 8    920472.228 8
  22801643.893    22801648.344    -1128551.328 8   -199264.173 8
 86  6 18 23 20 11.0800000  0  3G 6G 8G 9
  20694429.133    20694431.381     -452119.340 1    -34810.740 1
  21426470.257    21426475.895      988965.776 8    932216.613 7
  22798257.796    22798263.521    -1146342.813 7   -213127.660 8
 86  6 18 23 20 17.0800000  0  3G 6G 8G 9
  20693093.750    20693096.691     -459125.960 7    -40270.434 6
  21429343.113    21429345.553     1004056.504 9    943975.619 8
  22794871.015    22794878.203    -1164132.518 9   -226989.761 8
 86  6 18 23 20 23.0800000  0  4G 6G 8G 9G11
  20691762.137    20691764.957     -466120.016 8    -45720.353 8
  21432217.311    21432221.308     1019165.976 8    955749.239 8
  22791489.057    22791492.814    -1181920.437 7   -240850.468 7
                  20720606.142    -2288545.146 8
 86  6 18 23 20 29.0800000  0  4G 6G 8G 9G11
  20690433.484    20690436.835     -473101.447 8    -51160.412 9
  21435097.032    21435099.561     1034294.243 9    967537.493 7
  22788103.931    22788109.583    -1199706.468 8   -254709.712 8
                  20719369.081    -2295082.433 8
 86  6 18 23 20 35.0800000  0  4G 6G 8G 9G11
  20689107.448    20689110.589     -480070.187 9    -56590.613 8
  21437978.408    21437982.198     1049441.285 8    979340.371 8
  22784719.616    22784724.760    -1217490.622 8   -268567.485 8
                  20718154.917    -2301596.785 7
 86  6 18 23 20 41.0800000  0  4G 6G 8G 9G11
  20687782.760    20687787.847     -487026.215 8    -62010.887 8
  21440864.933    21440869.621     1064607.081 9    991157.884 9
  22781336.886    22781341.083    -1235272.927 8   -282423.820 7
  20716919.582    20716924.567    -2308087.592 6   3171917.700 8
 86  6 18 23 20 47.0800000  0  4G 6G 8G 9G11
  20686461.541    20686466.039     -493969.468 8    -67421.203 8
  21443753.922    21443758.265     1079791.635 8   1002990.005 8
  22777953.623    22777957.365    -1253053.254 9   -296278.606 8
  20715688.939    20715692.525    -2314555.299 8   3166878.006 6
 86  6 18 23 20 53.0800000  0  4G 6G 8G 9G11
  20685144.091    20685147.209     -500900.032 9    -72821.659 8
  21446647.036    21446650.722     1094994.849 9   1014836.662 9
  22774570.000    22774574.203    -1270831.603 8   -310131.859 7
  20714463.616    20714467.017    -2320999.732 7   3161856.354 6
 86  6 18 23 20 59.0800000  0  4G 6G 8G 9G11
  20683826.396    20683831.276     -507817.827 9    -78212.148 9
  21449543.789    21449547.406     1110216.709 9   1026697.845 8
  22771187.081    22771191.602    -1288607.964 8   -323983.572 8
  20713238.635    20713243.829    -2327420.940 8   3156852.820 7
 86  6 18 23 21  5.0800000  0  4G 6G 8G 9G11
  20682513.289    20682516.297     -514722.828 8    -83592.665 8
  21452444.017    21452447.497     1125457.257 9   1038573.592 8
  22767804.193    22767808.760    -1306382.411 8   -337833.776 7
  20712022.239    20712028.301    -2333818.905 8   3151867.401 7
 86  6 18 23 21 11.0800000  0  4G 6G 8G 9G11
  20681200.868    20681205.626     -521615.043 8    -88963.222 8
  21455347.806    21455351.507     1140716.467 9   1050463.881 8
  22764422.264    22764426.238    -1324154.901 8   -351682.463 9
  20710810.874    20710814.739    -2340193.628 7   3146900.086 7
 86  6 18 23 21 17.0800000  0  4G 6G 8G 9G11
  20679892.685    20679896.816     -528494.529 9    -94323.857 8
  21458254.890    21458259.191     1155994.190 8   1062368.591 9
  22761041.271    22761043.992    -1341925.433 7   -365529.625 7
  20709600.461    20709606.833    -2346545.154 8   3141950.858 7
 86  6 18 23 21 23.0800000  0  4G 6G 8G 9G11
  20678585.664    20678589.869     -535361.263 9    -99674.556 8
  21461164.922    21461169.480     1171290.318 8   1074287.655 8
  22757659.597    22757663.222    -1359694.050 7   -379375.292 7
  20708396.017    20708402.323    -2352873.588 9   3137019.597 6
 86  6 18 23 21 29.0800000  0  4G 6G 8G 9G11
  20677281.009    20677285.439     -542215.366 8   -105015.422 8
  21464080.068    21464083.985     1186604.819 9   1086221.037 8
  22754277.637    22754281.296    -1377460.831 8   -393219.535 8
  20707195.599    20707201.819    -2359178.984 9   3132106.308 7
 86  6 18 23 21 35.0800000  0  4G 6G 8G 9G11
  20675979.521    20675983.083     -549056.758 8   -110346.376 8
  21466997.770    21467001.878     1201937.727 9   1098168.754 8
  22750898.615    22750902.466    -1395225.716 8   -407062.287 6
  20706001.946    20706005.637    -2365461.275 8   3127211.033 6
 86  6 18 23 21 41.0800000  0  4G 6G 8G 9G11
  20674679.671    20674683.663     -555885.341 9   -115667.354 8
  21469918.975    21469922.842     1217288.979 8   1110130.775 9
  22747519.053    22747520.363    -1412988.672 8   -420903.542 7
  20704810.539    20704813.967    -2371720.501 7   3122333.711 7
 86  6 18 23 21 47.0800000  0  4G 6G 8G 9G11
  20673383.347    20673387.677     -562701.200 9   -120978.426 8
  21472844.441    21472847.852     1232658.522 8   1122107.031 8
  22744137.968    22744142.810    -1430749.643 8   -434743.272 7
  20703624.062    20703627.754    -2377956.630 8   3117474.394 7
 86  6 18 23 21 53.0800000  0  4G 6G 8G 9G11
  20672089.002    20672091.383     -569504.294 9   -126279.520 8
  21475771.885    21475775.394     1248046.414 9   1134097.600 8
  22740758.277    22740762.818    -1448508.697 8   -448581.496 7
  20702441.608    20702445.441    -2384169.613 7   3112633.098 7
 86  6 18 23 21 59.0800000  0  4G 6G 8G 9G11
  20670796.300    20670799.576     -576294.544 9   -131570.630 8
  21478704.275    21478707.488     1263452.632 8   1146102.430 8
  22737379.889    22737384.566    -1466265.731 8   -462418.133 8
  20701262.813    20701268.539    -2390359.454 7   3107809.851 7
 86  6 18 23 22  5.0800000  0  4G 6G 8G 9G11
  20669507.369    20669510.201     -583071.902 8   -136851.678 8
  21481639.087    21481643.316     1278877.129 9   1158121.530 8
  22734001.019    22734005.205    -1484020.750 8   -476253.199 7
  20700090.831    20700094.823    -2396526.120 7   3103004.664 7
 86  6 18 23 22 11.0800000  0  4G 6G 8G 9G11
  20668220.018    20668222.796     -589836.261 8   -142122.611 8
  21484577.267    21484581.123     1294319.988 9   1170154.924 7
  22730622.790    22730626.988    -1501773.610 9   -490086.600 7
  20698921.636    20698924.874    -2402669.503 7   3098217.615 7
 86  6 18 23 22 17.0800000  0  4G 6G 8G 9G11
  20666936.014    20666938.831     -596587.658 8   -147383.433 8
  21487519.597    21487524.572     1309781.173 8   1182202.598 8
  22727245.950    22727248.358    -1519524.341 7   -503918.336 8
  20697757.573    20697760.755    -2408789.637 8   3093448.680 7
 86  6 18 23 22 23.0800000  0  4G 6G 8G 9G11
  20665652.457    20665656.847     -603326.052 8   -152634.125 8
  21490464.694    21490469.571     1325260.666 9   1194264.526 9
  22723868.597    22723871.778    -1537272.828 8   -517748.311 8
  20696595.963    20696600.109    -2414886.465 8   3088697.908 7
 86  6 18 23 22 29.0800000  0  4G 6G 8G 9G11
  20664373.514    20664374.771     -610051.331 9   -157874.599 8
  21493414.616    21493418.779     1340758.468 9   1206340.752 8
  22720491.290    22720493.807    -1555019.073 8   -531576.550 7
  20695439.990    20695444.049    -2420959.984 8   3083965.312 8
 86  6 18 23 22 35.0800000  0  4G 6G 8G 9G11
  20663096.009    20663098.587     -616763.587 8   -163104.935 8
  21496366.648    21496371.052     1356274.592 9   1218431.238 9
  22717114.441    22717116.128    -1572763.129 8   -545403.106 7
  20694289.215    20694294.182    -2427010.264 8   3079250.805 7
 86  6 18 23 22 41.0800000  0  4G 6G 8G 9G11
  20661822.288    20661825.458     -623462.848 9   -168325.129 7
  21499322.322    21499327.166     1371808.894 9   1230535.888 7
  22713737.700    22713740.807    -1590505.059 9   -559227.973 7
  20693141.222    20693147.652    -2433037.326 7   3074554.411 8
 86  6 18 23 22 47.0800000  0  4G 6G 8G 9G11
  20660548.586    20660552.355     -630149.091 9   -173535.193 9
  21502282.027    21502286.593     1387361.290 9   1242654.624 9
  22710363.020    22710365.280    -1608244.921 7   -573051.252 7
  20691998.853    20692004.348    -2439041.165 8   3069876.088 8
 86  6 18 23 22 53.0800000  0  4G 6G 8G 9G11
  20659279.194    20659282.500     -636822.364 9   -178735.144 9
  21505245.449    21505249.553     1402931.740 8   1254787.446 8
  22706987.116    22706988.889    -1625982.622 8   -586872.822 8
  20690861.477    20690866.565    -2445021.832 7   3065215.842 7
 86  6 18 23 22 59.0800000  0  4G 6G 8G 9G11
  20658011.470    20658013.731     -643482.622 9   -183924.969 8
  21508212.353    21508216.025     1418520.227 8   1266934.308 8
  22703611.635    22703614.924    -1643718.098 8   -600692.666 8
  20689728.247    20689733.563    -2450979.327 7   3060573.637 7
 86  6 18 23 23  5.0800000  0  4G 6G 8G 9G11
  20656746.729    20656749.940     -650129.878 9   -189104.631 8
  21511181.793    21511185.502     1434126.756 9   1279095.240 8
  22700237.175    22700241.481    -1661451.417 8   -614510.844 8
  20688598.649    20688604.494    -2456913.631 7   3055949.505 7
 86  6 18 23 23 11.0800000  0  4G 6G 8G 9G11
  20655484.032    20655487.725     -656764.067 8   -194274.137 8
  21514155.092    21514158.910     1449751.289 8   1291270.199 8
  22696862.856    22696867.270    -1679182.581 8   -628327.321 7
  20687475.204    20687479.321    -2462824.758 8   3051343.439 7
 86  6 18 23 23 17.0800000  0  4G 6G 8G 9G11
  20654224.797    20654227.769     -663385.051 8   -199433.344 8
  21517131.105    21517135.433     1465393.962 9   1303459.298 8
  22693489.764    22693493.117    -1696911.414 7   -642141.989 8
  20686352.650    20686358.854    -2468712.517 7   3046755.574 7
 86  6 18 23 23 23.0800000  0  4G 6G 8G 9G11
  20652967.047    20652969.681     -669992.882 9   -204582.298 8
  21520110.999    21520116.583     1481054.601 8   1315662.383 8
  22690116.263    22690119.153    -1714637.903 7   -655954.826 7
  20685238.439    20685242.699    -2474577.013 7   3042185.837 7
 86  6 18 23 23 29.0800000  0  4G 6G 8G 9G11
  20651713.349    20651714.759     -676587.561 9   -209721.001 8
  21523094.653    21523098.553     1496733.245 8   1327879.507 8
  22686743.315    22686746.808    -1732362.115 8   -669765.905 7
  20684125.495    20684130.541    -2480418.307 8   3037634.197 7
 86  6 18 23 23 35.0800000  0  4G 6G 8G 9G11
  20650460.475    20650463.132     -683169.095 9   -214849.478 9
  21526082.969    21526085.802     1512429.809 8   1340110.600 8
  22683371.408    22683374.017    -1750084.190 8   -683575.312 8
  20683018.987    20683023.688    -2486236.411 7   3033100.617 8
 86  6 18 23 23 41.0800000  0  4G 6G 8G 9G11
  20649209.623    20649212.797     -689737.519 9   -219967.735 7
  21529071.689    21529076.223     1528144.276 9   1352355.634 8
  22679998.591    22680003.366    -1767803.960 7   -697382.913 7
  20681914.896    20681921.040    -2492031.284 8   3028585.129 7
 86  6 18 23 23 47.0800000  0  4G 6G 8G 9G11
  20647962.790    20647965.351     -696292.775 9   -225075.728 9
  21532066.198    21532069.340     1543876.526 8   1364614.521 8
  22676627.935    22676632.705    -1785521.263 8   -711188.602 7
  20680817.618    20680822.008    -2497802.910 7   3024087.756 7
 86  6 18 23 23 53.0800000  0  4G 6G 8G 9G11
  20646717.757    20646720.534     -702834.770 9   -230173.385 8
  21535062.948    21535068.082     1559626.646 8   1376887.332 8
  22673255.756    22673260.463    -1803236.295 8   -724992.502 8
  20679723.809    20679728.498    -2503551.285 8   3019608.519 8
 86  6 18 23 23 59.0800000  0  4G 6G 8G 9G11
  20645474.530    20645478.920     -709363.612 9   -235260.789 8
  21538063.038    21538066.878     1575394.607 7   1389174.059 8
  22669885.876    22669890.030    -1820948.994 7   -738794.610 6
  20678633.550    20678639.539    -2509276.419 8   3015147.372 6
 86  6 18 23 24  5.0800000  0  4G 6G 8G 9G11
  20644236.129    20644238.121     -715879.183 9   -240337.846 8
  21541066.750    21541072.025     1591180.331 8   1401474.628 8
  22666516.193    22666519.672    -1838659.319 7   -752594.856 6
  20677548.888    20677553.890    -2514978.315 8   3010704.363 7
 86  6 18 23 24 11.0800000  0  4G 6G 8G 9G11
  20642998.085    20643001.148     -722381.456 9   -245404.568 8
  21544074.726    21544079.542     1606983.876 8   1413789.066 7
  22663146.407    22663149.399    -1856367.265 7   -766393.242 8
  20676468.907    20676473.126    -2520656.972 8   3006279.418 7
 86  6 18 23 24 17.0800000  0  4G 6G 8G 9G11
  20641763.571    20641765.984     -728870.448 8   -250460.921 9
  21547086.268    21547089.932     1622805.136 9   1426117.322 7
  22659777.084    22659779.516    -1874072.801 7   -780189.767 7
  20675393.068    20675398.183    -2526312.311 8   3001872.658 8
 86  6 18 23 24 23.0800000  0  4G 6G 8G 9G11
  20640531.180    20640533.722     -735346.161 8   -255506.940 8
  21550099.633    21550103.459     1638644.125 8   1438459.389 8
  22656406.897    22656410.783    -1891775.888 7   -793984.375 8
  20674321.101    20674326.357    -2531944.396 8   2997484.033 7
 86  6 18 23 24 29.0800000  0  4G 6G 8G 9G11
  20639301.099    20639304.158     -741808.624 8   -260542.607 9
  21553115.491    21553121.859     1654500.798 8   1450815.239 8
  22653040.969    22653043.549    -1909476.559 7   -807777.090 7
  20673253.033    20673256.945    -2537553.199 8   2993113.543 7
 86  6 18 23 24 35.0800000  0  4G 6G 8G 9G11
  20638072.747    20638076.773     -748257.652 9   -265567.822 8
  21556138.030    21556141.899     1670375.218 8   1463184.909 9
  22649669.840    22649675.852    -1927174.740 8   -821567.877 7
  20672191.511    20672193.972    -2543138.731 8   2988761.184 8
 86  6 18 23 24 41.0800000  0  4G 6G 8G 9G11
  20636847.466    20636851.653     -754693.193 9   -270582.534 8
  21559162.101    21559166.386     1686267.365 8   1475568.401 8
  22646304.490    22646307.949    -1944870.350 8   -835356.669 7
  20671130.690    20671138.105    -2548700.906 8   2984427.028 8
 86  6 18 23 24 47.0800000  0  4G 6G 8G 9G11
  20635626.323    20635631.045     -761115.329 8   -275586.793 9
  21562189.416    21562193.900     1702177.157 8   1487965.642 7
  22642938.845    22642940.756    -1962563.466 8   -849143.501 7
  20670078.004    20670083.497    -2554239.776 7   2980111.019 7
 86  6 18 23 24 53.0800000  0  4G 6G 8G 9G11
  20634407.579    20634411.783     -767524.112 8   -280580.655 9
  21565220.500    21565225.351     1718104.557 8   1500376.601 8
  22639570.527    22639575.137    -1980254.130 7   -862928.431 6
  20669028.597    20669032.993    -2559755.377 8   2975813.148 7
 86  6 18 23 24 59.0800000  0  4G 6G 8G 9G11
  20633190.312    20633193.837     -773919.499 9   -285564.071 8
  21568255.214    21568258.506     1734049.541 8   1512801.255 8
  22636205.620    22636208.395    -1997942.270 7   -876711.386 7
  20667981.904    20667988.213    -2565247.705 7   2971533.434 8
 86  6 18 23 25  5.0800000  0  4G 6G 8G 9G11
  20631975.992    20631979.677     -780301.325 8   -290536.921 9
  21571292.245    21571295.773     1750012.145 8   1525239.647 8
  22632840.127    22632842.301    -2015627.690 7   -890492.229 7
  20666941.683    20666947.067    -2570716.709 8   2967271.872 8
 86  6 18 23 25 11.0800000  0  4G 6G 8G 9G11
  20630762.484    20630766.582     -786669.745 8   -295499.334 8
  21574333.231    21574337.108     1765992.231 9   1537691.663 8
  22629475.535    22629478.061    -2033310.629 7   -904271.148 8
  20665906.990    20665911.635    -2576162.438 8   2963028.440 7
 86  6 18 23 25 17.0800000  0  4G 6G 8G 9G11
  20629554.244    20629557.876     -793024.726 8   -300451.260 9
  21577377.536    21577381.193     1781989.802 8   1550157.308 7
  22626110.371    22626114.737    -2050991.018 7   -918048.053 7
  20664875.996    20664878.912    -2581584.925 8   2958803.148 6
 86  6 18 23 25 23.0800000  0  4G 6G 8G 9G11
  20628347.779    20628351.323     -799366.222 9   -305392.683 8
  21580424.626    21580428.194     1798004.823 7   1562636.524 8
  22622746.903    22622750.097    -2068668.825 7   -931822.965 7
  20663847.094    20663852.168    -2586984.161 7   2954595.956 7
 86  6 18 23 25 29.0800000  0  4G 6G 8G 9G11
  20627142.602    20627147.039     -805694.199 9   -310323.582 8
  21583476.372    21583479.768     1814037.288 7   1575129.358 8
  22619382.804    22619384.723    -2086344.066 7   -945595.870 8
  20662825.102    20662828.364    -2592360.109 8   2950406.902 7
 86  6 18 23 25 35.0800000  0  4G 6G 8G 9G11
  20625941.527    20625944.971     -812008.724 8   -315243.982 8
  21586530.914    21586533.685     1830087.119 8   1587635.710 8
  22616020.184    22616024.221    -2104016.794 8   -959366.823 7
  20661804.861    20661809.609    -2597712.849 8   2946235.934 6
 86  6 18 23 25 41.0800000  0  4G 6G 8G 9G11
  20624741.978    20624746.612     -818309.805 8   -320153.921 7
  21589587.820    21589591.812     1846154.273 8   1600155.574 8
  22612656.743    22612660.702    -2121686.927 7   -973135.761 8
  20660791.154    20660795.773    -2603042.382 7   2942083.061 7
 86  6 18 23 25 47.0800000  0  4G 6G 8G 9G11
  20623545.119    20623550.042     -824597.324 9   -325053.281 9
  21592647.824    21592652.376     1862238.764 8   1612688.947 8
  22609294.034    22609299.278    -2139354.444 8   -986902.648 8
  20659781.388    20659785.278    -2608348.663 7   2937948.292 7
 86  6 18 23 25 53.0800000  0  4G 6G 8G 9G11
  20622351.644    20622356.456     -830871.276 8   -329942.075 8
  21595711.728    21595716.049     1878340.576 8   1625235.798 8
  22605933.874    22605937.471    -2157019.253 7  -1000667.429 8
  20658775.210    20658780.133    -2613631.594 9   2933831.732 7
 86  6 18 23 25 59.0800000  0  4G 6G 8G 9G11
  20621160.461    20621165.379     -837131.646 8   -334820.299 8
  21598779.775    21598782.866     1894459.696 8   1637796.155 8
  22602572.027    22602577.100    -2174681.382 7  -1014430.113 7
  20657774.852    20657779.653    -2618891.230 8   2929733.305 7
 86  6 18 23 26  5.0800000  0  4G 6G 8G 9G11
  20619971.723    20619975.598     -843378.397 8   -339687.883 8
  21601850.296    21601854.420     1910596.152 7   1650370.008 8
  22599212.278    22599214.869    -2192340.760 8  -1028190.673 7
  20656778.803    20656783.675    -2624127.555 8   2925653.066 7
 86  6 18 23 26 11.0800000  0  4G 6G 8G 9G11
  20618785.201    20618790.061     -849611.405 8   -344544.782 8
  21604923.821    21604928.326     1926749.978 9   1662957.394 9
  22595852.534    22595856.359    -2209997.428 8  -1041949.110 7
  20655786.227    20655790.426    -2629340.536 8   2921591.014 7
 86  6 18 23 26 17.0800000  0  4G 6G 8G 9G11
  20617601.683    20617607.012     -855830.695 8   -349390.972 8
  21608002.361    21608004.889     1942921.082 7   1675558.262 7
  22592493.556    22592495.599    -2227651.209 9  -1055705.318 8
  20654800.118    20654803.397    -2634530.089 8   2917547.213 7
 86  6 18 23 26 23.0800000  0  4G 6G 8G 9G11
  20616422.042    20616425.311     -862036.156 8   -354226.396 7
  21611082.793    21611086.276     1959109.537 8   1688172.636 9
  22589133.819    22589137.518    -2245302.130 7  -1069459.265 8
  20653816.772    20653821.004    -2639696.245 8   2913521.629 7
 86  6 18 23 26 29.0800000  0  4G 6G 8G 9G11
  20615243.422    20615247.565     -868227.770 9   -359051.025 8
  21614166.203    21614170.199     1975315.354 8   1700800.534 8
  22585777.306    22585779.322    -2262950.119 8  -1083210.933 8
  20652837.458    20652841.461    -2644838.910 8   2909514.373 7
 86  6 18 23 26 35.0800000  0  4G 6G 8G 9G11
  20614067.534    20614071.356     -874405.564 8   -363864.896 8
  21617253.397    21617257.272     1991538.421 8   1713441.887 8
  22582417.699    22582422.185    -2280595.238 7  -1096960.381 7
  20651861.421    20651867.693    -2649958.218 7   2905525.307 7
 86  6 18 23 26 41.0800000  0  4G 6G 8G 9G11
  20612894.148    20612898.573     -880569.587 8   -368668.029 9
  21620343.709    21620347.644     2007778.618 8   1726096.592 8
  22579060.688    22579065.094    -2298237.514 7  -1110707.577 7
  20650894.237    20650898.608    -2655054.167 8   2901554.439 8
 86  6 18 23 26 47.0800000  0  4G 6G 8G 9G11
  20611724.735    20611728.734     -886720.016 9   -373460.590 7
  21623437.554    21623442.150     2024035.887 8   1738764.580 7
  22575703.792    22575707.156    -2315877.109 8  -1124452.713 8
  20649928.138    20649930.828    -2660126.903 8   2897601.670 7
 86  6 18 23 26 53.0800000  0  4G 6G 8G 9G11
  20610557.027    20610560.158     -892856.827 9   -378242.514 9
  21626534.280    21626539.117     2040310.025 8   1751445.729 8
  22572348.269    22572352.715    -2333514.000 8  -1138195.733 8
  20648967.281    20648973.180    -2665176.426 8   2893666.973 7
 86  6 18 23 26 59.0800000  0  4G 6G 8G 9G11
  20609391.269    20609395.649     -898979.945 7   -383013.769 7
  21629634.951    21629637.969     2056601.166 8   1764140.126 9
  22568993.164    22568997.020    -2351148.115 8  -1151936.617 8
  20648008.746    20648016.278    -2670202.738 7   2889750.380 7
 86  6 18 23 27  5.0800000  0  4G 6G 8G 9G11
  20608228.930    20608232.096     -905089.299 9   -387774.309 8
  21632737.807    21632742.324     2072909.295 9   1776847.750 8
  22565635.658    22565641.595    -2368779.417 8  -1165675.265 9
  20647059.111    20647062.569    -2675205.762 8   2885851.919 8
 86  6 18 23 27 11.0800000  0  4G 6G 8G 9G11
  20607068.847    20607072.015     -911184.910 8   -392524.138 8
  21635845.259    21635848.049     2089234.374 8   1789568.583 8
  22562283.440    22562287.017    -2386407.906 8  -1179411.753 9
  20646110.383    20646115.147    -2680185.530 7   2881971.587 8
 86  6 18 23 27 17.0800000  0  4G 6G 8G 9G11
  20605913.184    20605915.317     -917266.720 9   -397263.208 9
  21638954.306    21638957.875     2105576.355 8   1802302.590 8
  22558929.829    22558932.347    -2404033.605 8  -1193146.056 8
  20645165.728    20645172.372    -2685142.069 7   2878109.376 8
 86  6 18 23 27 23.0800000  0  4G 6G 8G 9G11
  20604756.200    20604760.508     -923334.753 8   -401991.554 8
  21642067.233    21642070.744     2121935.235 8   1815049.757 8
  22555575.211    22555579.051    -2421656.376 7  -1206878.086 8
  20644228.723    20644233.489    -2690075.258 8   2874265.304 8
 86  6 18 23 27 29.0800000  0  4G 6G 8G 9G11
  20603605.651    20603608.715     -929388.943 9   -406709.112 9
  21645182.519    21645187.719     2138311.073 8   1827810.147 9
  22552221.623    22552225.612    -2439276.197 8  -1220607.792 8
  20643294.137    20643298.878    -2694985.137 8   2870439.439 7
 86  6 18 23 27 35.0800000  0  4G 6G 8G 9G11
  20602456.300    20602459.163     -935429.192 8   -411415.783 8
  21648301.850    21648307.060     2154703.775 8   1840583.672 9
  22548869.334    22548872.750    -2456893.010 8  -1234335.170 8
  20642364.636    20642369.524    -2699871.693 9   2866631.744 8
 86  6 18 23 27 41.0800000  0  4G 6G 8G 9G11
  20601308.854    20601312.342     -941455.477 9   -416111.589 8
  21651424.974    21651428.778     2171113.428 8   1853370.401 8
  22545517.895    22545520.873    -2474506.791 8  -1248060.190 8
  20641440.208    20641444.664    -2704734.806 7   2862842.303 7
 86  6 18 23 27 47.0800000  0  4G 6G 8G 9G11
  20600164.274    20600168.838     -947467.778 8   -420796.501 8
  21654551.403    21654556.075     2187540.011 8   1866170.347 8
  22542165.203    22542170.680    -2492117.498 7  -1261782.812 8
  20640517.415    20640523.801    -2709574.526 9   2859071.094 7
 86  6 18 23 27 53.0800000  0  4G 6G 8G 9G11
  20599023.954    20599027.056     -953466.126 8   -425470.551 8
  21657679.886    21657684.635     2203983.438 8   1878983.401 8
  22538816.448    22538820.875    -2509725.230 8  -1275503.114 8
  20639601.617    20639607.735    -2714390.917 8   2855318.063 8
 86  6 18 23 27 59.0800000  0  4G 6G 8G 9G11
  20597885.408    20597888.033     -959450.507 8   -430133.697 8
  21660812.497    21660817.431     2220443.696 8   1891809.568 8
  22535465.716    22535470.268    -2527329.995 7  -1289221.115 8
  20638690.569    20638694.980    -2719183.918 8   2851583.259 8
 86  6 18 23 28  5.0800000  0  4G 6G 8G 9G11
  20596748.641    20596752.632     -965420.893 9   -434785.948 9
  21663947.759    21663951.722     2236920.682 8   1904648.768 8
  22532115.674    22532120.464    -2544931.696 8  -1302936.706 8
  20637782.365    20637787.330    -2723953.634 8   2847866.605 7
 86  6 18 23 28 11.0800000  0  4G 6G 8G 9G11
  20595614.801    20595618.605     -971377.309 8   -439427.302 8
  21667087.295    21667091.322     2253414.359 8   1917500.994 8
  22528767.438    22528770.957    -2562530.347 7  -1316649.923 7
  20636878.709    20636883.627    -2728700.035 7   2844168.111 8
 86  6 18 23 28 17.0800000  0  4G 6G 8G 9G11
  20594484.694    20594488.117     -977319.759 9   -444057.785 9
  21670228.230    21670233.385     2269924.780 8   1930366.239 8
  22525417.441    22525422.772    -2580125.878 8  -1330360.736 8
  20635980.401    20635984.868    -2733423.084 7   2840487.829 8
 86  6 18 23 28 23.0800000  0  4G 6G 8G 9G11
  20593355.968    20593359.179     -983248.146 9   -448677.312 7
  21673374.156    21673377.806     2286451.895 7   1943244.514 8
  22522071.508    22522074.558    -2597718.293 9  -1344069.098 7
  20635085.986    20635092.706    -2738122.845 7   2836825.685 7
 86  6 18 23 28 29.0800000  0  4G 6G 8G 9G11
  20592230.710    20592234.148     -989162.506 8   -453285.907 8
  21676521.870    21676526.766     2302995.710 9   1956135.798 9
  22518723.278    22518727.598    -2615307.562 8  -1357775.012 8
  20634194.806    20634200.845    -2742799.288 8   2833181.687 7
 86  6 18 23 28 35.0800000  0  4G 6G 8G 9G11
  20591107.970    20591111.467     -995062.743 9   -457883.486 8
  21679673.145    21679677.089     2319556.118 8   1969040.009 8
  22515378.736    22515381.708    -2632893.780 8  -1371478.560 8
  20633309.567    20633315.182    -2747452.394 7   2829555.896 8
 86  6 18 23 28 41.0800000  0  4G 6G 8G 9G11
  20589987.487    20589991.131    -1000948.955 8   -462470.144 8
  21682827.986    21682832.067     2336133.139 8   1981957.153 8
  22512032.474    22512035.246    -2650476.949 8  -1385179.723 8
  20632428.766    20632434.402    -2752082.179 8   2825948.285 8
 86  6 18 23 28 47.0800000  0  4G 6G 8G 9G11
  20588869.795    20588873.658    -1006821.071 8   -467045.833 8
  21685984.693    21685988.668     2352726.701 8   1994887.221 8
  22508685.697    22508689.654    -2668056.926 9  -1398878.402 8
  20631552.387    20631558.326    -2756688.664 8   2822358.810 8
 86  6 18 23 28 53.0800000  0  4G 6G 8G 9G11
  20587756.104    20587759.699    -1012679.051 8   -471610.478 8
  21689146.636    21689149.404     2369336.860 8   2007830.191 8
  22505342.185    22505345.372    -2685633.723 9  -1412574.598 7
  20630680.967    20630686.018    -2761271.832 7   2818787.514 7
 86  6 18 23 28 59.0800000  0  4G 6G 8G 9G11
  20586643.952    20586647.183    -1018522.855 9   -476164.102 8
  21692310.407    21692314.217     2385963.601 9   2020786.082 8
  22501997.354    22502000.891    -2703207.303 8  -1426268.291 8
  20629812.599    20629818.367    -2765831.617 8   2815234.444 7
 86  6 18 23 29  5.0800000  0  4G 6G 8G 9G11
  20585534.520    20585537.411    -1024352.432 8   -480706.630 8
  21695477.201    21695481.380     2402606.895 8   2033754.893 8
  22498653.239    22498657.021    -2720777.610 8  -1439959.440 8
  20628949.826    20628955.465    -2770368.016 8   2811699.598 7
 86  6 18 23 29 11.0800000  0  4G 6G 8G 9G11
  20584427.678    20584431.491    -1030167.784 8   -485238.071 9
  21698647.390    21698651.758     2419266.776 8   2046736.611 7
  22495311.427    22495313.913    -2738344.642 8  -1453648.026 8
  20628090.840    20628095.548    -2774880.942 8   2808183.031 7
 86  6 18 23 29 17.0800000  0  4G 6G 8G 9G11
  20583323.884    20583327.107    -1035968.825 8   -489758.367 7
  21701820.345    21701825.135     2435943.208 8   2059731.235 8
  22491968.623    22491972.225    -2755908.310 8  -1467333.996 7
  20627235.541    20627241.041    -2779370.394 8   2804684.751 8
 86  6 18 23 29 23.0800000  0  4G 6G 8G 9G11
  20582221.153    20582226.981    -1041755.633 7   -494267.561 8
  21704997.053    21705002.143     2452636.083 8   2072738.669 9
  22488626.785    22488631.040    -2773468.676 7  -1481017.400 8
  20626386.587    20626391.695    -2783836.480 7   2801204.687 8
 86  6 18 23 29 29.0800000  0  4G 6G 8G 9G11
  20581122.608    20581128.181    -1047528.198 8   -498765.669 8
  21708176.930    21708182.783     2469345.325 8   2085758.839 8
  22485286.235    22485289.443    -2791025.800 8  -1494698.273 8
  20625542.368    20625547.023    -2788279.217 8   2797742.828 7
 86  6 18 23 29 35.0800000  0  4G 6G 8G 9G11
  20580027.411    20580032.200    -1053286.612 8   -503252.750 7
  21711359.927    21711364.700     2486070.890 8   2098791.752 8
  22481945.497    22481949.986    -2808579.718 8  -1508376.642 8
  20624701.003    20624705.481    -2792698.682 7   2794299.077 9
 86  6 18 23 29 41.0800000  0  4G 6G 8G 9G11
  20578934.319    20578938.632    -1059030.789 7   -507728.716 9
  21714545.361    21714550.319     2502812.759 8   2111837.364 8
  22478605.285    22478610.106    -2826130.366 8  -1522052.468 7
  20623864.132    20623868.164    -2797094.873 7   2790873.482 8
 86  6 18 23 29 47.0800000  0  4G 6G 8G 9G11
  20577844.180    20577849.165    -1064760.774 8   -512193.644 8
  21717735.382    21717737.944     2519570.856 7   2124895.610 8
  22475266.158    22475271.938    -2843677.724 8  -1535725.717 9
  20623032.405    20623035.731    -2801467.807 8   2787465.999 7
 86  6 18 23 29 53.0800000  0  4G 6G 8G 9G11
  20576756.779    20576760.251    -1070476.494 8   -516647.450 8
  21720927.200    21720931.186     2536345.225 9   2137966.554 8
  22471928.221    22471932.218    -2861221.660 8  -1549396.309 8
  20622204.628    20622209.938    -2805817.467 8   2784076.666 7
 86  6 18 23 29 59.0800000  0  4G 6G 8G 9G11
  20575672.085    20575675.660    -1076177.937 8   -521090.134 9
  21724122.287    21724125.882     2553135.804 9   2151050.109 9
  22468590.390    22468594.158    -2878762.344 8  -1563064.368 8
  20621381.201    20621385.671    -2810143.807 8   2780705.485 8
 86  6 18 23 30  5.0800000  0  4G 6G 8G 9G11
  20574589.309    20574593.799    -1081865.150 8   -525521.730 8
  21727320.058    21727324.078     2569942.489 9   2164146.223 8
  22465253.043    22465255.881    -2896299.849 9  -1576729.942 9
  20620562.453    20620567.127    -2814446.896 7   2777352.440 8
 86  6 18 23 30 11.0800000  0  4G 6G 8G 9G11
  20573508.621    20573512.782    -1087538.079 8   -529942.187 9
  21730520.678    21730526.160     2586765.352 8   2177254.960 8
  22461915.155    22461920.174    -2913834.023 8  -1590392.933 8
  20619746.814    20619752.038    -2818726.721 8   2774017.512 8
 86  6 18 23 30 17.0800000  0  4G 6G 8G 9G11
  20572433.184    20572437.395    -1093196.650 9   -534351.468 8
  21733727.184    21733730.521     2603604.415 8   2190376.289 7
  22458580.309    22458583.859    -2931364.635 9  -1604053.142 9
  20618937.221    20618942.117    -2822983.247 8   2770700.751 8
 86  6 18 23 30 23.0800000  0  4G 6G 8G 9G11
  20571358.723    20571363.231    -1098840.784 8   -538749.493 8
  21736932.614    21736937.152     2620459.671 9   2203510.245 8
  22455245.011    22455250.024    -2948891.787 8  -1617710.663 7
  20618131.301    20618137.025    -2827216.356 8   2767402.219 7
 86  6 18 23 30 29.0800000  0  4G 6G 8G 9G11
  20570287.896    20570291.730    -1104470.407 9   -543136.214 8
  21740143.919    21740148.080     2637331.161 8   2216656.865 8
  22451909.384    22451914.654    -2966415.511 7  -1631365.498 8
  20617330.414    20617336.065    -2831426.019 9   2764121.979 7
 86  6 18 23 30 35.0800000  0  4G 6G 8G 9G11
  20569218.231    20569223.645    -1110085.494 8   -547511.602 9
  21743358.027    21743361.645     2654218.865 8   2229816.110 8
  22448574.987    22448580.292    -2983935.767 8  -1645017.640 8
  20616534.994    20616539.012    -2835612.239 7   2760859.981 8
 86  6 18 23 30 41.0800000  0  4G 6G 8G 9G11
  20568153.480    20568157.118    -1115686.107 8   -551875.715 8
  21746574.085    21746578.096     2671122.693 9   2242987.932 7
  22445242.084    22445246.719    -3001452.426 8  -1658666.969 9
  20615742.191    20615746.769    -2839775.070 8   2757616.223 8
 86  6 18 23 30 47.0800000  0  4G 6G 8G 9G11
  20567090.120    20567094.922    -1121272.200 8   -556228.516 8
  21749793.300    21749799.168     2688042.643 9   2256172.303 8
  22441910.277    22441916.318    -3018965.558 8  -1672313.572 8
  20614954.278    20614959.800    -2843914.532 8   2754390.669 7
 86  6 18 23 30 53.0800000  0  4G 6G 8G 9G11
  20566029.305    20566033.928    -1126843.768 8   -560569.994 9
  21753015.980    21753021.368     2704978.668 8   2269369.208 8
  22438577.749    22438582.299    -3036475.124 8  -1685957.371 8
  20614170.358    20614175.981    -2848030.594 8   2751183.357 9
 86  6 18 23 30 59.0800000  0  4G 6G 8G 9G11
  20564972.809    20564977.340    -1132400.851 9   -564900.197 9
  21756242.936    21756246.633     2721930.717 8   2282578.582 8
  22435247.084    22435251.210    -3053981.080 8  -1699598.357 8
  20613392.467    20613398.145    -2852123.272 9   2747994.255 7
 86  6 18 23 31  5.0800000  0  4G 6G 8G 9G11
  20563917.518    20563922.413    -1137943.417 9   -569219.083 9
  21759471.953    21759476.615     2738898.751 8   2295800.433 8
  22431916.583    22431920.626    -3071483.490 9  -1713236.595 8
  20612617.018    20612621.573    -2856192.621 7   2744823.329 7
 86  6 18 23 31 11.0800000  0  4G 6G 8G 9G11
  20562865.989    20562870.146    -1143471.471 8   -573526.657 8
  21762703.476    21762707.458     2755882.692 8   2309034.673 8
  22428586.127    22428589.812    -3088982.423 7  -1726872.113 8
  20611848.409    20611853.408    -2860238.734 8   2741670.519 7
 86  6 18 23 31 17.0800000  0  4G 6G 8G 9G11
  20561816.381    20561820.587    -1148985.113 7   -577822.991 8
  21765937.996    21765941.621     2772882.425 8   2322281.217 8
  22425257.431    22425262.524    -3106477.938 8  -1740504.971 9
  20611082.500    20611086.988    -2864261.568 8   2738535.841 8
 86  6 18 23 31 23.0800000  0  4G 6G 8G 9G11
  20560771.074    20560774.855    -1154484.318 8   -582108.101 8
  21769175.792    21769181.104     2789897.929 9   2335540.039 7
  22421928.097    22421931.528    -3123969.953 9  -1754135.119 9
  20610322.009    20610326.063    -2868261.172 8   2735419.283 8
 86  6 18 23 31 29.0800000  0  4G 6G 8G 9G11
  20559728.175    20559730.333    -1159969.052 9   -586381.911 8
  21772417.173    21772421.253     2806929.224 9   2348811.179 8
  22418599.882    22418604.080    -3141458.456 8  -1767762.524 8
  20609565.381    20609569.737    -2872237.524 8   2732320.823 7
 86  6 18 23 31 35.0800000  0  4G 6G 8G 9G11
  20558685.890    20558689.597    -1165439.213 8   -590644.377 8
  21775661.343    21775664.999     2823976.245 9   2362094.564 8
  22415273.985    22415277.879    -3158943.367 8  -1781387.110 8
  20608813.041    20608817.931    -2876190.630 7   2729240.483 7
 86  6 18 23 31 41.0800000  0  4G 6G 8G 9G11
  20557647.508    20557651.532    -1170894.745 8   -594895.434 9
  21778908.831    21778911.928     2841039.121 8   2375390.311 8
  22411946.265    22411951.015    -3176424.551 7  -1795008.818 8
  20608065.438    20608069.548    -2880120.393 8   2726178.335 8
 86  6 18 23 31 47.0800000  0  4G 6G 8G 9G11
  20556612.774    20556615.970    -1176335.630 9   -599135.091 8
  21782158.756    21782162.297     2858117.821 9   2388698.388 9
  22408620.277    22408624.952    -3193902.034 8  -1808627.628 8
  20607321.695    20607326.245    -2884026.804 7   2723134.375 8
 86  6 18 23 31 53.0800000  0  4G 6G 8G 9G11
  20555579.622    20555583.462    -1181761.895 8   -603363.346 8
  21785410.941    21785415.885     2875212.272 8   2402018.744 8
  22405295.355    22405300.148    -3211375.849 8  -1822243.585 9
  20606583.459    20606586.593    -2887909.868 8   2720108.611 9
 86  6 18 23 31 59.0800000  0  4G 6G 8G 9G11
  20554550.096    20554554.445    -1187173.380 9   -607580.084 8
  21788667.109    21788671.145     2892322.508 8   2415351.392 7
  22401971.204    22401975.619    -3228846.002 9  -1835856.670 9
  20605848.200    20605852.398    -2891769.563 8   2717101.070 8
 86  6 18 23 32  5.0800000  0  4G 6G 8G 9G11
  20553523.026    20553526.996    -1192570.111 8   -611785.331 8
  21791926.264    21791930.640     2909448.543 8   2428696.344 8
  22398647.024    22398651.365    -3246312.289 8  -1849466.765 8
  20605118.576    20605122.363    -2895605.783 8   2714111.803 7
 86  6 18 23 32 11.0800000  0  4G 6G 8G 9G11
  20552499.225    20552502.603    -1197952.071 8   -615979.076 9
  21795188.463    21795192.721     2926590.330 8   2442053.578 8
  22395323.875    22395328.965    -3263774.832 7  -1863073.928 9
  20604392.826    20604397.859    -2899418.642 9   2711140.751 8
 86  6 18 23 32 17.0800000  0  4G 6G 8G 9G11
  20551478.432    20551481.226    -1203319.250 9   -620161.288 8
  21798452.880    21798456.962     2943747.845 8   2455423.077 8
  22392001.149    22392005.970    -3281233.477 8  -1876678.067 8
  20603672.403    20603676.046    -2903208.120 7   2708187.913 8
 86  6 18 23 32 23.0800000  0  4G 6G 8G 9G11
  20550459.634    20550463.537    -1208671.657 8   -624331.992 8
  21801720.120    21801724.585     2960921.044 8   2468804.770 8
  22388680.340    22388683.856    -3298688.295 7  -1890279.212 8
  20602955.090    20602959.249    -2906974.235 7   2705253.271 7
 86  6 18 23 32 29.0800000  0  4G 6G 8G 9G11
  20549442.757    20549448.002    -1214009.277 8   -628491.185 9
  21804991.644    21804996.548     2978109.877 7   2482198.681 8
  22385360.178    22385363.952    -3316139.232 8  -1903877.330 9
  20602244.405    20602247.235    -2910716.983 8   2702336.842 7
 86  6 18 23 32 35.0800000  0  4G 6G 8G 9G11
  20548431.175    20548435.356    -1219332.092 8   -632638.823 9
  21808266.859    21808269.611     2995314.299 8   2495604.710 8
  22382039.444    22382043.487    -3333586.334 8  -1917472.473 8
  20601535.161    20601540.722    -2914436.357 8   2699438.645 9
 86  6 18 23 32 41.0800000  0  4G 6G 8G 9G11
  20547420.149    20547423.102    -1224640.095 7   -636774.929 8
  21811544.008    21811546.322     3012534.246 8   2509022.842 9
  22378718.864    22378725.059    -3351029.646 8  -1931064.653 8
  20600832.064    20600836.739    -2918132.370 8   2696558.633 8
 86  6 18 23 32 47.0800000  0  4G 6G 8G 9G11
  20546413.084    20546417.088    -1229933.323 8   -640899.526 9
  21814822.319    21814826.479     3029769.741 7   2522453.113 8
  22375400.774    22375405.979    -3368469.141 8  -1944653.872 7
  20600131.596    20600137.122    -2921805.085 8   2693696.774 8
 86  6 18 23 32 53.0800000  0  4G 6G 8G 9G11
  20545408.644    20545412.484    -1235211.765 8   -645012.595 9
  21818104.658    21818109.914     3047020.698 8   2535895.406 8
  22372083.615    22372088.685    -3385904.849 8  -1958240.115 8
  20599438.748    20599442.572    -2925454.539 8   2690853.048 8
 86  6 18 23 32 59.0800000  0  4G 6G 8G 9G11
  20544407.099    20544411.456    -1240475.337 8   -649114.085 7
  21821390.100    21821395.105     3064287.106 7   2549349.745 9
  22368766.689    22368771.963    -3403336.691 8  -1971823.370 8
  20598748.193    20598752.604    -2929080.726 8   2688027.452 7
 86  6 18 23 33  5.0800000  0  4G 6G 8G 9G11
  20543409.107    20543412.952    -1245724.011 9   -653203.953 9
  21824678.869    21824683.705     3081569.033 9   2562816.183 9
  22365450.027    22365454.222    -3420764.532 7  -1985403.505 8
  20598061.855    20598067.384    -2932683.586 9   2685220.036 7
 86  6 18 23 33 11.0800000  0  4G 6G 8G 9G11
  20542413.179    20542416.088    -1250957.772 9   -657282.197 8
  21827971.631    21827976.582     3098866.378 9   2576294.624 8
  22362134.161    22362138.244    -3438188.465 7  -1998980.586 8
  20597381.005    20597385.712    -2936263.056 8   2682430.840 7
 86  6 18 23 33 17.0800000  0  4G 6G 8G 9G11
  20541419.867    20541423.607    -1256176.722 9   -661348.921 9
  21831265.321    21831270.391     3116179.039 9   2589785.009 8
  22358818.759    22358824.550    -3455608.560 7  -2012554.669 8
  20596703.855    20596708.402    -2939819.230 8   2679659.800 8
 86  6 18 23 33 23.0800000  0  4G 6G 8G 9G11
  20540429.843    20540431.980    -1261380.811 8   -665404.055 8
  21834562.289    21834566.342     3133507.004 8   2603287.317 8
  22355505.997    22355509.133    -3473024.722 8  -2026125.697 9
  20596032.549    20596037.871    -2943352.127 8   2676906.896 8
 86  6 18 23 33 29.0800000  0  4G 6G 8G 9G11
  20539442.533    20539446.279    -1266570.028 9   -669447.601 8
  21837863.229    21837868.776     3150850.286 8   2616801.554 8
  22352192.123    22352196.452    -3490436.933 8  -2039693.630 8
  20595364.849    20595369.289    -2946861.728 8   2674172.133 8
 86  6 18 23 33 35.0800000  0  4G 6G 8G 9G11
  20538457.215    20538461.252    -1271744.295 8   -673479.497 9
  21841166.077    21841170.938     3168208.839 8   2630327.713 8
  22348879.018    22348883.388    -3507845.162 7  -2053258.492 8
  20594701.091    20594705.571    -2950348.056 8   2671455.531 8
 86  6 18 23 33 41.0800000  0  4G 6G 8G 9G11
  20537476.815    20537479.001    -1276903.597 9   -677499.728 8
  21844472.338    21844476.346     3185582.689 8   2643865.763 7
  22345567.508    22345572.012    -3525249.463 7  -2066820.281 8
  20594043.346    20594046.032    -2953811.067 8   2668757.065 8
 86  6 18 23 33 47.0800000  0  4G 6G 8G 9G11
  20536496.839    20536500.086    -1282047.940 9   -681508.306 9
  21847781.667    21847785.886     3202971.769 8   2657415.699 8
  22342255.989    22342260.063    -3542649.790 7  -2080378.986 8
  20593386.746    20593392.245    -2957250.764 8   2666076.797 8
 86  6 18 23 33 53.0800000  0  4G 6G 8G 9G11
  20535521.541    20535524.598    -1287177.199 8   -685505.129 9
  21851093.620    21851096.804     3220376.108 8   2670977.522 8
  22338945.574    22338949.477    -3560045.909 8  -2093934.392 8
  20592737.350    20592741.424    -2960667.123 8   2663414.697 8
 86  6 18 23 33 59.0800000  0  4G 6G 8G 9G11
  20534547.482    20534550.935    -1292291.469 9   -689490.271 8
  21854407.979    21854413.100     3237795.722 8   2684551.238 9
  22335636.522    22335640.562    -3577437.949 8  -2107486.616 8
  20592091.520    20592095.632    -2964060.104 8   2660770.829 8
 86  6 18 23 34  5.0800000  0  4G 6G 8G 9G11
  20533576.566    20533580.331    -1297390.638 9   -693463.648 9
  21857726.208    21857730.433     3255230.533 8   2698136.797 8
  22332328.057    22332332.008    -3594825.998 8  -2121035.733 9
  20591450.263    20591454.941    -2967429.712 8   2658145.164 8
 86  6 18 23 34 11.0800000  0  4G 6G 8G 9G11
  20532610.287    20532612.761    -1302474.787 8   -697425.312 8
  21861047.648    21861050.387     3272680.435 7   2711734.126 8
  22329019.523    22329022.853    -3612209.981 8  -2134581.691 7
  20590813.270    20590818.326    -2970776.079 8   2655537.600 8
 86  6 18 23 34 17.0800000  0  4G 6G 8G 9G11
  20531644.768    20531649.191    -1307543.914 8   -701375.294 8
  21864370.060    21864374.791     3290145.393 7   2725343.174 8
  22325712.840    22325716.159    -3629589.831 7  -2148124.428 8
  20590181.713    20590184.942    -2974099.200 9   2652948.158 9
 86  6 18 23 34 23.0800000  0  4G 6G 8G 9G11
  20530683.256    20530686.235    -1312598.015 9   -705313.551 8
  21867696.926    21867700.009     3307625.397 8   2738963.962 9
  22322405.622    22322410.174    -3646965.598 8  -2161663.983 8
  20589554.728    20589556.873    -2977399.108 8   2650376.800 8
 86  6 18 23 34 29.0800000  0  4G 6G 8G 9G11
  20529724.050    20529727.953    -1317637.070 8   -709240.091 9
  21871026.373    21871029.712     3325120.342 8   2752596.372 8
  22319100.201    22319103.023    -3664337.324 8  -2175200.382 7
  20588931.756    20588934.366    -2980675.867 8   2647823.481 7
 86  6 18 23 34 35.0800000  0  4G 6G 8G 9G11
  20528767.169    20528771.733    -1322661.141 8   -713154.949 9
  21874358.402    21874362.857     3342630.266 7   2766240.463 8
  22315795.210    22315798.091    -3681705.036 9  -2188733.656 8
  20588310.729    20588315.294    -2983929.400 9   2645288.263 7
 86  6 18 23 34 41.0800000  0  4G 6G 8G 9G11
  20527814.333    20527818.367    -1327670.140 8   -717058.080 8
  21877693.341    21877697.069     3360155.187 7   2779896.250 8
  22312489.927    22312494.230    -3699068.657 8  -2202263.740 7
  20587696.110    20587699.979    -2987159.679 8   2642771.169 8
 86  6 18 23 34 47.0800000  0  4G 6G 8G 9G11
  20526864.955    20526867.475    -1332663.999 8   -720949.383 8
  21881031.116    21881034.771     3377695.048 7   2793563.661 8
  22309186.931    22309191.709    -3716428.031 8  -2215790.524 8
  20587085.610    20587091.083    -2990366.697 8   2640272.186 7
 86  6 18 23 34 53.0800000  0  4G 6G 8G 9G11
  20525917.253    20525920.334    -1337642.687 8   -724828.902 8
  21884371.553    21884374.987     3395249.842 7   2807242.712 8
  22305885.545    22305887.109    -3733783.262 8  -2229314.080 9
  20586479.580    20586484.669    -2993550.401 9   2637791.391 8
 86  6 18 23 34 59.0800000  0  4G 6G 8G 9G11
  20524972.552    20524975.826    -1342606.121 8   -728696.503 9
  21887713.792    21887718.686     3412819.597 7   2820933.435 9
  22302584.017    22302587.685    -3751134.214 8  -2242834.306 8
  20585877.846    20585882.042    -2996710.863 8   2635328.690 7
 86  6 18 23 35  5.0800000  0  4G 6G 8G 9G11
  20524030.222    20524034.105    -1347554.370 8   -732552.269 8
  21891061.717    21891065.652     3430404.272 7   2834635.766 8
  22299282.640    22299285.587    -3768480.927 8  -2256351.222 8
  20585281.613    20585285.503    -2999848.040 8   2632884.155 9
 86  6 18 23 35 11.0800000  0  4G 6G 8G 9G11
  20523091.437    20523096.316    -1352487.391 9   -736396.188 8
  21894408.777    21894413.498     3448003.817 7   2848349.692 8
  22295982.571    22295984.857    -3785823.339 9  -2269864.785 7
  20584688.193    20584693.617    -3002961.928 8   2630457.729 7
 86  6 18 23 35 17.0800000  0  4G 6G 8G 9G11
  20522155.971    20522159.973    -1357405.156 8   -740228.216 8
  21897760.356    21897765.790     3465618.249 8   2862075.221 9
  22292683.220    22292685.334    -3803161.356 8  -2283374.918 8
  20584099.369    20584105.384    -3006052.488 7   2628049.507 8
 86  6 18 23 35 23.0800000  0  4G 6G 8G 9G11
  20521222.948    20521226.967    -1362307.672 8   -744048.355 8
  21901116.471    21901120.943     3483247.527 8   2875812.307 8
  22289384.568    22289386.585    -3820495.109 9  -2296881.735 7
  20583516.880    20583521.588    -3009119.773 7   2625659.417 9
 86  6 18 23 35 29.0800000  0  4G 6G 8G 9G11
  20520292.948    20520296.491    -1367194.901 8   -747856.594 8
  21904474.346    21904477.001     3500891.551 8   2889560.891 9
  22286086.769    22286090.171    -3837824.549 8  -2310385.194 8
  20582938.058    20582942.610    -3012163.792 8   2623287.463 8
 86  6 18 23 35 35.0800000  0  4G 6G 8G 9G11
  20519365.614    20519370.264    -1372066.797 8   -751652.887 9
  21907835.079    21907838.051     3518550.374 8   2903321.018 8
  22282789.854    22282793.230    -3855149.650 9  -2323885.266 6
  20582363.102    20582367.762    -3015184.518 8   2620933.651 7
 86  6 18 23 35 41.0800000  0  4G 6G 8G 9G11
  20518441.780    20518446.546    -1376923.388 8   -755437.230 8
  21911197.142    21911202.256     3536223.981 8   2917092.664 9
  22279492.484    22279497.187    -3872470.389 8  -2337381.944 8
  20581792.444    20581796.681    -3018181.899 9   2618598.037 8
 86  6 18 23 35 47.0800000  0  4G 6G 8G 9G11
  20517520.598    20517524.342    -1381764.587 8   -759209.605 8
  21914563.796    21914567.949     3553912.368 8   2930875.812 8
  22276197.700    22276202.519    -3889786.670 8  -2350875.136 7
  20581225.218    20581231.448    -3021155.983 8   2616280.562 8
 86  6 18 23 35 53.0800000  0  4G 6G 8G 9G11
  20516602.546    20516606.692    -1386590.427 8   -762969.989 8
  21917931.811    21917937.533     3571615.430 7   2944670.395 8
  22272905.582    22272907.513    -3907098.554 8  -2364364.927 7
  20580664.065    20580670.118    -3024106.787 8   2613981.239 8
 86  6 18 23 35 59.0800000  0  4G 6G 8G 9G11
  20515687.293    20515690.172    -1391400.817 9   -766718.357 8
  21921304.990    21921308.158     3589333.297 7   2958476.521 7
  22269611.005    22269614.727    -3924405.872 8  -2377851.127 8
  20580106.949    20580111.811    -3027034.196 8   2611700.137 8
 86  6 18 23 36  5.0800000  0  4G 6G 8G 9G11
  20514774.318    20514778.728    -1396195.802 8   -770454.715 9
  21924677.581    21924682.712     3607065.748 8   2972294.015 8
  22266317.939    22266321.358    -3941708.795 8  -2391333.933 8
  20579555.420    20579558.780    -3029938.360 8   2609437.160 8
 86  6 18 23 36 11.0800000  0  4G 6G 8G 9G11
  20513865.136    20513868.381    -1400975.396 9   -774179.067 9
  21928056.579    21928060.519     3624812.826 8   2986122.900 8
  22263026.289    22263030.346    -3959007.235 8  -2404813.238 8
  20579006.086    20579011.299    -3032819.260 9   2607192.292 8
 86  6 18 23 36 17.0800000  0  4G 6G 8G 9G11
  20512957.422    20512962.962    -1405739.588 9   -777891.425 8
  21931435.249    21931439.254     3642574.483 7   2999963.149 9
  22259734.915    22259739.244    -3976301.283 8  -2418289.108 7
  20578462.295    20578468.572    -3035676.883 9   2604965.593 7
 86  6 18 23 36 23.0800000  0  4G 6G 8G 9G11
  20512054.974    20512058.861    -1410488.311 8   -781591.722 9
  21934818.436    21934822.136     3660350.735 7   3013814.765 7
  22256445.412    22256448.164    -3993590.746 7  -2431761.423 8
  20577923.606    20577927.617    -3038511.249 7   2602756.983 8
 86  6 18 23 36 29.0800000  0  4G 6G 8G 9G11
  20511153.757    20511157.480    -1415221.613 8   -785280.012 9
  21938202.381    21938208.072     3678141.501 9   3027677.695 7
  22253156.587    22253158.933    -4010875.716 8  -2445230.223 8
  20577389.676    20577393.130    -3041322.387 9   2600566.497 7
 86  6 18 23 36 35.0800000  0  4G 6G 8G 9G11
  20510256.750    20510261.036    -1419939.515 8   -788956.296 9
  21941591.542    21941595.295     3695946.685 8   3041551.859 9
  22249867.324    22249871.791    -4028156.273 8  -2458695.599 8
  20576858.004    20576863.947    -3044110.349 8   2598394.056 8
 86  6 18 23 36 41.0800000  0  4G 6G 8G 9G11
  20509361.850    20509365.267    -1424641.933 9   -792620.516 9
  21944982.981    21944986.169     3713766.306 8   3055437.282 8
  22246580.351    22246583.613    -4045432.351 9  -2472157.463 8
  20576331.621    20576337.407    -3046875.133 7   2596239.686 8
 86  6 18 23 36 47.0800000  0  4G 6G 8G 9G11
  20508469.447    20508473.029    -1429328.836 8   -796272.649 8
  21948377.249    21948381.197     3731600.436 8   3069334.001 8
  22243293.138    22243297.782    -4062703.818 8  -2485615.750 8
  20575811.100    20575815.111    -3049616.561 8   2594103.509 8
 86  6 18 23 36 53.0800000  0  4G 6G 8G 9G11
  20507580.053    20507584.576    -1434000.150 9   -799912.631 8
  21951771.843    21951776.961     3749449.007 8   3083241.965 8
  22240007.687    22240012.208    -4079970.671 8  -2499070.431 8
  20575294.031    20575297.978    -3052334.672 8   2591985.493 7
 86  6 18 23 36 59.0800000  0  4G 6G 8G 9G11
  20506694.155    20506698.291    -1438656.067 9   -803540.608 8
  21955171.838    21955176.054     3767311.863 8   3097161.069 9
  22236722.815    22236727.504    -4097233.086 8  -2512521.648 8
  20574779.291    20574784.325    -3055029.667 8   2589885.495 8
 86  6 18 23 37  5.0800000  0  4G 6G 8G 9G11
  20505811.372    20505815.286    -1443296.430 8   -807156.473 9
  21958575.044    21958578.633     3785189.061 8   3111091.342 9
  22233439.542    22233442.274    -4114490.842 8  -2525969.262 8
  20574271.875    20574276.958    -3057701.471 8   2587803.590 8
 86  6 18 23 37 11.0800000  0  4G 6G 8G 9G11
  20504931.429    20504934.571    -1447921.302 8   -810760.278 8
  21961978.768    21961982.878     3803080.588 7   3125032.782 8
  22230156.363    22230158.864    -4131743.996 8  -2539413.270 7
  20573767.818    20573772.931    -3060350.063 9   2585739.750 8
 86  6 18 23 37 17.0800000  0  4G 6G 8G 9G11
  20504054.742    20504058.879    -1452530.610 8   -814351.943 8
  21965387.305    21965390.076     3820986.385 8   3138985.347 8
  22226874.370    22226877.571    -4148992.535 9  -2552853.697 8
  20573267.926    20573272.902    -3062975.466 7   2583693.977 8
 86  6 18 23 37 23.0800000  0  4G 6G 8G 9G11
  20503181.293    20503183.471    -1457124.266 8   -817931.409 8
  21968796.021    21968800.097     3838906.542 8   3152949.107 8
  22223593.349    22223595.255    -4166236.433 9  -2566290.498 8
  20572772.684    20572778.405    -3065577.624 8   2581666.321 7
 86  6 18 23 37 29.0800000  0  4G 6G 8G 9G11
  20502310.215    20502313.595    -1461702.224 9   -821498.653 9
  21972208.623    21972213.407     3856840.998 8   3166923.995 8
  22220312.180    22220314.821    -4183475.550 8  -2579723.561 8
  20572282.813    20572287.579    -3068156.510 8   2579656.801 9
 86  6 18 23 37 35.0800000  0  4G 6G 8G 9G11
  20501441.238    20501445.256    -1466264.517 8   -825053.690 8
  21975625.074    21975629.867     3874789.758 8   3180910.043 9
  22217033.111    22217034.684    -4200709.893 8  -2593152.937 8
  20571796.354    20571800.884    -3070712.081 8   2577665.449 9
 86  6 18 23 37 41.0800000  0  4G 6G 8G 9G11
  20500576.558    20500579.859    -1470811.140 8   -828596.513 9
  21979042.573    21979046.671     3892752.721 8   3194907.149 8
  22213753.287    22213756.082    -4217939.522 9  -2606578.606 7
  20571315.273    20571318.130    -3073244.462 7   2575692.182 8
 86  6 18 23 37 47.0800000  0  4G 6G 8G 9G11
  20499714.843    20499718.844    -1475342.152 9   -832127.166 8
  21982463.401    21982467.371     3910729.829 9   3208915.273 8
  22210475.469    22210479.117    -4235164.365 9  -2620000.554 8
  20570837.570    20570841.320    -3075753.622 8   2573736.985 8
 86  6 18 23 37 53.0800000  0  4G 6G 8G 9G11
  20498854.896    20498857.153    -1479857.520 9   -835645.636 9
  21985886.733    21985892.761     3928721.060 8   3222934.417 8
  22207197.800    22207202.174    -4252384.532 8  -2633418.866 8
  20570364.059    20570368.916    -3078239.664 8   2571799.821 8
 86  6 18 23 37 59.0800000  0  4G 6G 8G 9G11
  20497999.198    20498001.573    -1484357.283 9   -839151.951 8
  21989312.883    21989316.951     3946726.268 8   3236964.437 8
  22203923.745    22203925.896    -4269600.110 9  -2646833.590 8
  20569895.566    20569899.889    -3080702.610 8   2569880.623 8
 86  6 18 23 38  5.0800000  0  4G 6G 8G 9G11
  20497144.818    20497147.933    -1488841.481 9   -842646.122 9
  21992742.719    21992747.431     3964745.457 8   3251005.369 8
  22200647.341    22200650.991    -4286810.970 8  -2660244.664 9
  20569429.736    20569435.076    -3083142.509 9   2567979.421 8
 86  6 18 23 38 11.0800000  0  4G 6G 8G 9G11
  20496294.692    20496298.099    -1493310.018 8   -846128.100 8
  21996174.375    21996177.864     3982778.639 8   3265057.177 8
  22197374.239    22197376.567    -4304017.108 7  -2673652.036 8
  20568971.684    20568975.763    -3085559.289 7   2566096.214 8
 86  6 18 23 38 17.0800000  0  4G 6G 8G 9G11
  20495447.858    20495450.878    -1497763.042 9   -849597.994 9
  21999609.185    21999612.727     4000825.660 9   3279119.788 8
  22194099.033    22194102.544    -4321218.561 8  -2687055.769 8
  20568516.447    20568520.072    -3087953.115 8   2564230.893 8
 86  6 18 23 38 23.0800000  0  4G 6G 8G 9G11
  20494602.626    20494606.446    -1502200.316 9   -853055.609 8
  22003046.585    22003050.480     4018886.598 8   3293193.252 8
  22190828.582    22190831.646    -4338415.306 8  -2700455.810 8
  20568064.132    20568068.358    -3090323.780 8   2562383.629 7
 86  6 18 23 38 29.0800000  0  4G 6G 8G 9G11
  20493761.900    20493765.411    -1506621.878 9   -856500.988 8
  22006484.730    22006489.152     4036961.441 7   3307277.539 9
  22187556.542    22187559.826    -4355607.283 8  -2713852.155 8
  20567617.562    20567622.340    -3092671.338 9   2560554.367 9
 86  6 18 23 38 35.0800000  0  4G 6G 8G 9G11
  20492922.539    20492926.510    -1511027.706 8   -859934.099 8
  22009926.955    22009931.794     4055050.264 9   3321372.723 8
  22184286.491    22184289.231    -4372794.289 8  -2727244.628 8
  20567173.710    20567180.387    -3094995.680 8   2558743.194 7
 86  6 18 23 38 41.0800000  0  4G 6G 8G 9G11
  20492087.279    20492091.900    -1515417.675 8   -863354.858 8
  22013371.651    22013375.338     4073152.984 7   3335478.729 8
  22181015.378    22181018.230    -4389976.436 8  -2740633.306 8
  20566738.389    20566742.793    -3097296.821 8   2556950.105 8
 86  6 18 23 38 47.0800000  0  4G 6G 8G 9G11
  20491256.079    20491258.958    -1519791.859 8   -866763.302 8
  22016819.885    22016823.133     4091269.650 8   3349595.608 8
  22177747.384    22177750.572    -4407153.670 9  -2754018.165 8
  20566303.147    20566309.129    -3099574.797 8   2555175.048 9
 86  6 18 23 38 53.0800000  0  4G 6G 8G 9G11
  20490424.960    20490430.040    -1524150.063 9   -870159.316 8
  22020269.389    22020273.200     4109400.217 8   3363723.314 8
  22174479.128    22174482.369    -4424325.930 8  -2767399.142 8
  20565874.095    20565880.444    -3101829.588 7   2553418.072 8
 86  6 18 23 38 59.0800000  0  4G 6G 8G 9G11
  20489598.694    20489603.198    -1528492.466 8   -873543.005 9
  22023722.184    22023726.008     4127544.636 9   3377861.821 8
  22171212.170    22171215.798    -4441493.240 8  -2780776.272 9
  20565450.624    20565455.070    -3104061.249 8   2551679.118 8
 86  6 18 23 39  5.0800000  0  4G 6G 8G 9G11
  20488775.817    20488780.140    -1532818.986 8   -876914.326 9
  22027176.579    22027181.693     4145702.848 8   3392011.072 8
  22167946.069    22167949.250    -4458655.539 8  -2794149.478 8
  20565029.409    20565035.428    -3106269.796 7   2549958.179 8
 86  6 18 23 39 11.0800000  0  4G 6G 8G 9G11
  20487956.056    20487959.201    -1537129.593 8   -880273.242 8
  22030635.823    22030639.703     4163874.919 7   3406171.124 7
  22164681.836    22164685.266    -4475812.728 8  -2807518.725 8
  20564614.471    20564619.860    -3108455.078 7   2548255.353 8
 86  6 18 23 39 17.0800000  0  4G 6G 8G 9G11
  20487138.526    20487141.382    -1541424.168 8   -883619.660 8
  22034096.931    22034101.449     4182060.852 8   3420341.970 7
  22161418.444    22161420.000    -4492964.871 8  -2820884.021 8
  20564202.447    20564206.889    -3110617.131 9   2546570.653 9
 86  6 18 23 39 23.0800000  0  4G 6G 8G 9G11
  20486323.761    20486328.624    -1545702.630 9   -886953.540 8
  22037559.507    22037562.955     4200260.641 8   3434523.631 8
  22158155.015    22158158.271    -4510111.896 8  -2834245.334 9
  20563795.163    20563800.477    -3112755.909 8   2544904.078 8
 86  6 18 23 39 29.0800000  0  4G 6G 8G 9G11
  20485512.340    20485517.205    -1549965.061 9   -890274.908 8
  22041025.983    22041030.498     4218474.273 8   3448716.068 8
  22154893.510    22154895.832    -4527253.724 9  -2847602.595 9
  20563393.160    20563397.673    -3114871.412 8   2543255.633 8
 86  6 18 23 39 35.0800000  0  4G 6G 8G 9G11
  20484704.599    20484709.101    -1554211.405 8   -893583.752 9
  22044493.917    22044497.796     4236701.755 8   3462919.298 8
  22151632.825    22151635.008    -4544390.335 8  -2860955.794 7
  20562995.384    20562998.865    -3116963.674 7   2541625.311 8
 86  6 18 23 39 41.0800000  0  4G 6G 8G 9G11
  20483899.936    20483903.324    -1558441.726 9   -896880.101 8
  22047963.829    22047967.917     4254942.899 9   3477133.162 8
  22148371.074    22148374.538    -4561521.805 9  -2874304.992 8
  20562599.859    20562605.983    -3119032.769 8   2540013.029 7
 86  6 18 23 39 47.0800000  0  4G 6G 8G 9G11
  20483099.128    20483103.167    -1562656.048 9   -900163.991 8
  22051437.929    22051442.807     4273197.685 9   3491357.671 7
  22145112.871    22145115.775    -4578648.173 8  -2887650.207 9
  20562211.225    20562216.963    -3121078.676 8   2538418.809 8
 86  6 18 23 39 53.0800000  0  4G 6G 8G 9G11
  20482299.244    20482303.994    -1566854.384 9   -903435.411 8
  22054915.276    22054918.632     4291466.048 7   3505592.754 8
  22141853.795    22141857.760    -4595769.528 9  -2900991.518 8
  20561826.382    20561831.702    -3123101.493 9   2536842.586 7
 86  6 18 23 39 59.0800000  0  4G 6G 8G 9G11
  20481502.059    20481507.226    -1571036.732 7   -906694.394 8
  22058394.184    22058397.765     4309747.918 7   3519838.367 8
  22138597.744    22138601.520    -4612885.750 8  -2914328.833 8
  20561446.470    20561451.050    -3125101.286 8   2535284.315 7
 86  6 18 23 40  5.0800000  0  4G 6G 8G 9G11
  20480709.035    20480714.814    -1575203.078 8   -909940.903 8
  22061874.915    22061879.308     4328043.309 8   3534094.508 7
  22135342.050    22135344.948    -4629996.814 8  -2927662.131 8
  20561069.323    20561074.698    -3127077.991 8   2533744.037 9
 86  6 18 23 40 11.0800000  0  4G 6G 8G 9G11
  20479920.444    20479924.382    -1579353.392 9   -913174.907 8
  22065359.627    22065362.742     4346352.234 9   3548361.190 7
  22132086.615    22132089.642    -4647102.780 9  -2940991.445 8
  20560698.200    20560703.243    -3129031.562 8   2532221.774 8
 86  6 18 23 40 17.0800000  0  4G 6G 8G 9G11
  20479133.892    20479137.949    -1583487.625 8   -916396.391 8
  22068846.303    22068850.912     4364674.608 8   3562638.378 8
  22128831.943    22128835.159    -4664203.534 9  -2954316.707 8
  20560330.925    20560335.399    -3130962.098 7   2530717.468 7
 86  6 18 23 40 23.0800000  0  4G 6G 8G 9G11
  20478350.783    20478354.208    -1587605.783 8   -919605.347 8
  22072335.751    22072338.813     4383010.432 8   3576926.027 7
  22125577.254    22125582.244    -4681299.092 8  -2967637.923 8
  20559968.135    20559973.472    -3132869.508 8   2529231.177 8
 86  6 18 23 40 29.0800000  0  4G 6G 8G 9G11
  20477570.915    20477573.555    -1591707.860 8   -922801.771 8
  22075825.689    22075831.227     4401359.711 8   3591224.162 8
  22122325.754    22122330.967    -4698389.433 8  -2980955.075 9
  20559608.510    20559614.377    -3134753.824 7   2527762.866 8
 86  6 18 23 40 35.0800000  0  4G 6G 8G 9G11
  20476792.843    20476795.677    -1595793.743 9   -925985.578 8
  22079320.815    22079325.012     4419722.422 9   3605532.772 8
  22119073.933    22119080.296    -4715474.469 8  -2994268.071 9
  20559255.630    20559259.444    -3136615.037 8   2526312.575 8
 86  6 18 23 40 41.0800000  0  4G 6G 8G 9G11
  20476018.389    20476021.911    -1599863.417 8   -929156.752 8
  22082817.276    22082822.090     4438098.565 7   3619851.837 8
  22115824.338    22115829.500    -4732554.201 9  -3007576.949 8
  20558906.863    20558910.012    -3138453.133 8   2524880.296 8
 86  6 18 23 40 47.0800000  0  4G 6G 8G 9G11
  20475246.902    20475250.559    -1603916.903 8   -932315.306 7
  22086316.393    22086321.959     4456488.108 8   3634181.340 8
  22112575.968    22112579.344    -4749628.642 8  -3020881.695 8
  20558559.809    20558565.246    -3140268.098 8   2523466.046 8
 86  6 18 23 40 53.0800000  0  4G 6G 8G 9G11
  20474478.572    20474482.512    -1607954.153 8   -935461.218 8
  22089819.585    22089823.979     4474891.030 8   3648521.272 8
  22109328.019    22109331.987    -4766697.707 8  -3034182.272 8
  20558218.825    20558224.105    -3142059.970 8   2522069.778 8
 86  6 18 23 40 59.0800000  0  4G 6G 8G 9G11
  20473713.076    20473716.953    -1611975.215 8   -938594.514 8
  22093323.439    22093327.802     4493307.288 8   3662871.597 8
  22106080.347    22106085.031    -4783761.443 8  -3047478.688 9
  20557881.810    20557886.913    -3143828.764 8   2520691.505 8
 86  6 18 23 41  5.0800000  0  4G 6G 8G 9G11
  20472951.843    20472954.581    -1615980.050 9   -941715.168 9
  22096831.207    22096836.370     4511736.803 8   3677232.260 9
  22102833.973    22102837.589    -4800819.810 9  -3060770.915 8
  20557551.065    20557555.511    -3145574.497 8   2519331.186 8
 86  6 18 23 41 11.0800000  0  4G 6G 8G 9G11
  20472193.014    20472195.741    -1619968.657 8   -944823.171 8
  22100341.408    22100346.671     4530179.618 8   3691603.287 7
  22099589.240    22099593.249    -4817872.790 7  -3074058.940 8
  20557223.304    20557228.965    -3147297.157 8   2517988.848 8
 86  6 18 23 41 17.0800000  0  4G 6G 8G 9G11
  20471437.228    20471439.269    -1623940.937 8   -947918.448 8
  22103852.540    22103857.338     4548635.745 8   3705984.667 8
  22096345.309    22096349.709    -4834920.307 8  -3087342.711 8
  20556898.903    20556904.635    -3148996.688 8   2516664.554 8
 86  6 18 23 41 23.0800000  0  4G 6G 8G 9G11
  20470684.470    20470686.744    -1627896.891 9   -951001.012 8
  22107368.012    22107371.939     4567105.147 8   3720376.415 8
  22093103.015    22093105.987    -4851962.319 8  -3100622.189 8
  20556579.511    20556584.578    -3150673.062 8   2515358.281 8
 86  6 18 23 41 29.0800000  0  4G 6G 8G 9G11
  20469934.742    20469937.759    -1631836.436 8   -954070.788 8
  22110885.531    22110890.444     4585587.803 8   3734778.478 8
  22089860.849    22089864.761    -4868998.740 8  -3113897.320 8
  20556264.593    20556269.945    -3152326.265 8   2514070.072 8
 86  6 18 23 41 35.0800000  0  4G 6G 8G 9G11
  20469188.055    20469190.612    -1635759.652 8   -957127.839 8
  22114404.800    22114408.566     4604083.683 9   3749190.861 8
  22086619.643    22086622.956    -4886029.738 8  -3127168.226 8
  20555955.799    20555961.067    -3153956.353 7   2512799.877 8
 86  6 18 23 41 41.0800000  0  4G 6G 8G 9G11
  20468443.634    20468447.397    -1639666.441 8   -960172.085 8
  22117927.529    22117931.057     4622592.743 8   3763613.503 8
  22083380.108    22083384.522    -4903055.172 8  -3140434.792 8
  20555649.522    20555654.086    -3155563.279 7   2511547.714 7
 86  6 18 23 41 47.0800000  0  4G 6G 8G 9G11
  20467703.216    20467706.114    -1643556.831 9   -963203.558 8
  22121451.155    22121455.932     4641114.975 8   3778046.392 8
  22080139.851    22080144.406    -4920075.087 8  -3153697.054 8
  20555348.213    20555354.032    -3157147.136 7   2510313.554 8
 86  6 18 23 41 53.0800000  0  4G 6G 8G 9G11
  20466966.865    20466970.104    -1647430.857 9   -966222.274 8
  22124979.032    22124982.230     4659650.339 8   3792489.543 9
  22076902.193    22076906.671    -4937089.423 8  -3166954.983 8
  20555050.447    20555056.152    -3158707.908 8   2509097.377 8
 86  6 18 23 41 59.0800000  0  4G 6G 8G 9G11
  20466232.427    20466235.261    -1651288.535 9   -969228.256 9
  22128508.376    22128512.252     4678198.736 8   3806942.832 8
  22073665.746    22073671.191    -4954098.221 8  -3180208.582 8
  20554758.832    20554762.909    -3160245.601 8   2507899.160 9
 86  6 18 23 42  5.0800000  0  4G 6G 8G 9G11
  20465501.317    20465504.837    -1655129.821 8   -972221.461 8
  22132040.275    22132044.932     4696760.126 8   3821406.256 7
  22070431.574    22070434.417    -4971101.494 8  -3193457.883 8
  20554469.470    20554473.958    -3161760.273 7   2506718.903 7
 86  6 18 23 42 11.0800000  0  4G 6G 8G 9G11
  20464773.871    20464777.247    -1658954.659 9   -975201.853 9
  22135574.347    22135578.525     4715334.575 7   3835879.845 8
  22067196.749    22067199.556    -4988099.249 8  -3206702.880 8
  20554185.150    20554190.866    -3163251.895 8   2505556.603 7
 86  6 18 23 42 17.0800000  0  4G 6G 8G 9G11
  20464049.114    20464052.480    -1662763.103 9   -978169.467 7
  22139111.643    22139115.386     4733921.959 7   3850363.515 8
  22063962.760    22063966.800    -5005091.351 9  -3219943.470 8
  20553905.932    20553911.865    -3164720.545 8   2504412.199 8
 86  6 18 23 42 23.0800000  0  4G 6G 8G 9G11
  20463327.645    20463330.986    -1666555.127 9   -981124.298 8
  22142650.290    22142655.807     4752522.303 8   3864857.275 8
  22060731.106    22060734.749    -5022077.827 8  -3233179.684 8
  20553631.199    20553636.250    -3166166.221 8   2503285.696 9
 86  6 18 23 42 29.0800000  0  4G 6G 8G 9G11
  20462608.661    20462612.000    -1670330.663 9   -984066.280 7
  22146192.258    22146197.689     4771135.565 8   3879361.117 8
  22057498.428    22057503.515    -5039058.671 8  -3246411.509 8
  20553361.334    20553366.409    -3167588.894 7   2502177.124 8
 86  6 18 23 42 35.0800000  0  4G 6G 8G 9G11
  20461893.996    20461896.375    -1674089.810 9   -986995.479 9
  22149738.679    22149742.245     4789761.654 8   3893874.945 8
  22054268.751    22054272.866    -5056033.918 7  -3259638.953 9
  20553094.479    20553100.074    -3168988.560 7   2501086.474 7
 86  6 18 23 42 41.0800000  0  4G 6G 8G 9G11
  20461181.504    20461184.777    -1677832.422 8   -989911.799 8
  22153286.473    22153288.520     4808400.591 8   3908398.798 8
  22051038.915    22051043.636    -5073003.494 8  -3272861.985 8
  20552832.416    20552837.662    -3170365.191 7   2500013.780 8
 86  6 18 23 42 47.0800000  0  4G 6G 8G 9G11
  20460472.218    20460475.221    -1681558.493 8   -992815.229 9
  22156834.196    22156838.172     4827052.436 7   3922932.706 8
  22047812.081    22047815.145    -5089967.362 8  -3286080.581 9
  20552574.941    20552579.488    -3171718.770 7   2498959.039 8
 86  6 18 23 42 53.0800000  0  4G 6G 8G 9G11
  20459765.707    20459769.433    -1685268.121 9   -995705.846 8
  22160384.916    22160389.944     4845717.004 8   3937476.509 9
  22044583.641    22044588.708    -5106925.597 8  -3299294.789 7
  20552322.625    20552326.908    -3173049.435 8   2497922.150 8
 86  6 18 23 42 59.0800000  0  4G 6G 8G 9G11
  20459063.772    20459066.733    -1688961.194 8   -998583.571 9
  22163937.676    22163944.657     4864394.370 8   3952030.291 8
  22041357.885    22041361.756    -5123878.087 9  -3312504.530 8
  20552072.800    20552078.149    -3174357.119 7   2496903.191 9
 86  6 18 23 43  5.0800000  0  4G 6G 8G 9G11
  20458363.227    20458367.383    -1692637.704 8  -1001448.375 8
  22167496.327    22167500.199     4883084.519 8   3966594.033 8
  22038132.837    22038136.476    -5140824.842 8  -3325709.776 7
  20551827.362    20551833.356    -3175641.812 8   2495902.130 8
 86  6 18 23 43 11.0800000  0  4G 6G 8G 9G11
  20457666.729    20457670.914    -1696297.559 9  -1004300.216 8
  22171055.996    22171059.224     4901787.480 7   3981167.774 8
  22034910.298    22034914.561    -5157765.738 8  -3338910.467 9
  20551587.904    20551593.725    -3176903.487 7   2494919.000 8
 86  6 18 23 43 17.0800000  0  4G 6G 8G 9G11
  20456972.389    20456977.315    -1699940.788 8  -1007139.092 7
  22174618.557    22174620.841     4920503.169 7   3995751.424 9
  22031687.143    22031690.356    -5174700.797 8  -3352106.607 9
  20551351.762    20551357.595    -3178142.148 8   2493953.814 8
 86  6 18 23 43 23.0800000  0  4G 6G 8G 9G11
  20456284.518    20456288.270    -1703567.373 8  -1009965.001 8
  22178181.398    22178185.654     4939231.618 8   4010345.009 8
  22028466.262    22028468.859    -5191629.987 8  -3365298.165 8
  20551120.424    20551126.816    -3179357.751 8   2493006.597 8
 86  6 18 23 43 29.0800000  0  4G 6G 8G 9G11
  20455597.645    20455600.926    -1707177.299 8  -1012777.929 9
  22181748.560    22181752.189     4957972.746 8   4024948.483 8
  22025244.281    22025248.639    -5208553.317 8  -3378485.178 8
  20550893.509    20550899.214    -3180550.268 8   2492077.363 8
 86  6 18 23 43 35.0800000  0  4G 6G 8G 9G11
  20454912.442    20454916.313    -1710770.591 9  -1015577.902 9
  22185315.568    22185320.406     4976726.470 7   4039561.777 9
  22022026.567    22022031.011    -5225470.872 8  -3391667.689 9
  20550671.554    20550676.315    -3181719.842 8   2491166.010 8
 86  6 18 23 43 41.0800000  0  4G 6G 8G 9G11
  20454231.783    20454236.213    -1714347.256 9  -1018364.916 8
  22188886.890    22188891.871     4995492.800 8   4054184.869 8
  22018807.749    22018812.055    -5242382.555 7  -3404845.609 8
  20550454.987    20550459.586    -3182866.469 9   2490272.530 8
 86  6 18 23 43 47.0800000  0  4G 6G 8G 9G11
  20453554.913    20453558.719    -1717907.249 8  -1021138.932 9
  22192460.374    22192464.647     5014271.630 8   4068817.735 8
  22015591.961    22015594.581    -5259288.379 7  -3418018.984 8
  20550238.810    20550245.350    -3183990.172 8   2489396.931 8
 86  6 18 23 43 53.0800000  0  4G 6G 8G 9G11
  20452879.960    20452883.366    -1721450.633 9  -1023900.008 8
  22196037.137    22196040.860     5033062.992 8   4083460.340 8
  22012374.413    22012379.077    -5276188.453 8  -3431187.858 8
  20550029.687    20550035.318    -3185090.983 8   2488539.148 8
 86  6 18 23 43 59.0800000  0  4G 6G 8G 9G11
  20452209.718    20452214.082    -1724977.351 9  -1026648.120 8
  22199614.814    22199619.619     5051866.762 8   4098112.628 8
  22009160.317    22009163.252    -5293082.570 8  -3444352.098 8
  20549826.161    20549830.154    -3186168.925 8   2487699.192 7
 86  6 18 23 44  5.0800000  0  4G 6G 8G 9G11
  20451541.320    20451545.037    -1728487.423 8  -1029383.227 8
  22203196.240    22203200.176     5070682.977 7   4112774.611 8
  22005946.547    22005949.980    -5309970.778 7  -3457511.736 8
  20549623.819    20549630.540    -3187223.999 8   2486877.066 8
 86  6 18 23 44 11.0800000  0  4G 6G 8G 9G11
  20450876.850    20450880.932    -1731980.822 9  -1032105.365 8
  22206778.229    22206783.704     5089511.571 8   4127446.233 8
  22002734.425    22002736.462    -5326853.142 8  -3470666.814 8
  20549429.181    20549432.236    -3188256.242 8   2486072.720 8
 86  6 18 23 44 17.0800000  0  4G 6G 8G 9G11
  20450214.506    20450219.187    -1735457.522 8  -1034814.480 7
  22210364.010    22210368.732     5108352.614 8   4142127.551 8
  21999521.224    21999525.965    -5343729.539 7  -3483817.253 8
  20549236.712    20549241.349    -3189265.608 9   2485286.198 7
 86  6 18 23 44 23.0800000  0  4G 6G 8G 9G11
  20449557.526    20449559.394    -1738917.422 9  -1037510.520 8
  22213952.069    22213955.761     5127206.042 8   4156818.550 8
  21996311.195    21996315.326    -5360599.899 8  -3496962.986 8
  20549048.127    20549053.316    -3190252.087 8   2484517.518 9
 86  6 18 23 44 29.0800000  0  4G 6G 8G 9G11
  20448902.051    20448904.838    -1742360.460 9  -1040193.411 7
  22217541.419    22217545.597     5146071.911 8   4171519.229 8
  21993104.341    21993105.660    -5377464.222 8  -3510104.004 8
  20548865.392    20548869.852    -3191215.620 8   2483766.731 7
 86  6 18 23 44 35.0800000  0  4G 6G 8G 9G11
  20448249.841    20448253.198    -1745786.684 9  -1042863.195 8
  22221133.486    22221139.040     5164950.215 9   4186229.582 9
  21989895.216    21989897.516    -5394322.447 9  -3523240.278 8
  20548685.810    20548690.187    -3192156.160 8   2483033.836 8
 86  6 18 23 44 41.0800000  0  4G 6G 8G 9G11
  20447601.145    20447604.626    -1749195.995 8  -1045519.796 8
  22224728.331    22224733.329     5183840.892 8   4200949.580 8
  21986689.061    21986691.707    -5411174.524 8  -3536371.776 7
  20548511.145    20548515.518    -3193073.722 7   2482318.846 8
 86  6 18 23 44 47.0800000  0  4G 6G 8G 9G11
  20446956.283    20446959.163    -1752588.408 9  -1048163.245 9
  22228325.713    22228329.688     5202743.933 7   4215679.228 8
  21983481.836    21983485.624    -5428020.410 8  -3549498.433 9
  20548341.539    20548346.555    -3193968.327 8   2481621.762 8
 86  6 18 23 44 53.0800000  0  4G 6G 8G 9G11
  20446312.680    20446316.741    -1755963.900 9  -1050793.492 8
  22231925.375    22231929.824     5221659.347 8   4230418.498 9
  21980278.260    21980281.556    -5444860.184 8  -3562620.331 9
  20548176.051    20548180.158    -3194839.991 8   2480942.538 7
 86  6 18 23 44 59.0800000  0  4G 6G 8G 9G11
  20445672.696    20445678.005    -1759322.443 9  -1053410.546 8
  22235527.017    22235531.194     5240587.128 8   4245167.412 9
  21977073.985    21977078.237    -5461693.813 9  -3575737.439 8
  20548013.855    20548018.521    -3195688.703 8   2480281.202 8
 86  6 18 23 45  5.0800000  0  4G 6G 8G 9G11
  20445038.193    20445040.764    -1762664.070 8  -1056014.410 8
  22239131.895    22239136.342     5259527.169 8   4259925.883 8
  21973872.069    21973875.342    -5478521.176 8  -3588849.659 8
  20547857.591    20547860.662    -3196514.475 8   2479637.745 8
 86  6 18 23 45 11.0800000  0  4G 6G 8G 9G11
  20444404.971    20444409.209    -1765988.681 9  -1058605.008 8
  22242737.769    22242742.100     5278479.481 8   4274693.907 8
  21970670.599    21970676.379    -5495342.263 8  -3601956.994 7
  20547704.535    20547706.523    -3197317.259 8   2479012.199 8
 86  6 18 23 45 17.0800000  0  4G 6G 8G 9G11
  20443776.414    20443780.206    -1769296.354 8  -1061182.419 8
  22246346.990    22246350.881     5297444.044 8   4289471.476 8
  21967471.939    21967476.047    -5512157.152 8  -3615059.509 8
  20547556.552    20547559.225    -3198097.162 8   2478404.481 8
 86  6 18 23 45 23.0800000  0  4G 6G 8G 9G11
  20443149.547    20443153.987    -1772587.081 9  -1063746.618 9
  22249957.006    22249961.754     5316420.775 8   4304258.539 8
  21964273.285    21964276.879    -5528965.822 8  -3628157.160 8
  20547411.376    20547415.502    -3198854.180 7   2477814.606 7
 86  6 18 23 45 29.0800000  0  4G 6G 8G 9G11
  20442526.186    20442530.480    -1775860.752 8  -1066297.532 8
  22253572.185    22253576.210     5335409.680 8   4319055.088 9
  21961075.599    21961079.776    -5545768.259 9  -3641249.979 8
  20547272.247    20547276.549    -3199588.278 8   2477242.583 7
 86  6 18 23 45 35.0800000  0  4G 6G 8G 9G11
  20441906.492    20441911.342    -1779117.399 8  -1068835.175 9
  22257187.653    22257192.085     5354410.783 8   4333861.126 8
  21957879.663    21957882.679    -5562564.260 9  -3654337.765 8
  20547136.902    20547141.433    -3200299.451 8   2476688.420 8
 86  6 18 23 45 41.0800000  0  4G 6G 8G 9G11
  20441290.980    20441294.314    -1782357.016 9  -1071359.553 7
  22260805.990    22260809.375     5373423.970 8   4348676.597 8
  21954684.896    21954687.848    -5579353.937 8  -3667420.624 9
  20547005.261    20547010.227    -3200987.732 8   2476152.096 8
 86  6 18 23 45 47.0800000  0  4G 6G 8G 9G11
  20440678.203    20440681.132    -1785579.724 8  -1073870.755 8
  22264424.533    22264430.909     5392449.131 9   4363501.394 8
  21951490.331    21951493.899    -5596137.433 8  -3680498.666 8
  20546877.829    20546883.219    -3201653.212 7   2475633.540 8
 86  6 18 23 45 53.0800000  0  4G 6G 8G 9G11
  20440067.753    20440071.589    -1788785.451 8  -1076368.721 8
  22268047.802    22268053.600     5411486.245 8   4378335.489 8
  21948298.028    21948301.072    -5612914.759 9  -3693571.902 8
  20546757.017    20546761.334    -3202295.950 7   2475132.704 7
 86  6 18 23 45 59.0800000  0  4G 6G 8G 9G11
  20439461.084    20439464.033    -1791974.243 8  -1078853.486 9
  22271673.018    22271678.168     5430535.242 8   4393178.856 8
  21945106.117    21945109.469    -5629685.858 8  -3706640.295 8
  20546638.927    20546642.918    -3202915.913 8   2474649.616 9
 86  6 18 23 46  5.0800000  0  4G 6G 8G 9G11
  20438857.395    20438860.551    -1795146.067 8  -1081325.044 8
  22275300.518    22275305.291     5449596.117 8   4408031.487 8
  21941915.971    21941919.584    -5646450.753 8  -3719703.834 8
  20546525.878    20546530.629    -3203513.174 8   2474184.216 8
 86  6 18 23 46 11.0800000  0  4G 6G 8G 9G11
  20438257.669    20438260.747    -1798300.890 8  -1083783.350 8
  22278930.433    22278935.821     5468668.895 8   4422893.377 8
  21938728.970    21938730.683    -5663209.211 9  -3732762.370 9
  20546415.408    20546419.715    -3204087.680 8   2473736.554 7
 86  6 18 23 46 17.0800000  0  4G 6G 8G 9G11
  20437660.244    20437663.008    -1801438.670 8  -1086228.368 8
  22282562.796    22282565.891     5487753.555 8   4437764.533 9
  21935540.553    21935541.714    -5679961.253 9  -3745815.912 8
  20546310.330    20546315.657    -3204639.445 7   2473306.607 8
 86  6 18 23 46 23.0800000  0  4G 6G 8G 9G11
  20437066.457    20437069.412    -1804559.346 7  -1088660.059 8
  22286195.400    22286199.052     5506850.079 8   4452644.946 8
  21932353.393    21932356.671    -5696707.053 8  -3758864.577 8
  20546209.490    20546214.873    -3205168.433 8   2472894.424 8
 86  6 18 23 46 29.0800000  0  4G 6G 8G 9G11
  20436476.269    20436478.629    -1807662.959 8  -1091078.472 7
  22289831.682    22289836.822     5525958.416 9   4467534.552 8
  21929167.480    21929170.048    -5713446.473 9  -3771908.292 8
  20546112.996    20546117.807    -3205674.661 9   2472499.951 8
 86  6 18 23 46 35.0800000  0  4G 6G 8G 9G11
  20435888.149    20435891.572    -1810749.382 9  -1093483.475 7
  22293471.425    22293474.449     5545078.602 8   4482433.389 8
  21925982.497    21925986.402    -5730179.461 9  -3784946.979 7
  20546022.447    20546027.050    -3206158.083 9   2472123.264 8
 86  6 18 23 46 41.0800000  0  4G 6G 8G 9G11
  20435303.446    20435306.933    -1813818.781 8  -1095875.218 8
  22297110.284    22297115.550     5564210.548 8   4497341.383 7
  21922800.080    21922803.826    -5746905.959 8  -3797980.613 8
  20545933.687    20545938.381    -3206618.780 8   2471764.283 8
 86  6 18 23 46 47.0800000  0  4G 6G 8G 9G11
  20434722.644    20434726.924    -1816870.975 8  -1098253.546 8
  22300754.820    22300758.396     5583354.289 7   4512258.591 8
  21919618.535    21919620.563    -5763625.938 8  -3811009.150 7
  20545851.638    20545855.805    -3207056.642 7   2471423.090 7
 86  6 18 23 46 53.0800000  0  4G 6G 8G 9G11
  20434144.995    20434148.921    -1819905.864 8  -1100618.384 8
  22304399.290    22304402.830     5602509.910 8   4527185.046 8
  21916438.366    21916441.679    -5780339.294 8  -3824032.553 9
  20545771.168    20545776.019    -3207471.632 8   2471099.718 8
 86  6 18 23 46 59.0800000  0  4G 6G 8G 9G11
  20433572.170    20433573.771    -1822923.457 8  -1102969.770 8
  22308046.777    22308050.270     5621677.325 8   4542120.684 8
  21913258.978    21913261.735    -5797046.136 8  -3837050.872 8
  20545698.300    20545701.372    -3207863.805 8   2470794.140 8
 86  6 18 23 47  5.0800000  0  4G 6G 8G 9G11
  20433001.699    20433003.965    -1825923.819 8  -1105307.715 8
  22311695.418    22311700.944     5640856.479 8   4557065.487 9
  21910081.235    21910083.784    -5813746.386 9  -3850064.058 9
  20545626.973    20545630.465    -3208233.170 8   2470506.316 8
 86  6 18 23 47 11.0800000  0  4G 6G 8G 9G11
  20432432.357    20432436.694    -1828906.901 8  -1107632.191 8
  22315348.117    22315352.387     5660047.333 7   4572019.388 7
  21906904.591    21906907.143    -5830439.940 8  -3863072.014 8
  20545560.979    20545565.005    -3208579.736 8   2470236.279 8
 86  6 18 23 47 17.0800000  0  4G 6G 8G 9G11
  20431868.865    20431871.019    -1831872.692 8  -1109943.190 7
  22319002.872    22319006.212     5679249.923 8   4586982.434 8
  21903728.715    21903732.832    -5847126.816 8  -3876074.771 8
  20545498.995    20545503.008    -3208903.532 7   2469983.964 7
 86  6 18 23 47 23.0800000  0  4G 6G 8G 9G11
  20431306.464    20431309.678    -1834821.214 8  -1112240.743 7
  22322659.417    22322663.275     5698464.165 8   4601954.568 8
  21900554.739    21900558.927    -5863807.080 9  -3889072.371 8
  20545441.860    20545447.525    -3209204.557 8   2469749.415 8
 86  6 18 23 47 29.0800000  0  4G 6G 8G 9G11
  20430749.351    20430752.911    -1837752.391 8  -1114524.772 9
  22326316.582    22326321.815     5717690.014 9   4616935.736 8
  21897381.918    21897385.114    -5880480.690 9  -3902064.788 8
  20545389.272    20545393.685    -3209482.872 9   2469532.542 8
 86  6 18 23 47 35.0800000  0  4G 6G 8G 9G11
  20430195.254    20430198.655    -1840666.326 9  -1116795.373 8
  22329977.762    22329981.802     5736927.374 8   4631925.891 9
  21894210.143    21894214.283    -5897147.684 8  -3915052.054 7
  20545341.278    20545344.355    -3209738.464 7   2469333.375 7
 86  6 18 23 47 41.0800000  0  4G 6G 8G 9G11
  20429643.695    20429647.332    -1843562.918 9  -1119052.467 8
  22333640.441    22333645.690     5756176.314 8   4646925.049 8
  21891041.155    21891042.439    -5913808.005 9  -3928034.107 8
  20545295.671    20545301.303    -3209971.335 7   2469151.922 8
 86  6 18 23 47 47.0800000  0  4G 6G 8G 9G11
  20429094.909    20429098.934    -1846442.217 8  -1121296.074 9
  22337305.077    22337310.041     5775436.709 7   4661933.158 8
  21887872.281    21887872.999    -5930461.681 9  -3941011.002 8
  20545255.052    20545259.655    -3210181.516 8   2468988.142 7
 86  6 18 23 47 53.0800000  0  4G 6G 8G 9G11
  20428550.748    20428554.522    -1849304.245 8  -1123526.231 8
  22340972.795    22340977.582     5794708.600 7   4676950.198 8
  21884703.997    21884706.076    -5947108.648 9  -3953982.674 8
  20545220.599    20545225.055    -3210369.028 8   2468842.034 7
 86  6 18 23 47 59.0800000  0  4G 6G 8G 9G11
  20428009.905    20428012.157    -1852148.895 9  -1125742.833 7
  22344642.009    22344646.168     5813992.012 9   4691976.235 8
  21881536.995    21881539.550    -5963748.877 9  -3966949.076 8
  20545187.932    20545192.867    -3210533.801 8   2468713.635 7
 86  6 18 23 48  5.0800000  0  4G 6G 8G 9G11
  20427471.875    20427475.370    -1854976.039 8  -1127945.809 8
  22348314.356    22348319.667     5833286.910 9   4707011.207 9
  21878371.779    21878373.458    -5980382.302 8  -3979910.187 8
  20545161.797    20545166.101    -3210675.814 8   2468602.982 8
 86  6 18 23 48 11.0800000  0  4G 6G 8G 9G11
  20426936.127    20426940.678    -1857785.841 8  -1130135.269 8
  22351988.832    22351993.107     5852593.252 8   4722055.122 9
  21875206.872    21875210.720    -5997008.926 8  -3992865.994 8
  20545138.344    20545143.272    -3210795.162 8   2468509.991 7
 86  6 18 23 48 17.0800000  0  4G 6G 8G 9G11
  20426404.083    20426408.720    -1860578.146 8  -1132311.087 8
  22355664.575    22355668.444     5871911.047 7   4737107.935 8
  21872044.901    21872048.377    -6013628.687 8  -4005816.458 8
  20545120.024    20545125.052    -3210891.748 8   2468434.727 7
 86  6 18 23 48 23.0800000  0  4G 6G 8G 9G11
  20425876.377    20425880.451    -1863352.988 8  -1134473.316 7
  22359342.313    22359347.167     5891240.252 8   4752169.646 9
  21868884.003    21868886.389    -6030241.593 8  -4018761.574 8
  20545106.658    20545111.829    -3210965.584 8   2468377.180 6
 86  6 18 23 48 29.0800000  0  4G 6G 8G 9G11
  20425352.362    20425356.465    -1866110.313 8  -1136621.877 8
  22363022.492    22363027.374     5910580.861 8   4767240.249 8
  21865723.738    21865726.828    -6046847.585 9  -4031701.324 7
  20545096.571    20545102.471    -3211016.656 8   2468337.401 8
 86  6 18 23 48 35.0800000  0  4G 6G 8G 9G11
  20424831.384    20424835.104    -1868850.172 8  -1138756.824 7
  22366706.117    22366710.508     5929932.778 8   4782319.653 9
  21862564.168    21862569.000    -6063446.802 9  -4044635.767 7
  20545092.020    20545095.583    -3211045.094 8   2468315.244 8
 86  6 18 23 48 41.0800000  0  4G 6G 8G 9G11
  20424313.154    20424316.878    -1871572.676 9  -1140878.263 9
  22370389.996    22370395.405     5949295.891 8   4797407.791 8
  21859407.271    21859410.544    -6080039.200 8  -4057564.911 8
  20545089.751    20545095.210    -3211050.978 9   2468310.647 7
 86  6 18 23 48 47.0800000  0  4G 6G 8G 9G11
  20423798.567    20423801.496    -1874277.727 8  -1142986.097 8
  22374075.955    22374080.994     5968670.225 7   4812504.683 8
  21856250.741    21856255.791    -6096624.729 8  -4070488.693 7
  20545093.583    20545097.595    -3211034.229 9   2468323.698 8
 86  6 18 23 48 53.0800000  0  4G 6G 8G 9G11
  20423287.034    20423290.143    -1876965.309 8  -1145080.324 9
  22377765.348    22377769.478     5988055.741 7   4827610.266 8
  21853096.242    21853100.121    -6113203.352 9  -4083407.087 6
  20545100.682    20545105.723    -3210994.872 8   2468354.378 7
 86  6 18 23 48 59.0800000  0  4G 6G 8G 9G11
  20422777.947    20422781.854    -1879635.381 7  -1147160.895 8
  22381457.289    22381460.556     6007452.446 8   4842724.579 9
  21849943.492    21849945.895    -6129774.995 9  -4096320.060 9
  20545113.075    20545117.742    -3210932.866 8   2468402.678 8
 86  6 18 23 49  5.0800000  0  4G 6G 8G 9G11
  20422274.655    20422277.665    -1882287.867 9  -1149227.770 8
  22385149.445    22385154.560     6026860.407 9   4857847.668 8
  21846791.437    21846793.059    -6146339.614 8  -4109227.556 8
  20545128.694    20545134.121    -3210848.206 8   2468468.661 8
 86  6 18 23 49 11.0800000  0  4G 6G 8G 9G11
  20421772.652    20421776.136    -1884922.746 7  -1151280.918 8
  22388845.274    22388850.366     6046279.587 8   4872979.479 8
  21843640.713    21843642.971    -6162897.185 9  -4122129.562 8
  20545150.547    20545154.763    -3210740.867 8   2468552.297 8
 86  6 18 23 49 17.0800000  0  4G 6G 8G 9G11
  20421274.512    20421277.524    -1887539.958 8  -1153320.317 8
  22392541.787    22392547.490     6065709.930 8   4888120.004 8
  21840490.605    21840493.494    -6179447.732 8  -4135026.085 8
  20545173.950    20545178.891    -3210610.881 7   2468653.586 8
 86  6 18 23 49 23.0800000  0  4G 6G 8G 9G11
  20420779.994    20420782.475    -1890139.645 8  -1155346.040 7
  22396241.998    22396247.107     6085151.343 8   4903269.152 8
  21837342.877    21837345.214    -6195991.353 9  -4147917.224 8
  20545202.716    20545208.500    -3210458.363 7   2468772.425 8
 86  6 18 23 49 29.0800000  0  4G 6G 8G 9G11
  20420288.588    20420291.402    -1892721.763 8  -1157358.091 9
  22399944.206    22399948.147     6104603.846 8   4918426.938 9
  21834196.626    21834199.917    -6212527.870 9  -4160802.809 8
  20545235.736    20545242.461    -3210283.268 7   2468908.854 7
 86  6 18 23 49 35.0800000  0  4G 6G 8G 9G11
  20419801.127    20419803.171    -1895286.306 9  -1159356.415 8
  22403648.127    22403652.225     6124067.377 8   4933593.314 8
  21831050.052    21831053.474    -6229057.336 8  -4173682.912 8
  20545272.908    20545279.634    -3210085.605 8   2469062.902 7
 86  6 18 23 49 41.0800000  0  4G 6G 8G 9G11
  20419315.751    20419319.408    -1897833.209 9  -1161341.015 8
  22407353.349    22407357.702     6143541.893 7   4948768.268 8
  21827905.238    21827908.840    -6245579.829 8  -4186557.580 8
  20545315.936    20545321.485    -3209865.366 7   2469234.505 8
 86  6 18 23 49 47.0800000  0  4G 6G 8G 9G11
  20418835.854    20418838.476    -1900362.510 8  -1163311.910 8
  22411061.136    22411066.819     6163027.356 8   4963951.742 8
  21824764.113    21824766.141    -6262095.152 9  -4199426.662 8
  20545362.704    20545367.129    -3209622.619 8   2469423.656 8
 86  6 18 23 49 53.0800000  0  4G 6G 8G 9G11
  20418357.494    20418359.060    -1902874.163 9  -1165269.034 8
  22414771.047    22414775.648     6182523.781 8   4979143.756 8
  21821621.528    21821624.850    -6278603.340 9  -4212290.181 8
  20545412.218    20545416.906    -3209357.300 8   2469630.395 7
 86  6 18 23 49 59.0800000  0  4G 6G 8G 9G11
  20417882.605    20417885.545    -1905368.199 8  -1167212.438 8
  22418482.900    22418489.594     6202031.132 7   4994344.274 8
  21818481.213    21818485.791    -6295104.470 9  -4225148.206 8
  20545467.571    20545471.578    -3209069.444 8   2469854.704 8
 86  6 18 23 50  5.0800000  0  4G 6G 8G 9G11
  20417411.174    20417413.974    -1907844.494 9  -1169142.033 7
  22422197.448    22422202.409     6221549.443 8   5009553.351 9
  21815341.390    21815345.364    -6311598.388 9  -4238000.603 7
  20545526.034    20545530.387    -3208759.079 7   2470096.542 8
 86  6 18 23 50 11.0800000  0  4G 6G 8G 9G11
  20416943.304    20416946.464    -1910303.017 9  -1171057.757 8
  22425914.210    22425919.019     6241078.671 8   5024770.921 8
  21812205.739    21812208.377    -6328085.056 8  -4250847.359 7
  20545588.592    20545594.054    -3208426.107 7   2470356.012 8
 86  6 18 23 50 17.0800000  0  4G 6G 8G 9G11
  20416478.848    20416481.683    -1912743.823 8  -1172959.677 8
  22429633.404    22429636.228     6260618.721 8   5039996.935 8
  21809069.427    21809073.404    -6344564.595 8  -4263688.555 8
  20545656.862    20545661.966    -3208070.566 8   2470633.037 8
 86  6 18 23 50 23.0800000  0  4G 6G 8G 9G11
  20416017.737    20416020.469    -1915166.897 8  -1174847.802 8
  22433352.774    22433357.097     6280169.648 8   5055231.420 8
  21805936.441    21805939.176    -6361036.841 9  -4276524.059 7
  20545729.905    20545734.552    -3207692.465 7   2470927.668 8
 86  6 18 23 50 29.0800000  0  4G 6G 8G 9G11
  20415560.174    20415563.944    -1917572.179 8  -1176722.035 8
  22437076.241    22437080.351     6299731.443 9   5070474.373 8
  21802803.146    21802805.211    -6377501.774 9  -4289353.886 8
  20545805.029    20545810.425    -3207291.849 8   2471239.836 8
 86  6 18 23 50 35.0800000  0  4G 6G 8G 9G11
  20415106.997    20415109.035    -1919959.667 9  -1178582.416 8
  22440799.679    22440805.176     6319304.057 7   5085725.755 8
  21799670.867    21799673.204    -6393959.492 8  -4302178.077 7
  20545886.555    20545890.980    -3206868.805 9   2471569.489 7
 86  6 18 23 50 41.0800000  0  4G 6G 8G 9G11
  20414654.463    20414657.992    -1922329.327 9  -1180428.906 8
  22444526.564    22444531.687     6338887.468 8   5100985.539 8
  21796540.262    21796543.417    -6410409.791 8  -4314996.493 7
  20545971.196    20545976.146    -3206423.229 8   2471916.691 8
 86  6 18 23 50 47.0800000  0  4G 6G 8G 9G11
  20414208.279    20414210.567    -1924681.178 8  -1182261.526 8
  22448255.483    22448260.724     6358481.584 7   5116253.691 8
  21793410.827    21793414.186    -6426852.695 8  -4327809.143 8
  20546060.026    20546064.462    -3205955.146 7   2472281.439 8
 86  6 18 23 50 53.0800000  0  4G 6G 8G 9G11
  20413763.409    20413766.947    -1927015.285 9  -1184080.302 8
  22451987.324    22451990.557     6378086.393 8   5131530.148 8
  21790282.952    21790287.112    -6443288.451 9  -4340616.206 8
  20546152.894    20546157.778    -3205464.642 9   2472663.643 7
 86  6 18 23 50 59.0800000  0  4G 6G 8G 9G11
  20413322.363    20413325.274    -1929331.626 8  -1185885.246 7
  22455719.953    22455722.449     6397701.758 9   5146814.846 8
  21787157.163    21787160.376    -6459716.854 8  -4353417.553 8
  20546251.915    20546255.069    -3204951.703 8   2473063.335 7
 86  6 18 23 51  5.0800000  0  4G 6G 8G 9G11
  20412885.966    20412887.758    -1931630.230 8  -1187676.363 7
  22459454.974    22459458.472     6417327.750 7   5162107.828 9
  21784031.117    21784035.466    -6476138.061 8  -4366213.300 9
  20546353.183    20546357.658    -3204416.338 8   2473480.503 8
 86  6 18 23 51 11.0800000  0  4G 6G 8G 9G11
  20412450.346    20412454.603    -1933910.998 9  -1189453.588 8
  22463190.600    22463194.201     6436964.327 7   5177409.043 8
  21780909.865    21780911.375    -6492551.791 8  -4379003.216 8
  20546459.557    20546463.765    -3203858.552 8   2473915.133 8
 86  6 18 23 51 17.0800000  0  4G 6G 8G 9G11
  20412020.293    20412023.092    -1936173.883 9  -1191216.879 8
  22466928.789    22466931.796     6456611.492 7   5192718.525 7
  21777786.683    21777789.269    -6508958.137 9  -4391787.371 8
  20546569.477    20546573.095    -3203278.310 9   2474367.282 9
 86  6 18 23 51 23.0800000  0  4G 6G 8G 9G11
  20411593.748    20411595.910    -1938418.778 8  -1192966.156 7
  22470669.513    22470673.975     6476269.342 8   5208036.323 7
  21774665.293    21774669.602    -6525357.032 8  -4404565.731 8
  20546683.695    20546688.905    -3202675.610 8   2474836.907 9
 86  6 18 23 51 29.0800000  0  4G 6G 8G 9G11
  20411169.624    20411172.352    -1940645.686 8  -1194701.394 7
  22474412.833    22474416.203     6495937.811 8   5223362.399 7
  21771546.662    21771549.683    -6541748.369 8  -4417338.179 9
  20546805.482    20546807.918    -3202050.387 8   2475324.102 8
 86  6 18 23 51 35.0800000  0  4G 6G 8G 9G11
  20410749.416    20410751.396    -1942854.651 9  -1196422.678 7
  22478157.411    22478161.210     6515616.840 7   5238696.690 7
  21768430.103    21768432.340    -6558132.106 8  -4430104.725 8
  20546926.241    20546931.856    -3201402.678 7   2475828.814 8
 86  6 18 23 51 41.0800000  0  4G 6G 8G 9G11
  20410331.579    20410333.897    -1945045.663 8  -1198129.964 8
  22481904.099    22481909.522     6535306.415 8   5254039.218 7
  21765313.251    21765316.072    -6574508.337 8  -4442865.414 7
  20547054.361    20547058.787    -3200732.558 7   2476350.995 8
 86  6 18 23 51 47.0800000  0  4G 6G 8G 9G11
  20409918.248    20409921.884    -1947218.696 8  -1199823.236 8
  22485653.680    22485656.988     6555006.444 8   5269389.885 7
  21762197.777    21762200.732    -6590877.028 8  -4455620.243 8
  20547186.268    20547190.603    -3200039.996 7   2476890.639 8
 86  6 18 23 51 53.0800000  0  4G 6G 8G 9G11
  20409507.873    20409511.895    -1949373.695 8  -1201502.451 8
  22489404.180    22489407.579     6574717.008 8   5284748.760 7
  21759084.320    21759087.207    -6607238.097 9  -4468369.128 7
  20547321.510    20547326.932    -3199324.986 8   2477447.783 7
 86  6 18 23 51 59.0800000  0  4G 6G 8G 9G11
  20409101.791    20409104.691    -1951510.617 8  -1203167.584 7
  22493157.201    22493161.102     6594438.080 8   5300115.816 8
  21755973.444    21755975.140    -6623591.572 7  -4481112.101 8
  20547461.585    20547466.742    -3198587.485 8   2478022.469 8
 86  6 18 23 52  5.0800000  0  4G 6G 8G 9G11
  20408698.353    20408702.338    -1953629.502 8  -1204818.666 9
  22496911.339    22496915.863     6614169.629 8   5315491.053 8
  21752861.115    21752865.100    -6639937.302 8  -4493849.030 8
  20547607.009    20547612.037    -3197827.471 9   2478614.688 9
 86  6 18 23 52 11.0800000  0  4G 6G 8G 9G11
  20408299.373    20408301.270    -1955730.273 8  -1206455.631 8
  22500668.741    22500672.592     6633911.581 8   5330874.390 8
  21749754.228    21749756.216    -6656275.395 8  -4506580.003 9
  20547756.407    20547761.175    -3197045.024 8   2479224.394 8
 86  6 18 23 52 17.0800000  0  4G 6G 8G 9G11
  20407901.773    20407905.591    -1957812.960 8  -1208078.513 8
  22504425.945    22504431.073     6653664.014 7   5346265.866 8
  21746644.869    21746649.405    -6672605.848 8  -4519305.030 7
  20547909.357    20547913.807    -3196240.171 8   2479851.557 9
 86  6 18 23 52 23.0800000  0  4G 6G 8G 9G11
  20407509.132    20407513.762    -1959877.589 9  -1209687.317 9
  22508187.004    22508191.240     6673426.727 8   5361665.398 9
  21743539.016    21743542.444    -6688928.558 7  -4532024.014 8
  20548066.253    20548072.067    -3195412.929 9   2480496.152 8
 86  6 18 23 52 29.0800000  0  4G 6G 8G 9G11
  20407119.584    20407123.812    -1961924.206 8  -1211282.080 8
  22511950.017    22511955.214     6693199.730 8   5377072.919 8
  21740434.532    21740438.666    -6705243.689 8  -4544737.103 9
  20548228.533    20548233.857    -3194563.402 8   2481158.114 7
 86  6 18 23 52 35.0800000  0  4G 6G 8G 9G11
  20406734.315    20406738.137    -1963952.794 8  -1212862.808 7
  22515714.375    22515718.612     6712982.980 7   5392488.427 8
  21737330.848    21737335.397    -6721551.099 8  -4557444.158 8
  20548393.236    20548398.384    -3193691.560 9   2481837.469 8
 86  6 18 23 52 41.0800000  0  4G 6G 8G 9G11
  20406352.023    20406354.321    -1965963.316 8  -1214429.452 8
  22519482.430    22519485.418     6732776.409 7   5407911.879 7
  21734230.043    21734232.065    -6737850.870 8  -4570145.275 8
  20548565.011    20548569.406    -3192797.433 8   2482534.204 8
 86  6 18 23 52 47.0800000  0  4G 6G 8G 9G11
  20405971.974    20405975.433    -1967955.817 8  -1215982.047 8
  22523249.805    22523254.298     6752579.997 7   5423343.241 7
  21731129.453    21731132.877    -6754143.032 8  -4582840.471 8
  20548738.386    20548743.359    -3191881.076 8   2483248.253 8
 86  6 18 23 52 53.0800000  0  4G 6G 8G 9G11
  20405596.415    20405599.832    -1969930.215 8  -1217520.537 8
  22527022.187    22527024.508     6772393.625 7   5438782.427 7
  21728029.667    21728033.129    -6770427.510 8  -4595529.664 8
  20548917.177    20548921.917    -3190942.510 8   2483979.601 8
 86  6 18 23 52 59.0800000  0  4G 6G 8G 9G11
  20405224.360    20405227.784    -1971886.625 8  -1219045.011 8
  22530793.194    22530796.927     6792217.340 7   5454229.467 7
  21724933.507    21724936.608    -6786704.314 8  -4608212.881 8
  20549099.942    20549105.188    -3189981.706 8   2484728.282 8
 86  6 18 23 53  5.0800000  0  4G 6G 8G 9G11
  20404854.218    20404859.307    -1973824.927 8  -1220555.376 7
  22534566.526    22534570.260     6812051.133 8   5469684.364 8
  21721837.538    21721840.316    -6802973.318 8  -4620890.025 8
  20549286.244    20549291.665    -3188998.628 8   2485494.314 8
 86  6 18 23 53 11.0800000  0  4G 6G 8G 9G11
  20404488.982    20404493.322    -1975745.055 8  -1222051.582 8
  22538342.827    22538347.344     6831895.043 6   5485147.159 8
  21718742.975    21718745.753    -6819234.505 9  -4633561.081 8
  20549478.702    20549483.303    -3187993.269 9   2486277.710 8
 86  6 18 23 53 17.0800000  0  4G 6G 8G 9G11
  20404128.595    20404132.202    -1977646.962 8  -1223533.586 9
  22542122.123    22542124.914     6851749.144 7   5500617.878 8
  21715650.006    21715652.014    -6835487.712 8  -4646225.906 8
  20549673.167    20549678.357    -3186965.509 9   2487078.575 8
 86  6 18 23 53 23.0800000  0  4G 6G 8G 9G11
  20403770.624    20403773.591    -1979530.576 9  -1225001.345 7
  22545901.380    22545904.826     6871613.343 7   5516096.466 8
  21712559.510    21712562.734    -6851733.041 8  -4658884.611 8
  20549874.240    20549878.428    -3185915.380 8   2487896.857 8
 86  6 18 23 53 29.0800000  0  4G 6G 8G 9G11
  20403415.388    20403418.089    -1981395.880 8  -1226454.833 8
  22549683.294    22549687.155     6891487.686 8   5531582.953 9
  21709468.054    21709471.468    -6867970.427 9  -4671537.103 8
  20550077.393    20550082.516    -3184842.912 8   2488732.549 8
 86  6 18 23 53 35.0800000  0  4G 6G 8G 9G11
  20403062.646    20403065.808    -1983242.898 8  -1227894.070 9
  22553466.540    22553471.127     6911372.060 7   5547077.265 8
  21706380.002    21706383.658    -6884199.829 8  -4684183.391 8
  20550287.018    20550291.352    -3183748.213 8   2489585.552 8
 86  6 18 23 53 41.0800000  0  4G 6G 8G 9G11
  20402715.097    20402718.008    -1985071.698 9  -1229319.098 8
  22557253.307    22557256.022     6931266.439 8   5562579.367 8
  21703292.221    21703295.277    -6900421.298 8  -4696823.489 7
  20550498.249    20550503.854    -3182631.225 8   2490455.940 8
 86  6 18 23 53 47.0800000  0  4G 6G 8G 9G11
  20402370.825    20402374.510    -1986882.333 8  -1230729.991 8
  22561039.888    22561045.611     6951170.708 7   5578089.183 8
  21700206.999    21700210.804    -6916634.870 8  -4709457.423 8
  20550714.834    20550720.228    -3181492.003 8   2491343.639 8
 86  6 18 23 53 53.0800000  0  4G 6G 8G 9G11
  20402029.964    20402033.477    -1988674.763 8  -1232126.681 8
  22564829.561    22564833.659     6971084.847 7   5593606.699 8
  21697124.316    21697127.173    -6932840.584 7  -4722085.263 8
  20550936.829    20550940.523    -3180330.587 8   2492248.640 8
 86  6 18 23 53 59.0800000  0  4G 6G 8G 9G11
  20401692.750    20401695.619    -1990449.030 9  -1233509.232 7
  22568620.824    22568626.485     6991008.809 8   5609131.848 8
  21694041.735    21694045.700    -6949038.344 8  -4734706.878 8
  20551161.098    20551166.130    -3179147.054 7   2493170.887 8
 86  6 18 23 54  5.0800000  0  4G 6G 8G 9G11
  20401357.637    20401362.146    -1992205.038 8  -1234877.559 8
  22572414.272    22572419.062     7010942.529 7   5624664.623 8
  21690961.080    21690964.004    -6965228.163 8  -4747322.321 8
  20551390.846    20551395.573    -3177941.424 9   2494110.337 8
 86  6 18 23 54 11.0800000  0  4G 6G 8G 9G11
  20401027.287    20401030.283    -1993942.848 9  -1236231.692 8
  22576210.747    22576214.584     7030886.030 7   5640205.001 8
  21687881.822    21687884.540    -6981410.121 7  -4759931.631 8
  20551623.466    20551629.995    -3176713.707 7   2495066.989 7
 86  6 18 23 54 17.0800000  0  4G 6G 8G 9G11
  20400701.463    20400703.369    -1995662.373 8  -1237571.590 8
  22580006.819    22580011.176     7050839.274 7   5655752.980 8
  21684804.848    21684806.472    -6997584.064 9  -4772534.699 8
  20551862.447    20551868.053    -3175463.862 7   2496040.902 8
 86  6 18 23 54 23.0800000  0  4G 6G 8G 9G11
  20400376.660    20400380.615    -1997363.606 8  -1238897.222 8
  22583804.914    22583810.275     7070802.333 8   5671308.588 9
  21681727.793    21681731.347    -7013749.894 8  -4785131.452 8
  20552103.882    20552109.582    -3174191.859 8   2497032.077 7
 86  6 18 23 54 29.0800000  0  4G 6G 8G 9G11
  20400056.711    20400059.512    -1999046.426 8  -1240208.509 7
  22587606.461    22587610.766     7090775.178 8   5686871.845 8
  21678653.014    21678656.244    -7029907.627 9  -4797721.892 7
  20552350.734    20552355.413    -3172897.657 8   2498040.545 8
 86  6 18 23 54 35.0800000  0  4G 6G 8G 9G11
  20399738.728    20399743.662    -2000710.840 9  -1241505.453 8
  22591409.611    22591414.211     7110757.789 7   5702442.699 8
  21675580.259    21675582.264    -7046057.274 9  -4810306.026 7
  20552601.754    20552606.816    -3171581.255 7   2499066.321 7
 86  6 18 23 54 41.0800000  0  4G 6G 8G 9G11
  20399425.132    20399429.391    -2002356.866 8  -1242788.068 8
  22595213.981    22595218.187     7130750.142 7   5718021.147 8
  21672507.980    21672511.677    -7062198.802 8  -4822883.838 8
  20552855.616    20552859.498    -3170242.708 8   2500109.343 8
 86  6 18 23 54 47.0800000  0  4G 6G 8G 9G11
  20399116.356    20399119.789    -2003984.451 9  -1244056.318 8
  22599020.648    22599025.098     7150752.210 7   5733607.169 8
  21669438.184    21669440.707    -7078332.065 8  -4835455.203 8
  20553115.697    20553119.238    -3168881.987 8   2501169.628 7
 86  6 18 23 54 53.0800000  0  4G 6G 8G 9G11
  20398809.035    20398814.487    -2005593.608 8  -1245310.210 8
  22602828.226    22602833.058     7170763.984 8   5749200.748 8
  21666368.916    21666372.782    -7094457.136 8  -4848020.193 8
  20553379.568    20553382.813    -3167499.122 8   2502247.188 7
 86  6 18 23 54 59.0800000  0  4G 6G 8G 9G11
  20398507.455    20398510.588    -2007184.275 9  -1246549.690 8
  22606639.123    22606642.786     7190785.441 8   5764801.881 8
  21663302.968    21663305.085    -7110573.992 9  -4860578.785 8
  20553645.373    20553649.508    -3166094.092 8   2503342.023 7
 86  6 18 23 55  5.0800000  0  4G 6G 8G 9G11
  20398207.951    20398211.088    -2008756.506 8  -1247774.800 7
  22610450.449    22610454.246     7210816.541 9   5780410.521 8
  21660237.164    21660241.184    -7126682.525 8  -4873130.875 8
  20553916.449    20553922.010    -3164666.915 8   2504454.118 8
 86  6 18 23 55 11.0800000  0  4G 6G 8G 9G11
  20397911.416    20397915.579    -2010310.141 7  -1248985.431 7
  22614265.529    22614268.734     7230857.382 7   5796026.746 8
  21657173.491    21657176.922    -7142782.759 8  -4885676.510 7
  20554192.455    20554197.691    -3163217.508 8   2505583.517 8
 86  6 18 23 55 17.0800000  0  4G 6G 8G 9G11
  20397620.633    20397625.230    -2011845.228 8  -1250181.591 8
  22618080.855    22618084.926     7250907.824 8   5811650.472 8
  21654111.871    21654114.858    -7158874.648 8  -4898215.638 9
  20554471.481    20554477.188    -3161745.945 8   2506730.192 9
 86  6 18 23 55 23.0800000  0  4G 6G 8G 9G11
  20397331.620    20397334.194    -2013361.779 7  -1251363.328 8
  22621895.798    22621901.760     7270967.849 8   5827281.634 8
  21651051.367    21651053.864    -7174958.194 8  -4910748.265 9
  20554758.069    20554761.559    -3160252.245 7   2507894.111 8
 86  6 18 23 55 29.0800000  0  4G 6G 8G 9G11
  20397047.333    20397050.165    -2014859.805 8  -1252530.620 7
  22625716.345    22625720.324     7291037.421 9   5842920.250 8
  21647992.196    21647995.257    -7191033.331 8  -4923274.347 8
  20555045.940    20555050.433    -3158736.419 7   2509075.280 8
 86  6 18 23 55 35.0800000  0  4G 6G 8G 9G11
  20396764.600    20396769.007    -2016339.355 8  -1253683.527 7
  22629537.126    22629540.729     7311116.466 8   5858566.258 8
  21644933.626    21644937.377    -7207100.201 8  -4935793.981 9
  20555337.780    20555343.018    -3157198.532 8   2510273.628 8
 86  6 18 23 55 41.0800000  0  4G 6G 8G 9G11
  20396487.521    20396490.139    -2017800.448 8  -1254822.036 8
  22633358.547    22633363.029     7331204.917 8   5874219.584 9
  21641878.716    21641882.444    -7223158.852 7  -4948307.215 8
  20555635.574    20555640.001    -3155638.695 8   2511489.091 8
 86  6 18 23 55 47.0800000  0  4G 6G 8G 9G11
  20396212.916    20396215.494    -2019243.040 7  -1255946.138 7
  22637184.158    22637188.218     7351302.744 8   5889880.231 8
  21638824.909    21638826.436    -7239209.134 9  -4960813.926 7
  20555936.677    20555940.894    -3154056.882 8   2512721.680 7
 86  6 18 23 55 53.0800000  0  4G 6G 8G 9G11
  20395941.446    20395944.769    -2020667.150 8  -1257055.839 9
  22641010.405    22641013.689     7371409.896 8   5905548.128 8
  21635771.508    21635773.730    -7255251.075 9  -4973314.133 8
  20556242.449    20556245.410    -3152453.108 9   2513971.363 8
 86  6 18 23 55 59.0800000  0  4G 6G 8G 9G11
  20395673.586    20395676.833    -2022072.687 8  -1258151.054 8
  22644838.802    22644841.485     7391526.393 8   5921223.315 8
  21632720.825    21632722.770    -7271284.647 8  -4985807.824 8
  20556551.420    20556556.951    -3150827.376 8   2515238.170 8
 86  6 18 23 56  5.0800000  0  4G 6G 8G 9G11
  20395409.475    20395413.706    -2023459.713 9  -1259231.857 7
  22648668.226    22648671.432     7411652.185 8   5936905.755 8
  21629670.746    21629674.088    -7287309.863 8  -4998295.008 8
  20556865.579    20556868.749    -3149179.671 8   2516522.094 7
 86  6 18 23 56 11.0800000  0  4G 6G 8G 9G11
  20395149.052    20395152.707    -2024828.204 8  -1260298.215 7
  22652499.776    22652503.122     7431787.279 8   5952595.423 8
  21626622.660    21626626.116    -7303326.585 8  -5010775.549 8
  20557183.040    20557185.764    -3147509.979 8   2517823.154 8
 86  6 18 23 56 17.0800000  0  4G 6G 8G 9G11
  20394892.075    20394895.748    -2026178.065 8  -1261350.048 8
  22656332.204    22656336.946     7451931.685 7   5968292.361 9
  21623576.553    21623580.370    -7319334.878 8  -5023249.553 8
  20557503.266    20557507.166    -3145818.287 8   2519141.366 8
 86  6 18 23 56 23.0800000  0  4G 6G 8G 9G11
  20394639.313    20394643.008    -2027509.351 7  -1262387.421 8
  22660167.879    22660172.209     7472085.313 8   5983996.478 9
  21620533.377    21620534.303    -7335334.784 9  -5035717.012 7
  20557829.123    20557833.989    -3144104.684 8   2520476.639 8
 86  6 18 23 56 29.0800000  0  4G 6G 8G 9G11
  20394388.510    20394393.370    -2028822.022 7  -1263410.281 8
  22664005.136    22664008.966     7492248.177 9   5999707.805 8
  21617488.739    21617491.871    -7351326.138 9  -5048177.796 8
  20558161.672    20558163.902    -3142369.125 8   2521829.021 7
 86  6 18 23 56 35.0800000  0  4G 6G 8G 9G11
  20394143.205    20394145.909    -2030116.076 9  -1264418.640 8
  22667843.413    22667847.812     7512420.224 8   6015426.281 9
  21614448.665    21614450.538    -7367308.949 8  -5060631.934 8
  20558494.696    20558498.593    -3140611.608 8   2523198.508 7
 86  6 18 23 56 41.0800000  0  4G 6G 8G 9G11
  20393899.901    20393903.690    -2031391.389 8  -1265412.400 7
  22671683.698    22671686.707     7532601.542 8   6031151.965 8
  21611407.733    21611410.596    -7383283.234 9  -5073079.425 8
  20558833.017    20558837.759    -3138832.066 8   2524585.172 7
 86  6 18 23 56 47.0800000  0  4G 6G 8G 9G11
  20393661.338    20393665.882    -2032647.974 8  -1266391.557 7
  22675526.866    22675530.091     7552792.136 8   6046884.893 8
  21608371.090    21608372.423    -7399248.772 8  -5085520.107 7
  20559176.686    20559179.854    -3137030.533 9   2525988.970 7
 86  6 18 23 56 53.0800000  0  4G 6G 8G 9G11
  20393425.723    20393429.454    -2033885.777 9  -1267356.070 7
  22679369.720    22679374.909     7572991.939 8   6062624.994 8
  21605334.021    21605337.226    -7415205.645 9  -5097954.032 8
  20559522.544    20559527.939    -3135206.964 8   2527409.931 7
 86  6 18 23 56 59.0800000  0  4G 6G 8G 9G11
  20393193.423    20393198.328    -2035104.822 8  -1268305.981 8
  22683215.749    22683219.567     7593200.903 8   6078372.233 9
  21602298.890    21602300.220    -7431153.826 8  -5110381.173 8
  20559873.757    20559878.301    -3133361.420 9   2528848.018 7
 86  6 18 23 57  5.0800000  0  4G 6G 8G 9G11
  20392965.277    20392968.331    -2036305.046 8  -1269241.231 8
  22687062.836    22687068.026     7613419.016 8   6094126.589 8
  21599264.978    21599268.073    -7447093.323 9  -5122801.552 7
  20560229.751    20560232.732    -3131493.977 8   2530303.169 8
 86  6 18 23 57 11.0800000  0  4G 6G 8G 9G11
  20392740.361    20392744.551    -2037486.595 8  -1270161.912 8
  22690912.065    22690916.497     7633646.185 8   6109888.022 8
  21596233.275    21596236.871    -7463024.153 8  -5135215.191 8
  20560589.680    20560594.000    -3129604.674 8   2531775.342 8
 86  6 18 23 57 17.0800000  0  4G 6G 8G 9G11
  20392519.154    20392522.958    -2038649.375 8  -1271067.976 8
  22694763.392    22694766.971     7653882.390 8   6125656.489 9
  21593203.864    21593207.020    -7478946.275 9  -5147622.031 8
  20560951.478    20560957.721    -3127693.483 8   2533264.591 7
 86  6 18 23 57 23.0800000  0  4G 6G 8G 9G11
  20392301.310    20392304.933    -2039793.419 8  -1271959.431 7
  22698615.708    22698619.292     7674127.634 8   6141431.981 7
  21590175.355    21590179.001    -7494859.742 8  -5160022.126 9
  20561320.077    20561325.601    -3125760.424 7   2534770.879 8
 86  6 18 23 57 29.0800000  0  4G 6G 8G 9G11
  20392088.443    20392091.019    -2040918.604 8  -1272836.203 7
  22702468.726    22702473.471     7694381.905 8   6157214.524 9
  21587148.675    21587152.515    -7510764.423 9  -5172415.384 9
  20561692.427    20561696.798    -3123805.385 8   2536294.273 8
 86  6 18 23 57 35.0800000  0  4G 6G 8G 9G11
  20391877.689    20391879.665    -2042025.057 9  -1273698.374 7
  22706324.351    22706330.228     7714645.109 9   6173004.022 8
  21584124.233    21584128.044    -7526660.386 8  -5184801.841 7
  20562068.535    20562073.313    -3121828.486 8   2537834.728 8
 86  6 18 23 57 41.0800000  0  4G 6G 8G 9G11
  20391671.044    20391672.879    -2043112.681 8  -1274545.874 7
  22710183.508    22710187.179     7734917.251 8   6188800.492 8
  21581100.300    21581103.435    -7542547.554 8  -5197181.451 8
  20562448.348    20562454.013    -3119829.757 7   2539392.182 7
 86  6 18 23 57 47.0800000  0  4G 6G 8G 9G11
  20391467.756    20391469.887    -2044181.500 8  -1275378.728 7
  22714042.905    22714046.316     7755198.321 8   6204603.932 8
  21578079.999    21578081.208    -7558425.905 7  -5209554.201 8
  20562833.245    20562838.168    -3117809.174 7   2540966.669 8
 86  6 18 23 57 53.0800000  0  4G 6G 8G 9G11
  20391265.596    20391270.820    -2045231.452 8  -1276196.869 8
  22717903.960    22717907.396     7775488.282 8   6220414.289 9
  21575059.981    21575062.403    -7574295.419 9  -5221920.050 9
  20563221.730    20563225.889    -3115766.741 8   2542558.177 8
 86  6 18 23 57 59.0800000  0  4G 6G 8G 9G11
  20391071.080    20391073.320    -2046262.570 9  -1277000.347 7
  22721766.257    22721771.364     7795787.126 7   6236231.547 8
  21572041.899    21572043.769    -7590156.118 8  -5234279.030 9
  20563614.830    20563618.972    -3113702.474 7   2544166.699 8
 86  6 18 23 58  5.0800000  0  4G 6G 8G 9G11
  20390878.896    20390881.040    -2047274.801 9  -1277789.090 7
  22725630.220    22725634.915     7816094.857 7   6252055.730 8
  21569024.880    21569026.999    -7606007.876 8  -5246631.055 8
  20564011.964    20564017.388    -3111616.368 8   2545792.231 8
 86  6 18 23 58 11.0800000  0  4G 6G 8G 9G11
  20390689.319    20390692.434    -2048268.104 8  -1278563.097 8
  22729496.260    22729501.756     7836411.385 9   6267886.796 8
  21566009.665    21566014.469    -7621850.743 9  -5258976.145 8
  20564414.007    20564418.217    -3109508.407 8   2547434.799 8
 86  6 18 23 58 17.0800000  0  4G 6G 8G 9G11
  20390503.181    20390507.533    -2049242.504 9  -1279322.370 7
  22733365.368    22733369.211     7856736.776 8   6283724.760 8
  21562997.291    21563000.016    -7637684.640 9  -5271314.245 8
  20564818.772    20564822.738    -3107378.687 7   2549094.326 8
 86  6 18 23 58 23.0800000  0  4G 6G 8G 9G11
  20390322.493    20390325.326    -2050197.918 9  -1280066.849 8
  22737233.544    22737238.485     7877070.983 7   6299569.586 9
  21559985.249    21559989.242    -7653509.619 9  -5283645.378 8
  20565228.496    20565233.571    -3105227.146 8   2550770.854 8
 86  6 18 23 58 29.0800000  0  4G 6G 8G 9G11
  20390144.467    20390146.119    -2051134.462 8  -1280796.624 7
  22741105.691    22741109.991     7897413.906 8   6315421.205 8
  21556975.102    21556979.171    -7669325.656 9  -5295969.561 8
  20565641.619    20565647.041    -3103053.811 8   2552464.360 9
 86  6 18 23 58 35.0800000  0  4G 6G 8G 9G11
  20389969.616    20389972.130    -2052052.014 8  -1281511.606 7
  22744978.986    22744983.124     7917765.581 8   6331279.647 8
  21553967.793    21553971.291    -7685132.647 8  -5308286.696 8
  20566060.761    20566063.573    -3100858.692 9   2554174.841 8
 86  6 18 23 58 41.0800000  0  4G 6G 8G 9G11
  20389798.560    20389801.702    -2052950.633 8  -1282211.812 7
  22748852.424    22748856.164     7938125.954 7   6347144.869 8
  21550960.280    21550965.413    -7700930.568 8  -5320596.755 8
  20566482.292    20566485.875    -3098641.828 8   2555902.268 7
 86  6 18 23 58 47.0800000  0  4G 6G 8G 9G11
  20389630.922    20389634.442    -2053830.277 8  -1282897.272 7
  22752728.776    22752734.144     7958494.980 8   6363016.837 7
  21547957.386    21547959.998    -7716719.467 9  -5332899.801 8
  20566907.222    20566911.562    -3096403.223 8   2557646.646 7
 86  6 18 23 58 53.0800000  0  4G 6G 8G 9G11
  20389467.188    20389470.743    -2054690.997 8  -1283567.953 8
  22756605.276    22756611.197     7978872.591 8   6378895.480 9
  21544954.217    21544957.577    -7732499.411 9  -5345195.854 8
  20567337.867    20567341.756    -3094142.977 8   2559407.873 9
 86  6 18 23 58 59.0800000  0  4G 6G 8G 9G11
  20389307.637    20389310.070    -2055532.827 9  -1284223.925 8
  22760484.704    22760490.178     7999258.756 6   6394780.797 8
  21541952.505    21541955.206    -7748270.442 9  -5357484.981 7
  20567770.758    20567777.154    -3091861.085 8   2561185.970 8
 86  6 18 23 59  5.0800000  0  4G 6G 8G 9G11
  20389150.068    20389154.023    -2056355.699 8  -1284865.115 8
  22764364.937    22764370.516     8019653.443 9   6410672.750 8
  21538953.714    21538956.964    -7764032.363 8  -5369766.992 7
  20568209.792    20568214.214    -3089557.597 8   2562980.903 8
 86  6 18 23 59 11.0800000  0  4G 6G 8G 9G11
  20388996.678    20389001.084    -2057159.599 9  -1285491.546 7
  22768248.978    22768254.208     8040056.676 8   6426571.366 8
  21535955.850    21535957.937    -7779785.315 8  -5382042.027 8
  20568653.272    20568656.520    -3087232.456 8   2564792.698 8
 86  6 18 23 59 17.0800000  0  4G 6G 8G 9G11
  20388849.261    20388851.181    -2057944.425 8  -1286103.104 8
  22772134.339    22772137.969     8060468.449 8   6442476.632 9
  21532959.356    21532962.589    -7795529.048 8  -5394309.867 8
  20569098.470    20569104.005    -3084885.590 8   2566621.425 9
 86  6 18 23 59 23.0800000  0  4G 6G 8G 9G11
  20388702.841    20388705.540    -2058710.204 8  -1286699.806 7
  22776019.507    22776024.718     8080888.728 7   6458388.547 8
  21529966.019    21529970.414    -7811263.565 8  -5406570.529 8
  20569550.763    20569554.308    -3082517.068 8   2568467.031 8
 86  6 18 23 59 29.0800000  0  4G 6G 8G 9G11
  20388559.663    20388564.141    -2059456.870 8  -1287281.630 8
  22779906.697    22779911.289     8101317.543 7   6474307.084 9
  21526974.103    21526976.389    -7826988.993 8  -5418824.109 8
  20570004.631    20570008.822    -3080126.824 9   2570329.547 8
 86  6 18 23 59 35.0800000  0  4G 6G 8G 9G11
  20388421.902    20388426.066    -2060184.417 8  -1287848.551 7
  22783796.187    22783800.436     8121754.826 8   6490232.240 8
  21523982.108    21523985.710    -7842705.133 9  -5431070.457 9
  20570462.611    20570468.206    -3077714.866 8   2572208.991 7
 86  6 18 23 59 41.0800000  0  4G 6G 8G 9G11
  20388287.380    20388290.694    -2060892.864 9  -1288400.596 6
  22787687.028    22787689.915     8142200.641 9   6506164.029 8
  21520993.529    21520996.742    -7858411.926 8  -5443309.507 7
  20570926.168    20570931.957    -3075281.173 8   2574105.384 8
 86  6 18 23 59 47.0800000  0  4G 6G 8G 9G11
  20388154.627    20388158.948    -2061582.196 8  -1288937.729 7
  22791578.731    22791583.171     8162654.918 8   6522102.417 8
  21518006.568    21518010.734    -7874109.503 8  -5455541.372 7
  20571395.063    20571398.884    -3072825.802 8   2576018.654 9
 86  6 18 23 59 53.0800000  0  4G 6G 8G 9G11
  20388027.586    20388032.297    -2062252.359 8  -1289459.933 7
  22795473.942    22795477.441     8183117.595 8   6538047.370 9
  21515020.612    21515024.308    -7889797.773 8  -5467765.999 8
  20571864.430    20571870.620    -3070348.814 8   2577948.788 9
 86  6 18 23 59 59.0800000  0  4G 6G 8G 9G11
  20387904.393    20387909.739    -2062903.357 8  -1289967.210 8
  22799368.346    22799373.582     8203588.630 7   6553998.805 7
  21512037.683    21512040.481    -7905476.788 8  -5479983.404 8
  20572340.558    20572345.619    -3067850.228 8   2579895.726 8
 86  6 19  0  0  5.0800000  0  4G 6G 8G 9G11
  20387783.337    20387787.966    -2063535.302 8  -1290459.631 8
  22803265.008    22803269.517     8224067.963 7   6569956.723 7
  21509055.114    21509059.331    -7921146.432 8  -5492193.533 7
  20572821.518    20572825.328    -3065330.072 7   2581859.476 8
 86  6 19  0  0 11.0800000  0  4G 6G 8G 9G11
  20387667.502    20387671.839    -2064148.098 8  -1290937.144 7
  22807164.280    22807168.972     8244555.642 8   6585921.134 8
  21506075.524    21506078.526    -7936806.881 8  -5504396.468 8
  20573304.114    20573309.342    -3062788.392 9   2583840.012 8
 86  6 19  0  0 17.0800000  0  4G 6G 8G 9G11
  20387555.441    20387558.530    -2064741.742 8  -1291399.719 8
  22811064.184    22811069.452     8265051.517 8   6601891.949 8
  21503096.577    21503100.672    -7952457.943 8  -5516592.104 8
  20573792.658    20573796.265    -3060225.210 8   2585837.294 8
 86  6 19  0  0 23.0800000  0  4G 6G 8G 9G11
  20387445.432    20387448.382    -2065316.221 8  -1291847.373 8
  22814966.015    22814970.888     8285555.697 7   6617869.222 8
  21500119.677    21500124.242    -7968099.635 8  -5528780.420 8
  20574282.812    20574287.824    -3057640.496 8   2587851.357 7
 86  6 19  0  0 29.0800000  0  4G 6G 8G 9G11
  20387340.018    20387341.832    -2065871.518 8  -1292280.061 7
  22818868.973    22818873.955     8306068.080 8   6633852.900 8
  21497144.981    21497149.078    -7983731.969 8  -5540961.467 9
  20574778.226    20574784.629    -3055034.260 9   2589882.200 8
 86  6 19  0  0 35.0800000  0  4G 6G 8G 9G11
  20387238.031    20387239.937    -2066407.610 7  -1292697.803 7
  22822774.012    22822779.545     8326588.694 8   6649842.972 7
  21494173.063    21494176.029    -7999354.875 8  -5553135.152 8
  20575279.718    20575284.514    -3052406.438 9   2591929.841 8
 86  6 19  0  0 41.0800000  0  4G 6G 8G 9G11
  20387140.013    20387142.108    -2066924.387 7  -1293100.485 8
  22826680.393    22826685.319     8347117.558 7   6665839.485 8
  21491200.590    21491205.455    -8014968.248 8  -5565301.413 8
  20575783.447    20575788.466    -3049757.011 8   2593994.333 8
 86  6 19  0  0 47.0800000  0  4G 6G 8G 9G11
  20387044.366    20387048.680    -2067421.883 8  -1293488.148 8
  22830589.166    22830593.486     8367654.654 7   6681842.413 8
  21488231.769    21488236.671    -8030572.180 8  -5577460.316 7
  20576291.995    20576297.005    -3047086.007 7   2596075.637 9
 86  6 19  0  0 53.0800000  0  4G 6G 8G 9G11
  20386953.808    20386958.017    -2067900.093 8  -1293860.792 7
  22834498.354    22834503.089     8388199.936 6   6697851.727 9
  21485264.583    21485267.406    -8046166.569 8  -5589611.794 8
  20576804.580    20576809.788    -3044393.429 8   2598173.745 8
 86  6 19  0  0 59.0800000  0  4G 6G 8G 9G11
  20386865.522    20386869.652    -2068359.030 7  -1294218.395 8
  22838409.740    22838414.856     8408753.330 8   6713867.340 7
  21482300.044    21482304.016    -8061751.424 8  -5601755.836 9
  20577320.744    20577326.113    -3041679.355 8   2600288.602 8
 86  6 19  0  1  5.0800000  0  4G 6G 8G 9G11
  20386782.724    20386786.589    -2068798.689 8  -1294560.995 8
  22842322.426    22842326.972     8429314.793 7   6729889.254 7
  21479335.655    21479338.223    -8077326.693 8  -5613892.404 8
  20577841.177    20577845.143    -3038943.765 8   2602420.231 8
 86  6 19  0  1 11.0800000  0  4G 6G 8G 9G11
  20386702.585    20386705.594    -2069219.033 8  -1294888.535 7
  22846237.164    22846240.972     8449884.344 7   6745917.464 8
  21476374.347    21476377.073    -8092892.395 9  -5626021.528 8
  20578365.617    20578370.119    -3036186.711 8   2604568.599 8
 86  6 19  0  1 17.0800000  0  4G 6G 8G 9G11
  20386626.877    20386629.720    -2069620.154 8  -1295201.097 8
  22850152.104    22850156.648     8470461.867 7   6761951.901 8
  21473413.157    21473416.066    -8108448.494 8  -5638143.158 7
  20578895.047    20578899.254    -3033408.180 8   2606733.676 8
 86  6 19  0  1 23.0800000  0  4G 6G 8G 9G11
  20386553.127    20386557.074    -2070001.942 9  -1295498.601 8
  22854070.224    22854074.201     8491047.389 7   6777992.553 7
  21470453.659    21470458.758    -8123995.081 7  -5650257.380 8
  20579426.706    20579432.423    -3030608.242 8   2608915.459 8
 86  6 19  0  1 29.0800000  0  4G 6G 8G 9G11
  20386484.681    20386488.523    -2070364.447 9  -1295781.066 7
  22857987.660    22857992.716     8511640.935 7   6794039.463 8
  21467498.023    21467501.854    -8139532.128 8  -5662364.165 8
  20579964.321    20579969.113    -3027786.929 7   2611113.868 8
 86  6 19  0  1 35.0800000  0  4G 6G 8G 9G11
  20386419.419    20386423.667    -2070707.657 8  -1296048.520 8
  22861907.706    22861912.742     8532242.290 7   6810092.453 7
  21464542.927    21464546.769    -8155059.568 8  -5674463.464 7
  20580504.922    20580510.631    -3024944.293 8   2613328.933 8
 86  6 19  0  1 41.0800000  0  4G 6G 8G 9G11
  20386357.529    20386361.658    -2071031.601 8  -1296300.926 7
  22865828.331    22865836.031     8552851.543 6   6826151.588 7
  21461589.368    21461593.776    -8170577.392 9  -5686555.274 7
  20581049.348    20581054.962    -3022080.318 8   2615560.592 8
 86  6 19  0  1 47.0800000  0  4G 6G 8G 9G11
  20386300.824    20386303.879    -2071336.297 8  -1296538.357 7
  22869753.660    22869758.924     8573468.615 7   6842216.847 8
  21458638.684    21458642.109    -8186085.626 8  -5698639.610 9
  20581599.899    20581603.299    -3019194.998 8   2617808.896 7
 86  6 19  0  1 53.0800000  0  4G 6G 8G 9G11
  20386245.133    20386248.804    -2071621.609 8  -1296760.692 8
  22873677.415    22873682.322     8594093.553 8   6858288.235 8
  21455689.369    21455693.900    -8201584.255 8  -5710716.464 8
  20582152.492    20582157.465    -3016288.357 8   2620073.813 7
 86  6 19  0  1 59.0800000  0  4G 6G 8G 9G11
  20386196.081    20386196.648    -2071887.645 8  -1296967.978 8
  22877605.002    22877609.886     8614726.282 7   6874365.672 8
  21452743.132    21452745.694    -8217073.117 8  -5722785.703 7
  20582710.367    20582713.911    -3013360.440 8   2622355.311 8
 86  6 19  0  2  5.0800000  0  4G 6G 8G 9G11
  20386148.027    20386152.539    -2072134.342 8  -1297160.211 8
  22881533.885    22881537.387     8635366.760 8   6890449.144 8
  21449796.437    21449801.060    -8232552.319 8  -5734847.420 8
  20583270.601    20583275.326    -3010411.253 8   2624653.373 8
 86  6 19  0  2 11.0800000  0  4G 6G 8G 9G11
  20386103.938    20386107.739    -2072361.715 7  -1297337.391 8
  22885463.407    22885466.319     8656014.958 8   6906538.648 7
  21446851.814    21446857.914    -8248021.827 8  -5746901.579 7
  20583836.696    20583840.321    -3007440.794 8   2626968.013 8
 86  6 19  0  2 17.0800000  0  4G 6G 8G 9G11
  20386064.575    20386068.334    -2072569.628 8  -1297499.402 9
  22889392.997    22889397.913     8676670.914 7   6922634.203 7
  21443910.832    21443916.314    -8263481.591 8  -5758948.137 7
  20584404.408    20584409.732    -3004448.961 8   2629299.323 8
 86  6 19  0  2 23.0800000  0  4G 6G 8G 9G11
  20386029.163    20386033.024    -2072758.131 8  -1297646.281 8
  22893324.614    22893328.945     8697334.669 8   6938735.828 9
  21440970.546    21440973.439    -8278931.537 8  -5770987.052 8
  20584979.093    20584982.785    -3001435.837 8   2631647.206 8
 86  6 19  0  2 29.0800000  0  4G 6G 8G 9G11
  20385996.333    20385999.914    -2072927.171 8  -1297778.000 8
  22897258.611    22897262.989     8718006.120 8   6954843.441 8
  21438032.169    21438035.869    -8294371.602 8  -5783018.285 7
  20585556.880    20585561.020    -2998401.456 8   2634011.668 8
 86  6 19  0  2 35.0800000  0  4G 6G 8G 9G11
  20385968.802    20385972.176    -2073076.755 8  -1297894.554 8
  22901193.296    22901197.805     8738685.268 7   6970957.056 8
  21435096.961    21435100.477    -8309801.922 9  -5795041.902 8
  20586137.970    20586141.641    -2995345.753 9   2636392.737 8
 86  6 19  0  2 41.0800000  0  4G 6G 8G 9G11
  20385943.720    20385947.238    -2073206.824 9  -1297995.908 7
  22905130.607    22905135.380     8759372.197 7   6987076.731 9
  21432162.072    21432165.586    -8325222.183 8  -5807057.686 8
  20586723.936    20586728.153    -2992268.662 8   2638790.460 8
 86  6 19  0  2 47.0800000  0  4G 6G 8G 9G11
  20385922.580    20385927.261    -2073317.290 8  -1298082.001 7
  22909067.178    22909073.459     8780066.812 7   7003202.401 8
  21429229.250    21429233.284    -8340632.511 8  -5819065.734 8
  20587312.616    20587317.720    -2989170.220 8   2641204.836 8
 86  6 19  0  2 53.0800000  0  4G 6G 8G 9G11
  20385906.136    20385909.590    -2073408.111 8  -1298152.757 8
  22913007.597    22913011.943     8800769.236 7   7019334.156 8
  21426298.893    21426302.839    -8356032.767 9  -5831065.919 8
  20587907.196    20587911.436    -2986050.370 8   2643635.889 7
 86  6 19  0  2 59.0800000  0  4G 6G 8G 9G11
  20385892.252    20385895.578    -2073479.332 9  -1298208.262 8
  22916949.966    22916952.912     8821479.354 7   7035471.904 8
  21423369.847    21423373.408    -8371422.961 8  -5843058.282 9
  20588503.956    20588508.148    -2982909.141 8   2646083.600 8
 86  6 19  0  3  5.0800000  0  4G 6G 8G 9G11
  20385881.255    20385885.606    -2073530.932 8  -1298248.473 8
  22920892.008    22920896.314     8842197.099 7   7051615.601 8
  21420443.273    21420446.809    -8386803.141 8  -5855042.832 8
  20589106.393    20589110.824    -2979746.612 8   2648547.913 8
 86  6 19  0  3 11.0800000  0  4G 6G 8G 9G11
  20385876.137    20385878.101    -2073563.017 8  -1298273.460 8
  22924835.452    22924840.214     8862922.411 8   7067765.178 7
  21417518.076    21417522.119    -8402173.313 8  -5867019.594 8
  20589712.073    20589716.503    -2976562.833 8   2651028.777 8
 86  6 19  0  3 17.0800000  0  4G 6G 8G 9G11
  20385873.487    20385875.283    -2073575.539 8  -1298283.245 8
  22928780.714    22928784.611     8883655.257 8   7083920.633 8
  21414595.129    21414598.610    -8417533.463 8  -5878988.521 9
  20590322.468    20590325.148    -2973357.842 7   2653526.169 7
 86  6 19  0  3 23.0800000  0  4G 6G 8G 9G11
  20385875.475    20385879.034    -2073568.582 8  -1298277.808 8
  22932727.410    22932731.722     8904395.595 8   7100081.931 8
  21411673.634    21411678.819    -8432883.654 8  -5890949.718 8
  20590934.997    20590939.729    -2970131.720 8   2656040.029 8
 86  6 19  0  3 29.0800000  0  4G 6G 8G 9G11
  20385880.503    20385882.963    -2073542.034 8  -1298257.126 8
  22936675.470    22936680.063     8925143.347 7   7116249.018 8
  21408754.877    21408760.114    -8448223.795 8  -5902903.063 8
  20591554.003    20591558.391    -2966884.453 8   2658570.374 8
 86  6 19  0  3 35.0800000  0  4G 6G 8G 9G11
  20385887.772    20385891.976    -2073495.909 8  -1298221.187 7
  22940625.580    22940629.045     8945898.570 8   7132421.908 8
  21405838.346    21405841.816    -8463553.925 8  -5914848.606 9
  20592176.239    20592180.003    -2963616.007 8   2661117.218 8
 86  6 19  0  3 41.0800000  0  4G 6G 8G 9G11
  20385901.207    20385905.202    -2073430.204 8  -1298169.979 8
  22944574.746    22944580.826     8966661.205 7   7148600.569 8
  21402922.476    21402928.576    -8478873.868 8  -5926786.222 8
  20592800.672    20592805.847    -2960326.444 9   2663680.503 8
 86  6 19  0  3 47.0800000  0  4G 6G 8G 9G11
  20385917.454    20385920.427    -2073344.889 7  -1298103.518 8
  22948528.767    22948532.704     8987431.183 8   7164784.969 8
  21400008.211    21400014.224    -8494183.668 8  -5938715.947 8
  20593431.421    20593437.110    -2957015.699 8   2666260.302 8
 86  6 19  0  3 53.0800000  0  4G 6G 8G 9G11
  20385937.536    20385940.360    -2073239.950 8  -1298021.761 7
  22952482.346    22952486.460     9008208.584 7   7180975.145 7
  21397099.175    21397101.239    -8509483.400 8  -5950637.800 8
  20594066.515    20594070.474    -2953683.846 8   2668856.560 8
 86  6 19  0  3 59.0800000  0  4G 6G 8G 9G11
  20385960.758    20385964.203    -2073115.381 8  -1297924.689 8
  22956437.796    22956441.023     9028993.360 7   7197171.068 8
  21394189.729    21394191.491    -8524772.916 8  -5962551.718 7
  20594703.404    20594708.760    -2950330.883 7   2671469.265 8
 86  6 19  0  4  5.0800000  0  4G 6G 8G 9G11
  20385987.496    20385990.416    -2072971.223 8  -1297812.355 7
  22960393.981    22960398.774     9049785.391 7   7213372.644 8
  21391281.593    21391285.351    -8540052.417 8  -5974457.821 8
  20595345.570    20595350.288    -2946956.803 8   2674098.399 7
 86  6 19  0  4 11.0800000  0  4G 6G 8G 9G11
  20386018.967    20386022.804    -2072807.480 9  -1297684.757 8
  22964350.106    22964356.089     9070584.678 7   7229579.873 7
  21388374.905    21388379.136    -8555321.735 8  -5986355.990 7
  20595991.172    20595997.358    -2943561.725 8   2676743.922 8
 86  6 19  0  4 17.0800000  0  4G 6G 8G 9G11
  20386054.871    20386057.352    -2072624.083 8  -1297541.865 8
  22968310.593    22968315.529     9091391.207 8   7245792.736 8
  21385472.353    21385475.597    -8570580.855 8  -5998246.213 7
  20596641.252    20596646.319    -2940145.582 8   2679405.853 8
 86  6 19  0  4 23.0800000  0  4G 6G 8G 9G11
  20386093.449    20386095.468    -2072421.046 8  -1297383.643 8
  22972271.472    22972277.452     9112204.958 8   7262011.243 8
  21382569.911    21382573.231    -8585829.604 8  -6010128.361 8
  20597295.880    20597300.020    -2936708.376 8   2682084.188 8
 86  6 19  0  4 29.0800000  0  4G 6G 8G 9G11
  20386135.702    20386139.932    -2072198.213 7  -1297210.024 7
  22976234.594    22976239.170     9133025.940 8   7278235.381 8
  21379670.277    21379673.934    -8601068.091 8  -6022002.503 8
  20597953.473    20597958.489    -2933250.146 9   2684778.920 8
 86  6 19  0  4 35.0800000  0  4G 6G 8G 9G11
  20386182.130    20386184.790    -2071955.692 7  -1297021.036 7
  22980197.700    22980203.514     9153854.164 8   7294465.148 8
  21376771.610    21376775.235    -8616296.265 9  -6033868.604 8
  20598615.182    20598621.184    -2929770.882 8   2687490.040 8
 86  6 19  0  4 41.0800000  0  4G 6G 8G 9G11
  20386232.253    20386234.778    -2071693.499 8  -1296816.729 7
  22984162.757    22984167.699     9174689.577 7   7310700.536 8
  21373876.676    21373880.392    -8631514.132 8  -6045726.679 8
  20599282.468    20599287.376    -2926270.507 8   2690217.593 7
 86  6 19  0  4 47.0800000  0  4G 6G 8G 9G11
  20386285.557    20386289.139    -2071411.596 8  -1296597.068 7
  22988128.578    22988134.361     9195532.039 8   7326941.401 7
  21370983.110    21370987.697    -8646721.747 8  -6057576.769 7
  20599951.770    20599957.550    -2922749.175 8   2692961.490 8
 86  6 19  0  4 53.0800000  0  4G 6G 8G 9G11
  20386342.736    20386345.433    -2071110.026 8  -1296362.081 8
  22992096.294    22992101.859     9216381.581 8   7343187.793 7
  21368091.625    21368095.153    -8661918.982 8  -6069418.761 8
  20600626.410    20600631.275    -2919206.892 8   2695721.710 8
 86  6 19  0  4 59.0800000  0  4G 6G 8G 9G11
  20386404.871    20386406.734    -2070788.702 8  -1296111.704 8
  22996065.427    22996070.897     9237238.199 8   7359439.703 8
  21365201.277    21365205.203    -8677105.796 9  -6081252.647 9
  20601304.145    20601309.091    -2915643.632 7   2698498.276 8
 86  6 19  0  5  5.0800000  0  4G 6G 8G 9G11
  20386469.577    20386471.788    -2070447.641 9  -1295845.938 7
  23000036.270    23000040.301     9258101.898 8   7375697.114 8
  21362313.618    21362316.354    -8692282.265 8  -6093078.460 8
  20601985.620    20601991.650    -2912059.409 8   2701291.182 8
 86  6 19  0  5 11.0800000  0  4G 6G 8G 9G11
  20386537.890    20386540.210    -2070086.719 8  -1295564.708 8
  23004007.638    23004011.972     9278972.660 8   7391960.042 8
  21359428.059    21359430.657    -8707448.262 9  -6104896.112 8
  20602671.708    20602676.638    -2908454.205 7   2704100.433 9
 86  6 19  0  5 17.0800000  0  4G 6G 8G 9G11
  20386610.048    20386613.455    -2069705.956 8  -1295268.010 8
  23007980.250    23007984.175     9299850.529 8   7408228.505 8
  21356543.001    21356545.974    -8722603.828 8  -6116705.645 8
  20603361.077    20603367.354    -2904827.970 7   2706926.061 8
 86  6 19  0  5 23.0800000  0  4G 6G 8G 9G11
  20386686.157    20386689.235    -2069305.308 8  -1294955.818 7
  23011955.106    23011958.479     9320735.464 8   7424502.477 7
  21353660.901    21353665.527    -8737748.742 8  -6128506.872 7
  20604057.461    20604060.892    -2901180.670 8   2709768.125 7
 86  6 19  0  5 29.0800000  0  4G 6G 8G 9G11
  20386766.166    20386769.828    -2068884.752 9  -1294628.119 7
  23015929.962    23015935.971     9341627.540 8   7440782.008 8
  21350781.443    21350785.177    -8752883.131 8  -6140299.895 8
  20604754.567    20604758.408    -2897512.362 8   2712626.542 7
 86  6 19  0  5 35.0800000  0  4G 6G 8G 9G11
  20386850.610    20386853.451    -2068444.237 8  -1294284.858 7
  23019906.387    23019911.860     9362526.638 8   7457067.007 8
  21347904.072    21347906.431    -8768006.819 8  -6152084.591 9
  20605456.643    20605462.210    -2893822.989 8   2715501.377 8
 86  6 19  0  5 41.0800000  0  4G 6G 8G 9G11
  20386937.729    20386939.987    -2067983.765 8  -1293926.031 7
  23023885.384    23023890.559     9383432.769 8   7473357.502 8
  21345027.759    21345030.961    -8783119.863 8  -6163860.980 7
  20606162.731    20606168.071    -2890112.605 8   2718392.595 9
 86  6 19  0  5 47.0800000  0  4G 6G 8G 9G11
  20387029.308    20387032.637    -2067503.335 9  -1293551.689 8
  23027866.049    23027869.723     9404345.911 8   7489653.450 7
  21342153.646    21342157.165    -8798222.277 9  -6175629.090 8
  20606873.042    20606877.322    -2886381.193 8   2721300.184 8
 86  6 19  0  5 53.0800000  0  4G 6G 8G 9G11
  20387124.632    20387126.827    -2067003.028 9  -1293161.838 8
  23031846.603    23031849.807     9425265.991 8   7505954.806 8
  21339282.269    21339285.395    -8813314.009 9  -6187388.883 8
  20607586.745    20607592.398    -2882628.831 9   2724224.113 8
 86  6 19  0  5 59.0800000  0  4G 6G 8G 9G11
  20387224.028    20387225.845    -2066482.817 9  -1292756.472 8
  23035828.622    23035834.717     9446192.966 7   7522261.535 7
  21336412.748    21336415.773    -8828395.102 8  -6199140.388 8
  20608305.081    20608310.280    -2878855.548 8   2727164.326 7
 86  6 19  0  6  5.0800000  0  4G 6G 8G 9G11
  20387325.827    20387328.417    -2065942.652 9  -1292335.569 8
  23039811.984    23039817.326     9467126.841 9   7538573.624 8
  21333544.012    21333547.294    -8843465.500 8  -6210883.551 8
  20609026.236    20609032.008    -2875061.397 7   2730120.804 9
 86  6 19  0  6 11.0800000  0  4G 6G 8G 9G11
  20387432.158    20387436.885    -2065382.625 8  -1291899.180 7
  23043797.572    23043801.509     9488067.511 9   7554891.028 9
  21330679.026    21330681.798    -8858525.246 8  -6222618.411 7
  20609752.946    20609757.454    -2871246.420 7   2733093.509 8
 86  6 19  0  6 17.0800000  0  4G 6G 8G 9G11
  20387545.140    20387546.941    -2064802.626 9  -1291447.248 7
  23047782.791    23047787.466     9509014.932 8   7571213.691 7
  21327815.483    21327818.068    -8873574.281 8  -6234344.926 8
  20610483.450    20610488.484    -2867410.640 7   2736082.443 8
 86  6 19  0  6 23.0800000  0  4G 6G 8G 9G11
  20387656.697    20387661.204    -2064202.704 8  -1290979.775 7
  23051770.714    23051775.998     9529969.150 8   7587541.644 9
  21324953.190    21324956.513    -8888612.591 9  -6246063.092 8
  20611217.249    20611223.021    -2863554.019 8   2739087.595 8
 86  6 19  0  6 29.0800000  0  4G 6G 8G 9G11
  20387774.495    20387777.677    -2063582.845 8  -1290496.773 7
  23055760.514    23055764.308     9550930.135 8   7603874.874 9
  21322092.954    21322096.757    -8903640.190 8  -6257772.900 7
  20611954.806    20611960.106    -2859676.559 7   2742108.993 8
 86  6 19  0  6 35.0800000  0  4G 6G 8G 9G11
  20387897.190    20387900.820    -2062943.001 8  -1289998.195 7
  23059750.335    23059753.774     9571897.847 8   7620213.346 9
  21319234.875    21319238.981    -8918657.009 9  -6269474.316 8
  20612697.411    20612702.266    -2855778.315 8   2745146.584 8
 86  6 19  0  6 41.0800000  0  4G 6G 8G 9G11
  20388022.310    20388025.768    -2062283.270 8  -1289484.108 8
  23063740.613    23063745.403     9592872.236 8   7636557.013 9
  21316380.235    21316382.612    -8933663.054 9  -6281167.348 8
  20613443.295    20613446.735    -2851859.308 8   2748200.366 8
 86  6 19  0  6 47.0800000  0  4G 6G 8G 9G11
  20388150.814    20388155.814    -2061603.566 8  -1288954.470 7
  23067733.917    23067738.440     9613853.224 8   7652905.836 8
  21313527.008    21313530.431    -8948658.287 9  -6292851.935 9
  20614192.893    20614197.071    -2847919.568 8   2751270.280 8
 86  6 19  0  6 53.0800000  0  4G 6G 8G 9G11
  20388285.673    20388288.650    -2060903.885 8  -1288409.271 8
  23071727.567    23071730.928     9634840.832 7   7669259.804 9
  21310675.787    21310679.275    -8963642.820 9  -6304528.200 9
  20614947.196    20614950.660    -2843959.130 8   2754356.349 9
 86  6 19  0  6 59.0800000  0  4G 6G 8G 9G11
  20388421.516    20388426.059    -2060184.308 8  -1287848.570 7
  23075722.676    23075726.885     9655835.013 9   7685618.891 8
  21307826.452    21307829.175    -8978616.521 9  -6316196.007 8
  20615704.673    20615708.339    -2839977.982 9   2757458.530 8
 86  6 19  0  7  5.0800000  0  4G 6G 8G 9G11
  20388562.727    20388565.093    -2059444.746 8  -1287272.291 7
  23079719.176    23079723.820     9676835.710 8   7701983.055 8
  21304979.511    21304980.933    -8993579.362 9  -6327855.352 9
  20616466.178    20616469.017    -2835976.174 8   2760576.831 8
 86  6 19  0  7 11.0800000  0  4G 6G 8G 9G11
  20388707.610    20388710.285    -2058685.199 9  -1286680.445 8
  23083716.137    23083720.846     9697842.935 8   7718352.327 8
  21302132.687    21302137.860    -9008531.350 9  -6339506.263 8
  20617230.939    20617234.596    -2831953.694 9   2763711.225 8
 86  6 19  0  7 17.0800000  0  4G 6G 8G 9G11
  20388854.871    20388859.595    -2057905.646 8  -1286072.986 8
  23087715.058    23087719.110     9718856.717 8   7734726.693 8
  21299290.316    21299293.342    -9023472.490 9  -6351148.700 8
  20618000.734    20618004.487    -2827910.462 9   2766861.795 8
 86  6 19  0  7 23.0800000  0  4G 6G 8G 9G11
  20389007.515    20389011.175    -2057105.959 8  -1285449.863 7
  23091715.116    23091719.960     9739877.068 7   7751106.174 8
  21296449.112    21296452.420    -9038402.558 8  -6362782.524 9
  20618774.279    20618776.021    -2823846.467 8   2770028.539 8
 86  6 19  0  7 29.0800000  0  4G 6G 8G 9G11
  20389162.925    20389166.828    -2056286.196 9  -1284811.076 7
  23095715.823    23095720.936     9760903.917 7   7767490.727 8
  21293609.739    21293613.229    -9053321.706 8  -6374407.830 8
  20619550.853    20619555.013    -2819761.793 9   2773211.405 8
 86  6 19  0  7 35.0800000  0  4G 6G 8G 9G11
  20389323.470    20389326.995    -2055446.413 8  -1284156.703 7
  23099716.968    23099723.480     9781937.239 8   7783880.313 9
  21290772.913    21290776.100    -9068229.845 9  -6386024.563 8
  20620331.872    20620335.952    -2815656.535 7   2776410.315 8
 86  6 19  0  7 41.0800000  0  4G 6G 8G 9G11
  20389486.692    20389490.157    -2054586.552 7  -1283486.683 8
  23103722.428    23103726.888     9802976.976 7   7800274.895 8
  21287938.389    21287941.879    -9083127.112 9  -6397632.812 8
  20621117.327    20621120.762    -2811530.634 9   2779625.303 8
 86  6 19  0  7 47.0800000  0  4G 6G 8G 9G11
  20389654.041    20389658.549    -2053706.638 8  -1282801.045 8
  23107728.312    23107730.727     9824023.031 8   7816674.421 8
  21285105.621    21285108.608    -9098013.355 8  -6409232.472 8
  20621906.130    20621909.828    -2807384.148 8   2782856.322 7
 86  6 19  0  7 53.0800000  0  4G 6G 8G 9G11
  20389826.029    20389829.723    -2052806.760 8  -1282099.853 8
  23111733.455    23111737.455     9845075.484 7   7833078.918 8
  21282275.061    21282277.211    -9112888.604 9  -6420823.578 8
  20622698.742    20622703.654    -2803217.143 8   2786103.356 8
 86  6 19  0  7 59.0800000  0  4G 6G 8G 9G11
  20390000.908    20390005.045    -2051886.793 7  -1281382.998 8
  23115741.497    23115745.122     9866134.191 8   7849488.286 8
  21279446.021    21279449.093    -9127752.766 8  -6432406.047 9
  20623495.653    20623501.391    -2799029.608 7   2789366.354 7
 86  6 19  0  8  5.0800000  0  4G 6G 8G 9G11
  20390178.629    20390183.591    -2050946.776 8  -1280650.505 8
  23119748.346    23119753.333     9887199.247 7   7865902.601 9
  21276619.685    21276623.214    -9142605.957 8  -6443979.957 8
  20624297.158    20624299.815    -2794821.488 7   2792645.413 8
 86  6 19  0  8 11.0800000  0  4G 6G 8G 9G11
  20390362.162    20390366.178    -2049986.607 8  -1279902.324 8
  23123758.365    23123763.112     9908270.609 8   7882321.833 8
  21273794.853    21273798.473    -9157447.990 9  -6455545.179 8
  20625100.052    20625105.422    -2790592.772 9   2795940.534 8
 86  6 19  0  8 17.0800000  0  4G 6G 8G 9G11
  20390548.497    20390552.063    -2049006.229 8  -1279138.403 8
  23127769.569    23127774.053     9929348.278 7   7898745.979 8
  21270972.661    21270976.638    -9172278.852 9  -6467101.701 9
  20625908.011    20625913.109    -2786343.454 7   2799251.681 8
 86  6 19  0  8 23.0800000  0  4G 6G 8G 9G11
  20390739.410    20390742.994    -2048005.725 8  -1278358.783 8
  23131782.717    23131787.163     9950432.197 7   7915174.995 8
  21268152.816    21268156.612    -9187098.625 8  -6478649.557 9
  20626722.132    20626726.701    -2782073.634 8   2802578.817 8
 86  6 19  0  8 29.0800000  0  4G 6G 8G 9G11
  20390933.070    20390938.231    -2046985.152 7  -1277563.531 8
  23135796.408    23135800.090     9971522.244 8   7931608.799 8
  21265335.055    21265339.440    -9201907.312 9  -6490188.796 8
  20627537.507    20627542.031    -2777783.333 8   2805921.914 8
 86  6 19  0  8 35.0800000  0  4G 6G 8G 9G11
  20391131.588    20391136.024    -2045944.361 8  -1276752.528 7
  23139810.031    23139815.570     9992618.611 8   7948047.506 9
  21262519.789    21262522.173    -9216704.745 9  -6501719.258 8
  20628357.472    20628362.165    -2773472.535 7   2809280.979 8
 86  6 19  0  8 41.0800000  0  4G 6G 8G 9G11
  20391333.074    20391337.125    -2044883.405 8  -1275925.809 8
  23143825.290    23143831.428    10013721.191 8   7964491.071 8
  21259705.686    21259709.528    -9231490.928 9  -6513240.950 8
  20629181.562    20629187.682    -2769141.274 8   2812655.988 7
 86  6 19  0  8 47.0800000  0  4G 6G 8G 9G11
  20391539.314    20391543.323    -2043802.242 9  -1275083.345 7
  23147842.745    23147847.079    10034829.913 8   7980939.416 8
  21256895.199    21256897.227    -9246265.875 9  -6524753.903 7
  20630012.612    20630015.372    -2764789.507 7   2816046.972 7
 86  6 19  0  8 53.0800000  0  4G 6G 8G 9G11
  20391748.548    20391752.382    -2042700.798 8  -1274225.083 8
  23151861.092    23151865.060    10055944.844 7   7997392.597 8
  21254084.676    21254087.092    -9261029.565 9  -6536258.074 8
  20630842.196    20630848.121    -2760417.233 8   2819453.947 8
 86  6 19  0  8 59.0800000  0  4G 6G 8G 9G11
  20391961.350    20391965.732    -2041579.048 8  -1273350.996 8
  23155881.225    23155884.312    10077066.042 7   8013850.664 8
  21251276.500    21251279.457    -9275781.826 8  -6547753.333 7
  20631677.323    20631682.949    -2756024.336 8   2822876.987 8
 86  6 19  0  9  5.0800000  0  4G 6G 8G 9G11
  20392180.191    20392183.373    -2040436.920 8  -1272461.028 7
  23159900.443    23159905.716    10098193.417 7   8030313.535 9
  21248472.535    21248475.519    -9290522.646 9  -6559239.683 9
  20632517.453    20632523.470    -2751610.880 8   2826316.038 8
 86  6 19  0  9 11.0800000  0  4G 6G 8G 9G11
  20392401.448    20392404.526    -2039274.569 8  -1271555.294 8
  23163921.360    23163926.164    10119326.903 8   8046781.180 8
  21245669.599    21245671.721    -9305252.040 9  -6570717.129 8
  20633361.062    20633366.335    -2747176.985 7   2829771.011 8
 86  6 19  0  9 17.0800000  0  4G 6G 8G 9G11
  20392625.792    20392629.304    -2038092.029 7  -1270633.840 8
  23167945.408    23167949.090    10140466.373 8   8063253.486 9
  21242868.438    21242872.234    -9319970.144 8  -6582185.775 7
  20634209.295    20634214.089    -2742722.732 8   2833241.857 6
 86  6 19  0  9 23.0800000  0  4G 6G 8G 9G11
  20392855.209    20392859.348    -2036889.382 8  -1269696.705 8
  23171968.569    23171973.202    10161611.743 7   8079730.392 8
  21240069.923    21240071.444    -9334676.972 8  -6593645.640 8
  20635060.177    20635065.812    -2738248.199 8   2836728.519 8
 86  6 19  0  9 29.0800000  0  4G 6G 8G 9G11
  20393088.216    20393091.440    -2035666.562 7  -1268743.862 7
  23175993.671    23175997.370    10182762.962 8   8096211.846 8
  21237273.977    21237277.106    -9349372.564 9  -6605096.749 8
  20635915.899    20635920.824    -2733753.418 9   2840230.946 8
 86  6 19  0  9 35.0800000  0  4G 6G 8G 9G11
  20393324.195    20393327.359    -2034423.540 8  -1267775.275 8
  23180020.280    23180024.755    10203920.084 7   8112697.907 8
  21234479.633    21234482.949    -9364056.791 9  -6616539.005 8
  20636776.484    20636780.852    -2729238.302 8   2843749.219 7
 86  6 19  0  9 41.0800000  0  4G 6G 8G 9G11
  20393564.785    20393567.093    -2033160.278 8  -1266790.913 7
  23184048.089    23184052.123    10225083.137 7   8129188.598 7
  21231687.178    21231689.941    -9378729.655 8  -6627972.398 8
  20637638.726    20637643.450    -2724702.883 8   2847283.321 7
 86  6 19  0  9 47.0800000  0  4G 6G 8G 9G11
  20393807.968    20393812.418    -2031876.691 7  -1265790.727 7
  23188074.881    23188079.525    10246252.111 7   8145683.889 8
  21228897.185    21228900.512    -9393390.987 8  -6639396.814 7
  20638506.742    20638509.918    -2720147.135 7   2850833.249 7
 86  6 19  0  9 53.0800000  0  4G 6G 8G 9G11
  20394056.785    20394060.272    -2030572.722 8  -1264774.649 8
  23192103.812    23192108.822    10267427.085 8   8162183.853 9
  21226108.769    21226112.989    -9408040.782 8  -6650812.230 8
  20639376.328    20639381.213    -2715570.965 8   2854399.084 8
 86  6 19  0  9 59.0800000  0  4G 6G 8G 9G11
  20394308.700    20394312.745    -2029248.270 9  -1263742.613 7
  23196134.963    23196139.658    10288608.053 8   8178688.504 9
  21223323.583    21223326.703    -9422678.940 9  -6662218.584 8
  20640251.283    20640256.467    -2710974.361 8   2857980.856 7
 86  6 19  0 10  5.0800000  0  4G 6G 8G 9G11
  20394563.792    20394567.213    -2027903.406 7  -1262694.660 7
  23200167.540    23200171.731    10309794.953 7   8195197.762 8
  21220539.781    21220544.189    -9437305.402 8  -6673615.816 8
  20641130.449    20641135.578    -2706357.393 7   2861578.496 7
 86  6 19  0 10 11.0800000  0  4G 6G 8G 9G11
  20394825.283    20394828.697    -2026538.145 8  -1261630.822 7
  23204200.425    23204204.531    10330987.742 8   8211711.612 8
  21217758.929    21217762.545    -9451920.323 8  -6685004.059 8
  20642012.706    20642016.252    -2701720.063 8   2865191.989 6
 86  6 19  0 10 17.0800000  0  4G 6G 8G 9G11
  20395087.771    20395091.535    -2025152.452 8  -1260551.052 7
  23208233.777    23208238.670    10352186.404 8   8228230.045 7
  21214979.792    21214983.466    -9466523.523 9  -6696383.181 9
  20642898.713    20642903.850    -2697062.380 7   2868821.364 8
 86  6 19  0 10 23.0800000  0  4G 6G 8G 9G11
  20395355.966    20395358.337    -2023746.452 9  -1259455.473 8
  23212268.305    23212274.126    10373390.832 7   8244752.964 9
  21212202.845    21212207.399    -9481115.235 7  -6707753.339 8
  20643789.212    20643792.747    -2692384.496 7   2872466.464 8
 86  6 19  0 10 29.0800000  0  4G 6G 8G 9G11
  20395627.894    20395629.950    -2022320.209 8  -1258344.106 8
  23216304.082    23216309.690    10394600.893 7   8261280.269 8
  21209428.972    21209431.703    -9495695.344 8  -6719114.459 8
  20644683.450    20644686.756    -2687686.456 8   2876127.277 8
 86  6 19  0 10 35.0800000  0  4G 6G 8G 9G11
  20395903.489    20395905.510    -2020873.644 8  -1257216.931 7
  23220340.899    23220347.354    10415816.644 7   8277811.997 9
  21206657.019    21206660.409    -9510263.891 8  -6730466.567 8
  20645581.498    20645585.973    -2682968.242 8   2879803.805 7
 86  6 19  0 10 41.0800000  0  4G 6G 8G 9G11
  20396181.693    20396184.037    -2019406.718 8  -1256073.861 8
  23224381.003    23224385.683    10437038.038 7   8294348.138 9
  21203886.088    21203889.637    -9524820.777 9  -6741809.603 8
  20646483.499    20646487.005    -2678229.873 8   2883496.036 9
 86  6 19  0 10 47.0800000  0  4G 6G 8G 9G11
  20396464.815    20396467.456    -2017919.398 9  -1254914.922 7
  23228419.286    23228424.556    10458265.086 7   8310888.683 9
  21201118.424    21201121.531    -9539366.024 8  -6753143.557 8
  20647387.843    20647391.556    -2673471.424 8   2887203.923 9
 86  6 19  0 10 53.0800000  0  4G 6G 8G 9G11
  20396751.693    20396754.366    -2016411.782 7  -1253740.162 8
  23232460.021    23232464.893    10479497.727 6   8327433.608 8
  21198352.715    21198356.696    -9553899.621 8  -6764468.430 8
  20648297.179    20648301.800    -2668692.782 8   2890927.536 7
 86  6 19  0 10 59.0800000  0  4G 6G 8G 9G11
  20397041.647    20397046.355    -2014883.675 8  -1252549.425 8
  23236502.660    23236506.765    10500736.069 7   8343982.947 8
  21195589.159    21195592.597    -9568421.386 8  -6775784.090 8
  20649210.328    20649215.822    -2663893.916 8   2894666.907 7
 86  6 19  0 11  5.0800000  0  4G 6G 8G 9G11
  20397336.600    20397340.358    -2013335.115 8  -1251342.762 7
  23240544.878    23240548.677    10521980.022 7   8360536.665 8
  21192828.089    21192830.889    -9582931.372 9  -6787090.575 8
  20650127.910    20650132.785    -2659074.892 8   2898421.988 7
 86  6 19  0 11 11.0800000  0  4G 6G 8G 9G11
  20397635.507    20397638.617    -2011765.988 8  -1250120.064 7
  23244585.951    23244593.348    10543229.645 8   8377094.798 7
  21190068.719    21190073.192    -9597429.522 9  -6798387.831 8
  20651048.025    20651053.343    -2654235.669 8   2902192.814 7
 86  6 19  0 11 17.0800000  0  4G 6G 8G 9G11
  20397937.439    20397941.696    -2010176.379 8  -1248881.415 7
  23248631.543    23248638.219    10564484.911 7   8393657.342 8
  21187313.201    21187316.103    -9611915.726 9  -6809675.775 8
  20651974.973    20651978.003    -2649376.260 7   2905979.368 8
 86  6 19  0 11 23.0800000  0  4G 6G 8G 9G11
  20398244.212    20398249.485    -2008566.243 7  -1247626.751 8
  23252678.672    23252683.181    10585745.784 7   8410224.241 9
  21184556.627    21184561.692    -9626390.147 9  -6820954.543 8
  20652901.641    20652905.601    -2644496.671 8   2909781.635 8
 86  6 19  0 11 29.0800000  0  4G 6G 8G 9G11
  20398555.294    20398558.370    -2006935.540 8  -1246356.083 7
  23256725.363    23256730.794    10607012.242 8   8426795.489 9
  21181806.681    21181810.546    -9640852.573 8  -6832223.965 8
  20653833.976    20653839.284    -2639596.904 8   2913599.649 8
 86  6 19  0 11 35.0800000  0  4G 6G 8G 9G11
  20398868.297    20398872.740    -2005284.308 7  -1245069.405 9
  23260773.273    23260778.744    10628284.236 8   8443371.069 8
  21179055.908    21179059.554    -9655303.123 8  -6843484.133 8
  20654770.885    20654775.486    -2634677.005 9   2917433.338 7
 86  6 19  0 11 41.0800000  0  4G 6G 8G 9G11
  20399187.294    20399190.479    -2003612.579 8  -1243766.762 8
  23264820.940    23264826.912    10649561.701 6   8459950.902 8
  21176308.956    21176312.870    -9669741.730 9  -6854734.987 8
  20655711.073    20655715.341    -2629737.021 8   2921282.661 8
 86  6 19  0 11 47.0800000  0  4G 6G 8G 9G11
  20399508.246    20399512.147    -2001920.101 8  -1242447.941 7
  23268872.058    23268876.247    10670844.846 8   8476535.161 7
  21173561.852    21173567.000    -9684168.176 8  -6865976.369 7
  20656654.212    20656659.062    -2624776.798 8   2925147.768 7
 86  6 19  0 11 53.0800000  0  4G 6G 8G 9G11
  20399835.525    20399838.661    -2000207.144 9  -1241113.177 7
  23272923.632    23272928.273    10692133.418 8   8493123.645 8
  21170820.119    21170823.837    -9698582.612 8  -6877208.408 8
  20657603.001    20657607.810    -2619796.521 9   2929028.500 8
 86  6 19  0 11 59.0800000  0  4G 6G 8G 9G11
  20400165.875    20400168.338    -1998473.684 8  -1239762.441 7
  23276974.956    23276980.980    10713427.321 7   8509716.278 8
  21168078.884    21168082.741    -9712985.208 8  -6888431.191 8
  20658554.363    20658559.953    -2614796.222 8   2932924.835 8
 86  6 19  0 12  5.0800000  0  4G 6G 8G 9G11
  20400498.266    20400501.981    -1996719.754 8  -1238395.742 7
  23281029.288    23281032.638    10734726.555 7   8526313.096 8
  21165340.937    21165346.046    -9727375.778 8  -6899644.612 8
  20659507.822    20659513.154    -2609775.967 8   2936836.729 8
 86  6 19  0 12 11.0800000  0  4G 6G 8G 9G11
  20400835.922    20400839.532    -1994945.275 7  -1237013.039 7
  23285083.878    23285087.681    10756031.124 8   8542914.042 9
  21162604.697    21162608.633    -9741754.327 8  -6910848.680 8
  20660468.344    20660473.798    -2604735.715 8   2940764.198 6
 86  6 19  0 12 17.0800000  0  4G 6G 8G 9G11
  20401178.255    20401180.603    -1993150.281 8  -1235614.336 8
  23289138.047    23289142.510    10777340.964 8   8559519.115 8
  21159871.011    21159874.696    -9756120.912 8  -6922043.427 6
  20661431.191    20661435.471    -2599675.564 7   2944707.168 8
 86  6 19  0 12 23.0800000  0  4G 6G 8G 9G11
  20401523.577    20401526.436    -1991334.722 8  -1234199.622 8
  23293194.829    23293197.930    10798656.118 8   8576128.326 8
  21157138.887    21157143.439    -9770475.448 9  -6933228.772 8
  20662396.711    20662404.316    -2594595.446 8   2948665.706 8
 86  6 19  0 12 29.0800000  0  4G 6G 8G 9G11
  20401873.952    20401875.898    -1989498.547 8  -1232768.836 7
  23297251.333    23297256.280    10819976.559 8   8592741.644 8
  21154410.429    21154414.128    -9784817.928 8  -6944404.726 8
  20663367.324    20663373.583    -2589495.349 8   2952639.813 8
 86  6 19  0 12 35.0800000  0  4G 6G 8G 9G11
  20402225.688    20402228.983    -1987641.798 8  -1231322.012 7
  23301309.277    23301313.766    10841302.297 8   8609359.098 8
  21151684.043    21151686.904    -9799148.224 7  -6955571.190 7
  20664340.942    20664347.285    -2584375.317 7   2956629.445 7
 86  6 19  0 12 41.0800000  0  4G 6G 8G 9G11
  20402583.181    20402586.472    -1985764.420 8  -1229859.127 7
  23305369.390    23305373.679    10862633.250 9   8625980.605 8
  21148957.811    21148961.613    -9813466.421 8  -6966728.230 7
  20665319.696    20665325.156    -2579235.367 7   2960634.605 7
 86  6 19  0 12 47.0800000  0  4G 6G 8G 9G11
  20402944.210    20402947.723    -1983866.415 8  -1228380.165 8
  23309428.067    23309433.431    10883969.481 8   8642606.224 7
  21146236.240    21146240.234    -9827772.465 8  -6977875.785 8
  20666302.446    20666306.757    -2574075.449 8   2964655.320 7
 86  6 19  0 12 53.0800000  0  4G 6G 8G 9G11
  20403309.675    20403313.170    -1981947.762 8  -1226885.113 7
  23313490.028    23313493.058    10905310.913 8   8659235.901 8
  21143515.981    21143520.862    -9842066.248 8  -6989013.794 7
  20667287.880    20667292.048    -2568895.641 8   2968691.533 8
 86  6 19  0 12 59.0800000  0  4G 6G 8G 9G11
  20403679.474    20403682.589    -1980008.483 8  -1225373.986 7
  23317551.893    23317555.901    10926657.512 8   8675869.632 8
  21140799.618    21140802.645    -9856347.773 8  -7000142.254 8
  20668277.655    20668282.684    -2563695.929 8   2972743.256 7
 86  6 19  0 13  5.0800000  0  4G 6G 8G 9G11
  20404052.183    20404055.294    -1978048.523 8  -1223846.749 7
  23321615.509    23321620.393    10948009.263 8   8692507.334 8
  21138083.593    21138087.333    -9870617.120 8  -7011261.219 8
  20669271.572    20669275.971    -2558476.308 8   2976810.491 8
 86  6 19  0 13 11.0800000  0  4G 6G 8G 9G11
  20404429.415    20404431.986    -1976067.953 8  -1222303.444 8
  23325678.765    23325683.603    10969366.182 8   8709149.084 9
  21135369.563    21135374.340    -9884874.099 9  -7022370.554 8
  20670266.172    20670271.804    -2553236.811 8   2980893.223 8
 86  6 19  0 13 17.0800000  0  4G 6G 8G 9G11
  20404809.712    20404813.068    -1974066.623 8  -1220743.967 7
  23329744.796    23329748.684    10990728.251 8   8725794.846 7
  21132659.637    21132663.293    -9899118.787 8  -7033470.299 8
  20671268.130    20671273.381    -2547977.452 7   2984991.434 7
 86  6 19  0 13 23.0800000  0  4G 6G 8G 9G11
  20405194.163    20405198.807    -1972044.609 9  -1219168.379 8
  23333810.899    23333815.557    11012095.378 8   8742444.543 8
  21129950.812    21129953.842    -9913351.152 8  -7044560.446 8
  20672273.228    20672277.771    -2542698.222 9   2989105.114 7
 86  6 19  0 13 29.0800000  0  4G 6G 8G 9G11
  20405583.521    20405587.768    -1970001.921 8  -1217576.666 8
  23337877.159    23337881.994    11033467.575 8   8759098.198 8
  21127244.502    21127248.183    -9927571.187 8  -7055640.983 8
  20673281.531    20673285.635    -2537399.238 7   2993234.197 8
 86  6 19  0 13 35.0800000  0  4G 6G 8G 9G11
  20405976.885    20405980.205    -1967938.533 8  -1215968.833 8
  23341944.733    23341950.275    11054844.799 9   8775755.772 8
  21124541.331    21124546.883    -9941778.888 9  -7066711.931 8
  20674294.371    20674298.287    -2532080.460 8   2997378.701 7
 86  6 19  0 13 41.0800000  0  4G 6G 8G 9G11
  20406372.550    20406374.841    -1965854.451 8  -1214344.877 8
  23346014.250    23346018.985    11076227.022 9   8792417.246 7
  21121840.076    21121844.109    -9955974.278 9  -7077773.264 8
  20675309.734    20675313.228    -2526741.859 8   3001538.647 7
 86  6 19  0 13 47.0800000  0  4G 6G 8G 9G11
  20406772.955    20406775.825    -1963749.595 8  -1212704.733 7
  23350084.065    23350089.161    11097614.312 8   8809082.655 8
  21119141.120    21119145.771    -9970157.200 8  -7088824.898 8
  20676328.850    20676334.676    -2521383.453 7   3005714.028 7
 86  6 19  0 13 53.0800000  0  4G 6G 8G 9G11
  20407179.033    20407180.614    -1961623.928 8  -1211048.358 8
  23354155.070    23354160.544    11119006.621 8   8825751.981 8
  21116446.249    21116447.773    -9984327.575 8  -7099866.744 8
  20677352.983    20677356.093    -2516005.192 7   3009904.880 7
 86  6 19  0 13 59.0800000  0  4G 6G 8G 9G11
  20407586.907    20407589.359    -1959477.506 8  -1209375.838 7
  23358226.141    23358231.429    11140403.914 7   8842425.190 8
  21113750.054    21113754.039    -9998485.446 8  -7110898.852 8
  20678380.315    20678383.569    -2510607.166 8   3014111.157 7
 86  6 19  0 14  5.0800000  0  4G 6G 8G 9G11
  20407998.958    20408001.468    -1957310.324 8  -1207687.116 7
  23362299.044    23362306.423    11161806.136 8   8859102.238 8
  21111059.187    21111062.159   -10012630.918 9  -7121921.295 8
  20679409.938    20679415.139    -2505189.331 8   3018332.815 7
 86  6 19  0 14 11.0800000  0  4G 6G 8G 9G11
  20408414.652    20408418.396    -1955122.357 9  -1205982.217 9
  23366372.338    23366377.686    11183213.251 8   8875783.095 7
  21108368.958    21108373.172   -10026763.845 9  -7132933.950 8
  20680445.772    20680448.053    -2499751.831 7   3022569.837 7
 86  6 19  0 14 17.0800000  0  4G 6G 8G 9G11
  20408835.743    20408838.851    -1952913.682 8  -1204261.183 7
  23370446.126    23370451.445    11204625.182 9   8892467.715 7
  21105682.370    21105685.399   -10040884.325 8  -7143936.915 8
  20681485.485    20681489.159    -2494294.735 7   3026822.127 7
 86  6 19  0 14 23.0800000  0  4G 6G 8G 9G11
  20409259.914    20409263.308    -1950684.328 8  -1202524.022 8
  23374522.385    23374527.904    11226041.872 9   8909156.037 7
  21102997.026    21103001.784   -10054992.467 8  -7154930.276 8
  20682527.416    20682530.316    -2488818.043 7   3031089.679 7
 86  6 19  0 14 29.0800000  0  4G 6G 8G 9G11
  20409687.328    20409690.149    -1948434.241 8  -1200770.704 7
  23378599.935    23378604.279    11247463.321 9   8925848.081 8
  21100315.083    21100318.465   -10069088.007 8  -7165913.810 8
  20683573.594    20683577.051    -2483321.786 8   3035372.472 7
 86  6 19  0 14 35.0800000  0  4G 6G 8G 9G11
  20410119.053    20410122.907    -1946163.445 7  -1199001.261 8
  23382676.218    23382682.324    11268889.485 8   8942543.775 8
  21097635.919    21097638.688   -10083170.957 8  -7176887.538 8
  20684622.098    20684625.754    -2477805.924 7   3039670.534 7
 86  6 19  0 14 41.0800000  0  4G 6G 8G 9G11
  20410555.312    20410560.023    -1943871.839 8  -1197215.591 8
  23386755.660    23386759.671    11290320.444 8   8959243.222 8
  21094959.436    21094960.574   -10097241.359 9  -7187851.483 8
  20685675.561    20685678.822    -2472270.425 7   3043983.922 7
 86  6 19  0 14 47.0800000  0  4G 6G 8G 9G11
  20410995.344    20410998.222    -1941559.455 8  -1195413.740 8
  23390833.396    23390839.920    11311756.112 8   8975946.334 7
  21092282.784    21092286.314   -10111299.105 8  -7198805.577 7
  20686732.314    20686736.683    -2466715.331 8   3048312.549 7
 86  6 19  0 14 53.0800000  0  4G 6G 8G 9G11
  20411438.925    20411443.559    -1939226.211 8  -1193595.630 9
  23394914.312    23394919.373    11333196.552 8   8992653.165 7
  21089609.486    21089613.759   -10125344.252 8  -7209749.838 9
  20687793.500    20687797.803    -2461140.633 8   3052656.467 7
 86  6 19  0 14 59.0800000  0  4G 6G 8G 9G11
  20411887.981    20411890.191    -1936872.093 8  -1191761.257 8
  23398995.101    23399001.402    11354641.744 8   9009363.691 8
  21086939.206    21086943.943   -10139376.636 9  -7220684.154 7
  20688857.131    20688862.435    -2455546.346 7   3057015.655 7
 86  6 19  0 15  5.0800000  0  4G 6G 8G 9G11
  20412338.630    20412343.322    -1934497.106 8  -1189910.626 7
  23403076.361    23403081.096    11376091.714 7   9026077.940 8
  21084272.158    21084275.715   -10153396.332 9  -7231608.593 8
  20689925.743    20689930.235    -2449932.492 7   3061390.085 7
 86  6 19  0 15 11.0800000  0  4G 6G 8G 9G11
  20412795.286    20412799.353    -1932101.317 8  -1188043.774 7
  23407158.255    23407164.333    11397546.313 8   9042795.796 8
  21081605.426    21081610.746   -10167403.303 8  -7242523.109 8
  20690997.168    20691003.159    -2444299.041 6   3065779.789 6
 86  6 19  0 15 17.0800000  0  4G 6G 8G 9G11
  20413254.930    20413257.687    -1929684.647 8  -1186160.647 8
  23411243.455    23411246.986    11419005.516 8   9059517.241 7
  21078943.453    21078948.055   -10181397.397 8  -7253427.594 8
  20692075.093    20692077.693    -2438646.028 8   3070184.731 7
 86  6 19  0 15 23.0800000  0  4G 6G 8G 9G11
  20413719.390    20413723.894    -1927247.143 8  -1184261.294 9
  23415327.273    23415332.890    11440469.246 8   9076242.228 8
  21076283.035    21076286.182   -10195378.836 9  -7264322.234 8
  20693153.377    20693157.704    -2432973.581 8   3074604.826 8
 86  6 19  0 15 29.0800000  0  4G 6G 8G 9G11
  20414186.843    20414191.096    -1924788.793 9  -1182345.705 8
  23419412.441    23419416.058    11461937.598 9   9092970.800 8
  21073624.752    21073627.592   -10209347.568 8  -7275206.939 9
  20694235.599    20694241.691    -2427281.606 8   3079040.123 7
 86  6 19  0 15 35.0800000  0  4G 6G 8G 9G11
  20414658.245    20414662.502    -1922309.603 8  -1180413.857 7
  23423498.752    23423503.055    11483410.483 8   9109702.931 7
  21070969.817    21070972.851   -10223303.474 9  -7286081.671 8
  20695323.292    20695328.313    -2421570.104 8   3083490.631 7
 86  6 19  0 15 41.0800000  0  4G 6G 8G 9G11
  20415135.043    20415139.117    -1919809.533 9  -1178465.769 8
  23427585.680    23427591.031    11504887.866 9   9126438.531 7
  21068316.119    21068319.413   -10237246.584 8  -7296946.436 8
  20696414.073    20696417.880    -2415839.188 7   3087956.284 7
 86  6 19  0 15 47.0800000  0  4G 6G 8G 9G11
  20415614.291    20415618.717    -1917288.620 8  -1176501.429 8
  23431673.562    23431678.034    11526369.757 8   9143177.661 7
  21065664.132    21065667.893   -10251176.786 9  -7307801.136 8
  20697507.696    20697512.161    -2410088.840 8   3092437.079 6
 86  6 19  0 15 53.0800000  0  4G 6G 8G 9G11
  20416098.040    20416101.318    -1914746.819 8  -1174520.800 7
  23435763.143    23435767.229    11547856.125 9   9159920.279 8
  21063017.377    21063020.292   -10265094.218 8  -7318645.902 9
  20698605.368    20698609.839    -2404319.068 8   3096932.990 7
 86  6 19  0 15 59.0800000  0  4G 6G 8G 9G11
  20416585.125    20416590.494    -1912184.084 9  -1172523.869 7
  23439851.643    23439858.370    11569346.966 8   9176666.381 8
  21060371.395    21060374.691   -10278998.774 8  -7329480.603 9
  20699707.179    20699711.101    -2398529.854 8   3101444.067 7
 86  6 19  0 16  5.0800000  0  4G 6G 8G 9G11
  20417076.470    20417080.392    -1909600.312 8  -1170510.537 7
  23443942.735    23443946.953    11590842.358 7   9193416.025 8
  21057728.544    21057730.017   -10292890.197 7  -7340305.081 8
  20700813.185    20700815.933    -2392721.150 8   3105970.334 7
 86  6 19  0 16 11.0800000  0  4G 6G 8G 9G11
  20417572.484    20417576.273    -1906995.530 8  -1168480.835 7
  23448034.661    23448038.678    11612342.273 7   9210169.201 7
  21055086.534    21055090.700   -10306768.609 9  -7351119.433 8
  20701922.501    20701925.258    -2386892.935 8   3110511.787 8
 86  6 19  0 16 17.0800000  0  4G 6G 8G 9G11
  20418072.194    20418076.197    -1904369.636 8  -1166434.689 8
  23452125.739    23452131.261    11633846.725 7   9226925.909 8
  21052448.707    21052451.119   -10320633.885 8  -7361923.546 8
  20703034.753    20703038.216    -2381045.222 7   3115068.453 6
 86  6 19  0 16 23.0800000  0  4G 6G 8G 9G11
  20418576.842    20418580.264    -1901722.649 7  -1164372.095 7
  23456217.798    23456223.908    11655355.695 8   9243686.129 8
  21049812.470    21049815.954   -10334486.137 9  -7372717.503 8
  20704151.372    20704155.648    -2375178.014 7   3119640.298 7
 86  6 19  0 16 29.0800000  0  4G 6G 8G 9G11
  20419084.369    20419088.093    -1899054.716 8  -1162293.195 8
  23460312.560    23460317.550    11676869.073 8   9260449.788 8
  21047178.638    21047182.757   -10348325.244 7  -7383501.229 8
  20705271.142    20705275.267    -2369291.448 7   3124227.240 7
 86  6 19  0 16 35.0800000  0  4G 6G 8G 9G11
  20419596.409    20419599.039    -1896365.870 9  -1160197.993 7
  23464407.207    23464412.841    11698386.734 8   9277216.788 8
  21044547.336    21044550.408   -10362151.363 9  -7394274.821 9
  20706394.556    20706399.246    -2363385.620 8   3128829.180 8
 86  6 19  0 16 41.0800000  0  4G 6G 8G 9G11
  20420111.234    20420115.766    -1893656.104 8  -1158086.487 7
  23468501.914    23468507.502    11719908.588 8   9293987.071 8
  21041919.135    21041921.561   -10375964.536 8  -7405038.345 8
  20707523.050    20707526.837    -2357460.567 7   3133446.103 7
 86  6 19  0 16 47.0800000  0  4G 6G 8G 9G11
  20420630.837    20420633.028    -1890925.380 8  -1155958.665 8
  23472599.674    23472604.533    11741434.703 7   9310760.646 7
  21039292.836    21039296.191   -10389764.656 9  -7415791.673 8
  20708654.444    20708657.894    -2351516.288 8   3138078.020 7
 86  6 19  0 16 53.0800000  0  4G 6G 8G 9G11
  20421153.989    20421158.496    -1888173.808 8  -1153814.590 8
  23476696.176    23476701.833    11762964.953 7   9327537.461 8
  21036669.006    21036672.710   -10403551.735 8  -7426534.843 8
  20709788.639    20709793.480    -2345552.844 9   3142724.851 7
 86  6 19  0 16 59.0800000  0  4G 6G 8G 9G11
  20421682.040    20421685.091    -1885401.273 8  -1151654.168 8
  23480794.818    23480798.675    11784499.400 7   9344317.552 8
  21034048.561    21034051.432   -10417325.813 8  -7437267.907 8
  20710927.965    20710931.452    -2339570.186 8   3147386.665 8
 86  6 19  0 17  5.0800000  0  4G 6G 8G 9G11
  20422215.176    20422217.002    -1882607.830 8  -1149477.454 7
  23484892.713    23484897.245    11806037.921 7   9361100.796 8
  21031429.430    21031432.970   -10431086.840 9  -7447990.777 8
  20712069.089    20712074.481    -2333568.340 8   3152063.406 8
 86  6 19  0 17 11.0800000  0  4G 6G 8G 9G11
  20422749.015    20422753.295    -1879793.409 8  -1147284.392 7
  23488992.657    23488996.868    11827580.653 7   9377887.333 8
  21028814.209    21028817.270   -10444834.664 9  -7458703.364 8
  20713214.755    20713219.357    -2327547.291 8   3156755.146 7
 86  6 19  0 17 17.0800000  0  4G 6G 8G 9G11
  20423289.081    20423291.590    -1876957.961 8  -1145074.965 7
  23493092.621    23493097.986    11849127.599 7   9394677.148 8
  21026199.521    21026203.643   -10458569.287 8  -7469405.671 8
  20714364.755    20714370.093    -2321506.999 8   3161461.875 7
 86  6 19  0 17 23.0800000  0  4G 6G 8G 9G11
  20423832.606    20423835.722    -1874101.381 9  -1142849.056 7
  23497194.051    23497198.096    11870678.683 7   9411470.197 8
  21023588.466    21023591.642   -10472290.638 9  -7480097.630 8
  20715516.093    20715521.832    -2315447.523 8   3166183.546 7
 86  6 19  0 17 29.0800000  0  4G 6G 8G 9G11
  20424378.988    20424383.032    -1871223.834 8  -1140606.821 8
  23501295.887    23501300.685    11892233.839 7   9428266.415 9
  21020980.289    21020983.647   -10485998.804 9  -7490779.308 8
  20716674.107    20716678.567    -2309368.897 8   3170920.141 8
 86  6 19  0 17 35.0800000  0  4G 6G 8G 9G11
  20424931.506    20424935.306    -1868325.286 8  -1138348.209 7
  23505397.428    23505402.506    11913793.090 7   9445065.828 9
  21018374.308    21018378.060   -10499693.673 9  -7501450.629 8
  20717835.119    20717839.309    -2303271.150 7   3175671.631 6
 86  6 19  0 17 41.0800000  0  4G 6G 8G 9G11
  20425487.312    20425491.306    -1865405.670 7  -1136073.185 7
  23509499.561    23509506.978    11935356.447 9   9461868.422 8
  21015770.846    21015774.945   -10513375.223 8  -7512111.577 8
  20718997.694    20719002.846    -2297154.201 8   3180438.090 7
 86  6 19  0 17 47.0800000  0  4G 6G 8G 9G11
  20426046.492    20426050.689    -1862464.980 8  -1133781.738 7
  23513605.180    23513609.910    11956923.830 7   9478674.174 9
  21013169.810    21013173.973   -10527043.473 9  -7522762.176 8
  20720166.790    20720171.591    -2291018.069 8   3185219.475 7
 86  6 19  0 17 53.0800000  0  4G 6G 8G 9G11
  20426610.237    20426614.262    -1859503.174 8  -1131473.839 7
  23517709.219    23517715.412    11978495.289 7   9495483.097 8
  21010571.464    21010574.941   -10540698.378 8  -7533402.341 9
  20721337.490    20721341.798    -2284862.839 7   3190015.761 8
 86  6 19  0 17 59.0800000  0  4G 6G 8G 9G11
  20427178.034    20427180.939    -1856520.307 8  -1129149.533 7
  23521815.300    23521820.616    12000070.753 8   9512295.132 8
  21007975.568    21007979.512   -10554339.901 8  -7544032.111 9
  20722512.586    20722516.906    -2278688.437 8   3194826.997 7
 86  6 19  0 18  5.0800000  0  4G 6G 8G 9G11
  20427749.837    20427753.083    -1853516.278 8  -1126808.745 7
  23525922.029    23525927.280    12021650.275 7   9529110.331 8
  21005382.341    21005385.779   -10567968.057 9  -7554651.448 8
  20723691.949    20723695.382    -2272494.869 8   3199653.140 8
 86  6 19  0 18 11.0800000  0  4G 6G 8G 9G11
  20428325.533    20428327.991    -1850491.113 9  -1124451.460 7
  23530029.254    23530034.184    12043233.804 6   9545928.645 8
  21002790.931    21002794.346   -10581582.715 8  -7565260.278 9
  20724872.057    20724879.745    -2266282.209 8   3204494.169 8
 86  6 19  0 18 17.0800000  0  4G 6G 8G 9G11
  20428905.571    20428908.750    -1847444.743 8  -1122077.679 8
  23534138.210    23534142.982    12064821.321 7   9562750.080 8
  21000202.932    21000206.322   -10595183.901 8  -7575858.590 9
  20726058.971    20726063.751    -2260050.424 7   3209350.128 7
 86  6 19  0 18 23.0800000  0  4G 6G 8G 9G11
  20429489.336    20429491.688    -1844377.204 8  -1119687.377 8
  23538244.027    23538251.363    12086412.810 7   9579574.617 8
  20997617.270    20997621.312   -10608771.580 8  -7586446.397 8
  20727248.743    20727252.619    -2253799.557 8   3214220.925 7
 86  6 19  0 18 29.0800000  0  4G 6G 8G 9G11
  20430076.660    20430078.914    -1841288.555 8  -1117280.644 8
  23542356.803    23542361.146    12108008.275 6   9596402.236 8
  20995034.137    20995038.008   -10622345.755 8  -7597023.679 9
  20728441.169    20728446.721    -2247529.654 8   3219106.561 7
 86  6 19  0 18 35.0800000  0  4G 6G 8G 9G11
  20430668.618    20430671.363    -1838178.681 8  -1114857.362 7
  23546465.656    23546470.913    12129607.609 7   9613232.865 7
  20992453.926    20992456.698   -10635906.282 8  -7607590.325 8
  20729638.724    20729644.179    -2241240.693 8   3224007.061 8
 86  6 19  0 18 41.0800000  0  4G 6G 8G 9G11
  20431263.987    20431267.286    -1835047.581 9  -1112417.562 8
  23550577.806    23550582.315    12151210.891 7   9630066.586 7
  20989876.401    20989880.086   -10649453.290 9  -7618146.433 8
  20730839.303    20730843.910    -2234932.695 8   3228922.385 7
 86  6 19  0 18 47.0800000  0  4G 6G 8G 9G11
  20431864.013    20431867.100    -1831895.324 7  -1109961.251 7
  23554689.435    23554693.318    12172818.063 7   9646903.332 9
  20987300.403    20987304.639   -10662986.620 9  -7628691.898 8
  20732044.598    20732047.791    -2228605.644 7   3233852.552 8
 86  6 19  0 18 53.0800000  0  4G 6G 8G 9G11
  20432467.583    20432471.250    -1828721.784 8  -1107488.361 8
  23558799.490    23558806.535    12194429.130 6   9663743.107 8
  20984728.539    20984731.673   -10676506.346 8  -7639226.741 8
  20733251.231    20733255.399    -2222259.568 7   3238797.556 8
 86  6 19  0 18 59.0800000  0  4G 6G 8G 9G11
  20433075.658    20433079.791    -1825527.109 8  -1104999.005 8
  23562914.265    23562920.268    12216044.010 7   9680585.866 7
  20982157.737    20982162.393   -10690012.420 9  -7649750.956 8
  20734462.030    20734467.149    -2215894.546 7   3243757.311 8
 86  6 19  0 19  5.0800000  0  4G 6G 8G 9G11
  20433688.672    20433692.506    -1822311.218 8  -1102493.114 9
  23567028.781    23567033.342    12237662.690 8   9697431.573 8
  20979589.712    20979593.951   -10703504.913 8  -7660264.582 8
  20735678.413    20735681.895    -2209510.548 8   3248731.851 7
 86  6 19  0 19 11.0800000  0  4G 6G 8G 9G11
  20434303.796    20434306.888    -1819074.168 8  -1099970.742 7
  23571142.133    23571148.139    12259285.087 7   9714280.183 8
  20977025.135    20977029.112   -10716983.695 9  -7670767.528 8
  20736894.423    20736899.683    -2203107.658 8   3253721.112 7
 86  6 19  0 19 17.0800000  0  4G 6G 8G 9G11
  20434923.936    20434927.385    -1815815.874 8  -1097431.810 7
  23575257.897    23575263.245    12280911.199 8   9731131.703 8
  20974463.023    20974466.535   -10730448.918 9  -7681259.906 9
  20738117.209    20738121.021    -2196685.870 8   3258725.106 7
 86  6 19  0 19 23.0800000  0  4G 6G 8G 9G11
  20435547.854    20435550.469    -1812536.477 8  -1094876.445 7
  23579375.854    23579379.931    12302540.982 7   9747986.052 8
  20971903.230    20971907.054   -10743900.428 9  -7691741.607 9
  20739343.344    20739348.156    -2190245.229 8   3263743.795 6
 86  6 19  0 19 29.0800000  0  4G 6G 8G 9G11
  20436175.798    20436180.573    -1809235.917 9  -1092304.572 7
  23583491.781    23583495.856    12324174.342 8   9764843.206 9
  20969346.076    20969349.598   -10757338.286 9  -7702212.668 8
  20740573.081    20740576.305    -2183785.799 8   3268777.107 8
 86  6 19  0 19 35.0800000  0  4G 6G 8G 9G11
  20436808.808    20436811.727    -1805914.194 8  -1089716.216 9
  23587608.272    23587613.509    12345811.315 8   9781703.179 9
  20966790.610    20966795.666   -10770762.465 9  -7712673.056 8
  20741804.711    20741808.317    -2177307.624 7   3273825.042 7
 86  6 19  0 19 41.0800000  0  4G 6G 8G 9G11
  20437444.729    20437449.111    -1802571.335 8  -1087111.393 7
  23591726.063    23591731.414    12367451.893 7   9798565.949 8
  20964238.873    20964243.598   -10784172.991 9  -7723122.820 9
  20743042.380    20743045.232    -2170810.597 8   3278887.644 6
 86  6 19  0 19 47.0800000  0  4G 6G 8G 9G11
  20438085.127    20438087.411    -1799207.210 8  -1084490.002 8
  23595845.253    23595849.405    12389096.000 8   9815431.479 9
  20961690.095    20961694.374   -10797569.674 8  -7733561.794 8
  20744280.684    20744283.703    -2164294.739 8   3283964.936 7
 86  6 19  0 19 53.0800000  0  4G 6G 8G 9G11
  20438728.018    20438732.734    -1795821.876 8  -1081852.075 7
  23599964.953    23599970.023    12410743.727 6   9832299.831 9
  20959143.323    20959147.741   -10810952.545 9  -7743990.008 7
  20745524.210    20745528.717    -2157760.139 7   3289056.834 7
 86  6 19  0 19 59.0800000  0  4G 6G 8G 9G11
  20439377.109    20439379.959    -1792415.350 8  -1079197.644 8
  23604084.950    23604089.181    12432395.008 8   9849170.947 8
  20956599.845    20956603.255   -10824321.664 9  -7754407.493 8
  20746770.786    20746775.238    -2151206.797 8   3294163.351 7
 86  6 19  0 20  5.0800000  0  4G 6G 8G 9G11
  20440029.518    20440032.211    -1788987.563 7  -1076526.642 8
  23608204.252    23608210.555    12454049.818 7   9866044.816 9
  20954057.864    20954062.628   -10837676.919 8  -7764814.190 8
  20748022.856    20748024.746    -2144634.655 7   3299284.483 6
 86  6 19  0 20 11.0800000  0  4G 6G 8G 9G11
  20440686.710    20440688.377    -1785538.451 8  -1073839.017 7
  23612326.177    23612332.850    12475708.214 7   9882921.465 9
  20951519.135    20951523.371   -10851018.205 8  -7775209.999 8
  20749275.979    20749280.079    -2138043.796 7   3304420.215 6
 86  6 19  0 20 17.0800000  0  4G 6G 8G 9G11
  20441345.686    20441350.147    -1782068.049 8  -1071134.817 8
  23616449.139    23616454.590    12497370.103 7   9899800.847 8
  20948981.497    20948986.631   -10864345.537 8  -7785594.925 7
  20750534.104    20750538.420    -2131434.161 8   3309570.582 7
 86  6 19  0 20 23.0800000  0  4G 6G 8G 9G11
  20442009.975    20442014.057    -1778576.321 7  -1068413.998 8
  23620571.266    23620576.548    12519035.509 8   9916682.974 8
  20946448.888    20946453.972   -10877658.957 8  -7795969.017 8
  20751794.941    20751800.473    -2124805.737 8   3314735.593 7
 86  6 19  0 20 29.0800000  0  4G 6G 8G 9G11
  20442678.317    20442682.400    -1775063.308 8  -1065676.578 8
  23624695.813    23624700.737    12540704.408 6   9933567.816 8
  20943918.849    20943923.037   -10890958.420 8  -7806332.235 8
  20753060.845    20753062.592    -2118158.540 7   3319915.218 7
 86  6 19  0 20 35.0800000  0  4G 6G 8G 9G11
  20443351.818    20443355.074    -1771528.956 9  -1062922.541 8
  23628820.163    23628825.842    12562376.752 7   9950455.361 8
  20941390.771    20941394.548   -10904243.847 8  -7816684.522 8
  20754329.632    20754332.857    -2111492.694 8   3325109.383 7
 86  6 19  0 20 41.0800000  0  4G 6G 8G 9G11
  20444028.692    20444032.009    -1767973.232 9  -1060151.856 7
  23632944.258    23632949.935    12584052.567 8   9967345.583 8
  20938865.676    20938869.407   -10917515.220 8  -7827025.851 8
  20755601.031    20755603.855    -2104808.090 7   3330318.182 7
 86  6 19  0 20 47.0800000  0  4G 6G 8G 9G11
  20444708.677    20444711.981    -1764396.173 8  -1057364.537 7
  23637069.504    23637075.286    12605731.836 8   9984238.509 8
  20936341.622    20936346.320   -10930772.565 8  -7837356.245 8
  20756875.070    20756880.387    -2098104.748 8   3335541.543 8
 86  6 19  0 20 53.0800000  0  4G 6G 8G 9G11
  20445393.834    20445397.098    -1760797.798 8  -1054560.611 8
  23641194.540    23641200.535    12627414.507 8  10001134.084 9
  20933821.577    20933827.246   -10944015.769 8  -7847675.632 8
  20758155.227    20758158.588    -2091382.772 8   3340779.446 7
 86  6 19  0 20 59.0800000  0  4G 6G 8G 9G11
  20446082.875    20446085.930    -1757178.121 8  -1051740.078 7
  23645323.341    23645327.358    12649100.448 8  10018032.221 9
  20931304.822    20931309.283   -10957245.075 8  -7857984.175 7
  20759438.184    20759443.353    -2084642.238 8   3346031.811 7
 86  6 19  0 21  5.0800000  0  4G 6G 8G 9G11
  20446774.197    20446778.857    -1753537.082 8  -1048902.915 8
  23649448.520    23649454.650    12670789.710 7  10034932.923 8
  20928789.352    20928793.462   -10970460.233 9  -7868281.698 7
  20760725.825    20760728.548    -2077883.121 7   3351298.661 7
 86  6 19  0 21 11.0800000  0  4G 6G 8G 9G11
  20447471.693    20447474.941    -1749874.800 8  -1046049.194 7
  23653576.313    23653583.006    12692482.184 8  10051836.151 8
  20926277.708    20926282.664   -10983661.312 7  -7878568.261 8
  20762013.960    20762018.568    -2071105.476 8   3356579.939 7
 86  6 19  0 21 17.0800000  0  4G 6G 8G 9G11
  20448172.541    20448177.268    -1746191.237 8  -1043178.881 7
  23657705.594    23657711.671    12714177.921 8  10068741.901 9
  20923767.233    20923772.919   -10996848.321 8  -7888843.846 8
  20763306.849    20763311.912    -2064309.316 9   3361875.639 7
 86  6 19  0 21 23.0800000  0  4G 6G 8G 9G11
  20448877.645    20448881.078    -1742486.430 8  -1040292.019 7
  23661834.943    23661840.474    12735876.834 8  10085650.130 9
  20921261.147    20921265.343   -11010021.296 8  -7899108.493 8
  20764605.193    20764608.047    -2057494.745 9   3367185.695 7
 86  6 19  0 21 29.0800000  0  4G 6G 8G 9G11
  20449587.876    20449591.642    -1738760.382 8  -1037388.613 8
  23665965.607    23665969.781    12757578.827 8  10102560.779 8
  20918757.595    20918761.515   -11023180.199 8  -7909362.182 8
  20765904.911    20765908.563    -2050661.741 8   3372510.123 8
 86  6 19  0 21 35.0800000  0  4G 6G 8G 9G11
  20450299.966    20450303.723    -1735013.080 8  -1034468.629 8
  23670096.021    23670101.297    12779283.932 8  10119473.835 8
  20916255.852    20916261.672   -11036324.976 9  -7919604.871 8
  20767207.973    20767212.978    -2043810.327 8   3377848.879 7
 86  6 19  0 21 41.0800000  0  4G 6G 8G 9G11
  20451017.867    20451020.771    -1731244.479 9  -1031532.070 8
  23674226.589    23674232.967    12800992.156 8  10136389.327 9
  20913757.410    20913761.546   -11049455.735 7  -7929836.634 8
  20768516.187    20768519.881    -2036940.521 8   3383201.960 7
 86  6 19  0 21 47.0800000  0  4G 6G 8G 9G11
  20451738.740    20451742.344    -1727454.539 8  -1028578.863 9
  23678358.412    23678362.491    12822703.495 9  10153307.235 7
  20911261.283    20911265.387   -11062572.203 8  -7940057.257 8
  20769826.860    20769831.368    -2030052.262 7   3388569.445 7
 86  6 19  0 21 53.0800000  0  4G 6G 8G 9G11
  20452464.980    20452468.710    -1723643.196 8  -1025608.999 8
  23682491.155    23682495.106    12844418.003 8  10170227.631 8
  20908768.112    20908773.012   -11075674.332 8  -7950266.708 8
  20771140.922    20771145.792    -2023145.506 8   3393951.331 7
 86  6 19  0 21 59.0800000  0  4G 6G 8G 9G11
  20453193.703    20453196.547    -1719810.452 8  -1022622.437 7
  23686622.814    23686628.631    12866135.654 8  10187150.481 9
  20906278.205    20906282.072   -11088762.041 8  -7960464.919 8
  20772459.127    20772462.694    -2016220.240 8   3399347.641 7
 86  6 19  0 22  5.0800000  0  4G 6G 8G 9G11
  20453926.562    20453931.226    -1715956.288 8  -1019619.201 9
  23690755.607    23690761.527    12887856.469 7  10204075.768 9
  20903789.028    20903794.419   -11101835.573 8  -7970652.077 8
  20773779.327    20773783.911    -2009276.547 8   3404758.313 7
 86  6 19  0 22 11.0800000  0  4G 6G 8G 9G11
  20454664.331    20454668.204    -1712080.655 8  -1016599.235 7
  23694889.815    23694895.046    12909580.376 9  10221003.489 7
  20901305.332    20901309.030   -11114894.693 8  -7980828.022 8
  20775104.023    20775108.808    -2002314.419 7   3410183.342 8
 86  6 19  0 22 17.0800000  0  4G 6G 8G 9G11
  20455405.066    20455409.169    -1708183.591 8  -1013562.560 8
  23699024.983    23699030.637    12931307.364 9  10237933.593 7
  20898822.693    20898826.146   -11127939.374 9  -7990992.696 8
  20776433.508    20776437.493    -1995333.838 7   3415622.760 9
 86  6 19  0 22 23.0800000  0  4G 6G 8G 9G11
  20456151.339    20456154.969    -1704265.089 8  -1010509.179 7
  23703160.140    23703165.107    12953037.422 8  10254866.091 8
  20896343.712    20896346.766   -11140969.621 7  -8001146.135 9
  20777765.404    20777769.629    -1988334.852 8   3421076.522 8
 86  6 19  0 22 29.0800000  0  4G 6G 8G 9G11
  20456901.235    20456904.264    -1700325.098 8  -1007439.068 8
  23707295.087    23707299.639    12974770.537 8  10271800.986 8
  20893866.263    20893869.605   -11153985.371 8  -8011288.291 8
  20779100.634    20779103.914    -1981317.413 8   3426544.642 7
 86  6 19  0 22 35.0800000  0  4G 6G 8G 9G11
  20457653.690    20457657.955    -1696363.604 8  -1004352.197 8
  23711432.112    23711437.634    12996506.700 8  10288738.254 8
  20891392.268    20891394.242   -11166986.754 8  -8021419.230 7
  20780439.543    20780442.615    -1974281.567 8   3432027.129 8
 86  6 19  0 22 41.0800000  0  4G 6G 8G 9G11
  20458413.737    20458416.629    -1692380.692 7  -1001248.634 7
  23715568.127    23715572.699    13018245.839 8  10305677.848 7
  20888920.561    20888924.807   -11179973.651 9  -8031538.879 7
  20781781.780    20781787.642    -1967227.393 8   3437523.884 9
 86  6 19  0 22 47.0800000  0  4G 6G 8G 9G11
  20459175.681    20459179.381    -1688376.368 8   -998128.380 8
  23719705.781    23719711.672    13039987.889 8  10322619.693 8
  20886452.704    20886456.162   -11192946.039 8  -8041647.227 7
  20783127.772    20783132.552    -1960154.974 7   3443034.863 6
 86  6 19  0 22 53.0800000  0  4G 6G 8G 9G11
  20459941.518    20459945.051    -1684350.600 9   -994991.421 8
  23723844.025    23723849.370    13061732.865 8  10339563.819 8
  20883985.760    20883991.144   -11205903.955 9  -8051744.313 7
  20784477.138    20784480.925    -1953064.289 9   3448560.069 7
 86  6 19  0 22 59.0800000  0  4G 6G 8G 9G11
  20460710.269    20460714.579    -1680303.360 8   -991837.731 9
  23727982.756    23727987.880    13083480.711 8  10356510.194 7
  20881523.854    20881526.896   -11218847.295 8  -8061830.026 9
  20785829.052    20785834.098    -1945955.311 9   3454099.529 8
 86  6 19  0 23  5.0800000  0  4G 6G 8G 9G11
  20461484.817    20461489.978    -1676234.696 8   -988667.341 7
  23732121.598    23732126.419    13105231.429 9  10373458.795 7
  20879063.115    20879066.205   -11231776.217 8  -8071904.508 8
  20787186.308    20787190.219    -1938828.091 8   3459653.202 8
 86  6 19  0 23 11.0800000  0  4G 6G 8G 9G11
  20462263.826    20462267.131    -1672144.671 8   -985480.302 8
  23736262.455    23736266.578    13126984.918 8  10390409.562 8
  20876606.106    20876609.605   -11244690.545 8  -8081967.621 8
  20788546.515    20788549.983    -1931682.739 9   3465221.010 8
 86  6 19  0 23 17.0800000  0  4G 6G 8G 9G11
  20463045.598    20463049.443    -1668033.170 8   -982276.549 7
  23740400.977    23740406.714    13148741.232 9  10407362.524 8
  20874150.687    20874154.109   -11257590.378 8  -8092019.428 8
  20789909.332    20789913.581    -1924519.188 9   3470802.995 7
 86  6 19  0 23 23.0800000  0  4G 6G 8G 9G11
  20463832.207    20463836.765    -1663900.208 8   -979056.057 7
  23744541.794    23744547.142    13170500.317 9  10424317.655 8
  20871698.940    20871702.256   -11270475.619 8  -8102059.881 7
  20791275.865    20791281.016    -1917337.467 9   3476399.162 9
 86  6 19  0 23 29.0800000  0  4G 6G 8G 9G11
  20464623.576    20464626.892    -1659745.795 8   -975818.852 8
  23748684.053    23748687.661    13192262.194 9  10441274.956 8
  20869248.660    20869253.440   -11283346.220 8  -8112088.908 8
  20792646.357    20792649.137    -1910137.564 9   3482009.465 8
 86  6 19  0 23 35.0800000  0  4G 6G 8G 9G11
  20465418.202    20465422.239    -1655569.905 8   -972564.911 8
  23752825.136    23752829.926    13214026.805 8  10458234.389 8
  20866803.552    20866806.114   -11296202.168 8  -8122106.530 7
  20794019.885    20794023.563    -1902919.499 8   3487633.938 8
 86  6 19  0 23 41.0800000  0  4G 6G 8G 9G11
  20466216.651    20466219.990    -1651372.526 8   -969294.231 8
  23756966.915    23756971.550    13235794.184 8  10475195.976 7
  20864359.315    20864363.415   -11309043.427 9  -8132112.695 7
  20795397.522    20795400.441    -1895683.309 8   3493272.526 8
 86  6 19  0 23 47.0800000  0  4G 6G 8G 9G11
  20467019.208    20467023.145    -1647153.616 9   -966006.782 7
  23761110.244    23761114.467    13257564.269 7  10492159.666 8
  20861918.254    20861922.125   -11321869.956 9  -8142107.388 8
  20796777.672    20796781.621    -1888429.013 8   3498925.222 8
 86  6 19  0 23 53.0800000  0  4G 6G 8G 9G11
  20467826.153    20467829.503    -1642913.262 8   -962702.595 8
  23765252.581    23765258.472    13279337.061 8  10509125.484 8
  20859480.709    20859483.898   -11334681.724 9  -8152090.582 8
  20798161.266    20798165.111    -1881156.581 8   3504592.055 7
 86  6 19  0 23 59.0800000  0  4G 6G 8G 9G11
  20468638.924    20468641.813    -1638651.295 8   -959381.590 8
  23769396.818    23769402.197    13301112.542 8  10526093.366 7
  20857046.501    20857048.699   -11347478.779 8  -8162062.304 7
  20799549.170    20799552.671    -1873865.992 9   3510273.027 8
 86  6 19  0 24  5.0800000  0  4G 6G 8G 9G11
  20469453.002    20469456.282    -1634367.801 8   -956043.790 8
  23773540.906    23773545.979    13322890.733 8  10543063.394 7
  20854613.453    20854616.570   -11360261.061 8  -8172022.528 8
  20800939.992    20800943.458    -1866557.318 9   3515968.095 8
 86  6 19  0 24 11.0800000  0  4G 6G 8G 9G11
  20470272.890    20470275.496    -1630062.774 8   -952689.232 8
  23777685.721    23777689.801    13344671.575 8  10560035.479 7
  20852183.671    20852185.914   -11373028.454 8  -8181971.138 7
  20802333.754    20802338.041    -1859230.580 8   3521677.244 8
 86  6 19  0 24 17.0800000  0  4G 6G 8G 9G11
  20471095.375    20471098.297    -1625736.123 8   -949317.811 7
  23781830.945    23781835.901    13366455.072 7  10577009.619 7
  20849757.541    20849759.343   -11385781.037 9  -8191908.201 8
  20803731.623    20803735.572    -1851885.739 8   3527400.499 8
 86  6 19  0 24 23.0800000  0  4G 6G 8G 9G11
  20471923.329    20471925.343    -1621387.906 8   -945929.592 8
  23785975.754    23785981.554    13388241.225 7  10593985.830 8
  20847333.242    20847335.245   -11398518.690 9  -8201833.661 8
  20805133.727    20805136.739    -1844522.824 9   3533137.831 8
 86  6 19  0 24 29.0800000  0  4G 6G 8G 9G11
  20472754.370    20472757.571    -1617018.118 8   -942524.573 8
  23790123.282    23790127.190    13410030.001 8  10610964.096 7
  20844911.762    20844914.990   -11411241.418 9  -8211747.466 8
  20806536.568    20806541.825    -1837141.864 9   3538889.229 8
 86  6 19  0 24 35.0800000  0  4G 6G 8G 9G11
  20473589.631    20473593.899    -1612626.723 9   -939102.706 7
  23794269.047    23794275.145    13431821.298 8  10627944.318 7
  20842494.227    20842496.954   -11423949.258 8  -8221649.680 8
  20807945.241    20807948.961    -1829742.969 9   3544654.613 8
 86  6 19  0 24 41.0800000  0  4G 6G 8G 9G11
  20474428.684    20474432.928    -1608213.831 8   -935664.091 8
  23798417.348    23798421.250    13453615.116 8  10644926.514 8
  20840078.371    20840080.644   -11436642.189 9  -8231540.264 7
  20809354.826    20809360.237    -1822326.134 8   3550433.943 7
 86  6 19  0 24 47.0800000  0  4G 6G 8G 9G11
  20475273.467    20475276.767    -1603779.359 8   -932208.665 7
  23802564.744    23802570.292    13475411.461 7  10661910.685 6
  20837666.141    20837668.584   -11449320.187 9  -8241419.226 7
  20810770.385    20810774.979    -1814891.298 8   3556227.325 8
 86  6 19  0 24 53.0800000  0  4G 6G 8G 9G11
  20476120.289    20476125.787    -1599323.293 8   -928736.404 8
  23806712.750    23806718.830    13497210.329 8  10678896.793 8
  20835256.234    20835258.847   -11461983.170 8  -8251286.468 9
  20812188.890    20812193.744    -1807438.446 8   3562034.737 8
 86  6 19  0 24 59.0800000  0  4G 6G 8G 9G11
  20476972.504    20476975.907    -1594845.616 7   -925247.315 8
  23810860.630    23810866.699    13519011.663 7  10695884.835 8
  20832849.529    20832850.420   -11474631.175 8  -8261142.067 7
  20813610.225    20813615.579    -1799967.630 9   3567856.160 9
 86  6 19  0 25  5.0800000  0  4G 6G 8G 9G11
  20477829.436    20477832.825    -1590346.279 7   -921741.334 8
  23815010.897    23815016.462    13540815.548 7  10712874.859 8
  20830446.094    20830449.168   -11487264.013 8  -8270985.827 7
  20815035.740    20815039.479    -1792478.839 9   3573691.580 9
 86  6 19  0 25 11.0800000  0  4G 6G 8G 9G11
  20478689.750    20478692.915    -1585825.305 8   -918218.498 8
  23819161.361    23819165.532    13562621.919 8  10729866.836 7
  20828044.611    20828048.210   -11499881.796 8  -8280817.858 7
  20816464.379    20816466.975    -1784972.113 8   3579540.963 7
 86  6 19  0 25 17.0800000  0  4G 6G 8G 9G11
  20479554.537    20479557.485    -1581282.689 9   -914678.792 8
  23823310.363    23823315.822    13584430.716 8  10746860.700 7
  20825646.391    20825649.004   -11512484.500 9  -8290638.153 9
  20817895.862    20817900.831    -1777447.485 9   3585404.306 8
 86  6 19  0 25 23.0800000  0  4G 6G 8G 9G11
  20480422.229    20480427.207    -1576718.476 8   -911122.277 8
  23827460.841    23827466.329    13606241.849 6  10763856.378 7
  20823250.613    20823253.860   -11525072.188 9  -8300446.744 8
  20819332.188    20819336.378    -1769905.093 9   3591281.498 8
 86  6 19  0 25 29.0800000  0  4G 6G 8G 9G11
  20481294.714    20481298.863    -1572132.777 9   -907549.001 8
  23831612.776    23831616.184    13628055.260 7  10780853.843 7
  20820858.465    20820861.622   -11537644.821 8  -8310243.587 7
  20820769.506    20820773.640    -1762344.921 9   3597172.537 9
 86  6 19  0 25 35.0800000  0  4G 6G 8G 9G11
  20482171.369    20482175.999    -1567525.575 8   -903958.984 8
  23835762.711    23835767.990    13649870.897 7  10797853.025 8
  20818468.171    20818473.472   -11550202.436 9  -8320028.746 8
  20822212.176    20822215.750    -1754767.041 8   3603077.389 7
 86  6 19  0 25 41.0800000  0  4G 6G 8G 9G11
  20483051.985    20483055.006    -1562896.857 7   -900352.191 8
  23839913.461    23839919.355    13671688.751 7  10814853.941 8
  20816082.620    20816084.694   -11562745.010 8  -8329802.173 8
  20823658.057    20823661.788    -1747171.435 9   3608996.035 7
 86  6 19  0 25 47.0800000  0  4G 6G 8G 9G11
  20483938.231    20483941.441    -1558246.621 7   -896728.631 8
  23844066.784    23844072.627    13693508.786 7  10831856.574 6
  20813697.991    20813701.590   -11575272.540 8  -8339563.880 7
  20825106.964    20825111.079    -1739558.090 8   3614928.506 8
 86  6 19  0 25 53.0800000  0  4G 6G 8G 9G11
  20484826.734    20484831.585    -1553574.798 8   -893088.245 7
  23848219.201    23848223.260    13715331.069 6  10848860.918 7
  20811316.762    20811320.281   -11587784.937 9  -8349313.814 7
  20826558.416    20826562.270    -1731927.075 8   3620874.752 8
 86  6 19  0 25 59.0800000  0  4G 6G 8G 9G11
  20485719.350    20485724.161    -1548881.442 8   -889431.087 8
  23852373.196    23852377.442    13737155.556 6  10865866.997 8
  20808938.580    20808942.892   -11600282.229 8  -8359051.944 8
  20828014.701    20828018.842    -1724278.371 8   3626834.783 9
 86  6 19  0 26  5.0800000  0  4G 6G 8G 9G11
  20486616.315    20486621.202    -1544166.456 8   -885757.093 8
  23856525.423    23856532.173    13758982.225 6  10882874.771 7
  20806562.979    20806566.358   -11612764.281 8  -8368778.222 8
  20829472.754    20829476.736    -1716611.997 9   3632808.574 8
 86  6 19  0 26 11.0800000  0  4G 6G 8G 9G11
  20487519.017    20487522.281    -1539429.860 8   -882066.221 8
  23860680.275    23860685.296    13780811.061 6  10899884.260 7
  20804191.284    20804193.645   -11625231.064 8  -8378492.597 7
  20830934.406    20830939.804    -1708927.895 8   3638796.181 8
 86  6 19  0 26 17.0800000  0  4G 6G 8G 9G11
  20488423.436    20488428.352    -1534671.554 8   -878358.457 8
  23864832.917    23864839.197    13802642.136 6  10916895.476 7
  20801822.846    20801825.183   -11637682.524 8  -8388195.029 8
  20832401.942    20832405.054    -1701226.072 8   3644797.611 8
 86  6 19  0 26 23.0800000  0  4G 6G 8G 9G11
  20489333.177    20489336.387    -1529891.533 9   -874633.766 7
  23868988.612    23868994.775    13824475.450 6  10933908.426 8
  20799455.107    20799458.792   -11650118.584 9  -8397885.458 8
  20833870.235    20833874.362    -1693506.467 9   3650812.882 9
 86  6 19  0 26 29.0800000  0  4G 6G 8G 9G11
  20490248.034    20490250.687    -1525089.727 8   -870892.097 8
  23873143.830    23873148.757    13846311.045 7  10950923.178 8
  20797092.290    20797095.137   -11662539.096 8  -8407563.786 9
  20835341.397    20835346.082    -1685769.088 8   3656841.997 8
 86  6 19  0 26 35.0800000  0  4G 6G 8G 9G11
  20491163.851    20491169.260    -1520266.126 8   -867133.446 8
  23877300.190    23877303.734    13868148.908 6  10967939.657 7
  20794731.283    20794734.235   -11674944.293 8  -8417230.163 8
  20836817.538    20836822.427    -1678013.961 8   3662884.966 8
 86  6 19  0 26 41.0800000  0  4G 6G 8G 9G11
  20492087.563    20492091.278    -1515420.766 8   -863357.851 8
  23881455.504    23881461.236    13889988.912 7  10984957.849 8
  20792373.810    20792376.987   -11687333.984 8  -8426884.464 8
  20838296.469    20838300.632    -1670241.183 8   3668941.678 7
 86  6 19  0 26 47.0800000  0  4G 6G 8G 9G11
  20493013.686    20493017.488    -1510553.675 8   -859565.320 8
  23885613.155    23885618.113    13911831.101 6  11001977.718 8
  20790019.000    20790022.189   -11699708.222 9  -8436526.735 9
  20839779.280    20839783.914    -1662450.722 8   3675012.162 7
 86  6 19  0 26 53.0800000  0  4G 6G 8G 9G11
  20493943.910    20493947.556    -1505664.886 8   -855755.866 8
  23889770.774    23889774.401    13933675.319 6  11018999.178 8
  20787666.905    20787669.419   -11712067.077 8  -8446157.003 8
  20841264.801    20841268.377    -1654642.637 9   3681096.375 8
 86  6 19  0 26 59.0800000  0  4G 6G 8G 9G11
  20494878.517    20494881.665    -1500754.412 9   -851929.529 7
  23893927.056    23893930.117    13955521.632 7  11036022.263 7
  20785318.348    20785321.868   -11724410.386 9  -8455775.169 9
  20842753.697    20842757.670    -1646816.941 9   3687194.315 8
 86  6 19  0 27  5.0800000  0  4G 6G 8G 9G11
  20495817.082    20495819.894    -1495822.272 8   -848086.298 7
  23898082.302    23898089.376    13977369.928 6  11053046.903 8
  20782971.858    20782976.874   -11736738.260 8  -8465381.305 8
  20844247.889    20844251.655    -1638973.676 8   3693305.947 7
 86  6 19  0 27 11.0800000  0  4G 6G 8G 9G11
  20496759.518    20496763.038    -1490868.420 9   -844226.166 9
  23902242.866    23902247.461    13999220.223 7  11070073.080 8
  20780629.499    20780632.372   -11749050.577 8  -8474975.320 8
  20845742.981    20845746.143    -1631112.869 8   3699431.259 7
 86  6 19  0 27 17.0800000  0  4G 6G 8G 9G11
  20497705.716    20497709.808    -1485892.928 8   -840349.143 8
  23906400.828    23906405.283    14021072.462 6  11087100.796 8
  20778289.056    20778291.301   -11761347.469 8  -8484557.321 7
  20847241.297    20847245.681    -1623234.580 9   3705570.187 7
 86  6 19  0 27 23.0800000  0  4G 6G 8G 9G11
  20498657.744    20498660.700    -1480895.738 9   -836455.237 9
  23910559.085    23910564.593    14042926.661 7  11104130.041 8
  20775951.041    20775954.894   -11773628.801 7  -8494127.191 8
  20848743.434    20848748.241    -1615338.765 8   3711722.767 8
 86  6 19  0 27 29.0800000  0  4G 6G 8G 9G11
  20499613.045    20499617.127    -1475876.806 9   -832544.389 8
  23914718.435    23914723.474    14064782.793 7  11121160.797 8
  20773616.956    20773621.360   -11785894.539 8  -8503684.894 8
  20850249.007    20850254.932    -1607425.472 9   3717888.973 8
 86  6 19  0 27 35.0800000  0  4G 6G 8G 9G11
  20500571.316    20500575.972    -1470836.186 8   -828616.636 7
  23918878.464    23918882.939    14086640.811 7  11138192.997 7
  20771286.752    20771290.071   -11798144.693 8  -8513230.464 7
  20851758.475    20851763.770    -1599494.769 8   3724068.731 7
 86  6 19  0 27 41.0800000  0  4G 6G 8G 9G11
  20501535.539    20501538.019    -1465773.941 8   -824672.020 8
  23923038.856    23923042.598    14108500.661 7  11155226.633 9
  20768958.957    20768962.016   -11810379.350 7  -8522763.961 8
  20853271.113    20853275.678    -1591546.683 8   3730262.067 7
 86  6 19  0 27 47.0800000  0  4G 6G 8G 9G11
  20502501.941    20502506.249    -1460689.980 8   -820710.512 8
  23927198.652    23927203.024    14130362.366 6  11172261.731 7
  20766633.593    20766637.115   -11822598.377 8  -8532285.287 8
  20854786.981    20854791.937    -1583581.197 8   3736468.932 8
 86  6 19  0 27 53.0800000  0  4G 6G 8G 9G11
  20503473.878    20503478.424    -1455584.253 8   -816732.015 7
  23931358.297    23931362.575    14152225.873 7  11189298.222 8
  20764310.848    20764314.792   -11834801.824 9  -8541794.467 8
  20856305.401    20856310.333    -1575598.346 8   3742689.327 8
 86  6 19  0 27 59.0800000  0  4G 6G 8G 9G11
  20504449.442    20504455.253    -1450456.854 9   -812736.658 7
  23935520.409    23935524.557    14174091.225 8  11206336.147 8
  20761992.989    20761996.983   -11846989.671 8  -8551291.483 9
  20857829.335    20857833.965    -1567598.092 8   3748923.287 8
 86  6 19  0 28  5.0800000  0  4G 6G 8G 9G11
  20505429.467    20505433.971    -1445307.684 8   -808724.304 8
  23939679.942    23939685.007    14195958.413 7  11223375.500 8
  20759674.807    20759678.936   -11859161.756 8  -8560776.230 8
  20859353.902    20859358.268    -1559580.471 8   3755170.788 8
 86  6 19  0 28 11.0800000  0  4G 6G 8G 9G11
  20506412.999    20506417.675    -1440136.744 8   -804695.011 7
  23943841.113    23943846.635    14217827.408 7  11240416.260 8
  20757361.100    20757366.273   -11871317.996 8  -8570248.634 9
  20860883.736    20860889.321    -1551545.476 8   3761431.820 8
 86  6 19  0 28 17.0800000  0  4G 6G 8G 9G11
  20507401.940    20507405.674    -1434943.968 8   -800648.694 8
  23948004.003    23948008.550    14239698.249 8  11257458.464 7
  20755052.207    20755055.688   -11883458.501 8  -8579708.763 8
  20862415.539    20862419.671    -1543493.091 8   3767706.399 8
 86  6 19  0 28 23.0800000  0  4G 6G 8G 9G11
  20508393.396    20508398.072    -1429729.361 8   -796585.380 9
  23952166.630    23952170.424    14261570.938 8  11274502.121 9
  20752744.516    20752748.160   -11895583.122 9  -8589156.526 9
  20863949.944    20863956.144    -1535423.321 9   3773994.534 8
 86  6 19  0 28 29.0800000  0  4G 6G 8G 9G11
  20509390.149    20509394.679    -1424492.970 8   -792505.077 9
  23956328.505    23956333.969    14283445.364 8  11291547.110 9
  20750440.536    20750443.687   -11907691.833 7  -8598591.879 8
  20865490.079    20865495.451    -1527336.213 9   3780296.182 9
 86  6 19  0 28 35.0800000  0  4G 6G 8G 9G11
  20510392.063    20510395.926    -1419234.786 8   -788407.796 7
  23960492.079    23960497.194    14305321.492 8  11308593.445 8
  20748140.630    20748142.278   -11919784.790 8  -8608014.968 8
  20867033.011    20867037.628    -1519231.749 8   3786611.341 8
 86  6 19  0 28 41.0800000  0  4G 6G 8G 9G11
  20511395.313    20511399.350    -1413954.909 8   -784293.608 8
  23964654.248    23964660.133    14327199.278 7  11325641.052 8
  20745840.487    20745845.737   -11931861.958 9  -8617425.749 9
  20868576.972    20868583.011    -1511110.074 8   3792939.925 8
 86  6 19  0 28 47.0800000  0  4G 6G 8G 9G11
  20512404.429    20512408.320    -1408653.273 8   -780162.471 8
  23968819.210    23968823.147    14349078.728 8  11342689.968 8
  20743546.065    20743548.574   -11943923.279 9  -8626824.185 8
  20870126.609    20870132.551    -1502971.143 8   3799281.941 8
 86  6 19  0 28 53.0800000  0  4G 6G 8G 9G11
  20513417.456    20513421.177    -1403329.858 8   -776014.361 8
  23972982.009    23972987.030    14370959.747 8  11359740.103 8
  20741253.399    20741258.784   -11955968.660 8  -8636210.186 8
  20871680.334    20871684.288    -1494815.045 7   3805637.348 8
 86  6 19  0 28 59.0800000  0  4G 6G 8G 9G11
  20514434.332    20514438.393    -1397984.730 9   -771849.322 8
  23977145.554    23977150.982    14392842.364 8  11376791.480 8
  20738965.095    20738968.604   -11967998.268 9  -8645583.905 7
  20873234.495    20873239.718    -1486641.811 9   3812006.100 7
 86  6 19  0 29  5.0800000  0  4G 6G 8G 9G11
  20515455.923    20515460.534    -1392617.922 8   -767667.414 7
  23981310.828    23981315.650    14414726.479 7  11393844.038 8
  20736678.805    20736682.498   -11980012.063 8  -8654945.298 8
  20874792.484    20874797.760    -1478451.434 8   3818388.211 9
 86  6 19  0 29 11.0800000  0  4G 6G 8G 9G11
  20516481.978    20516484.980    -1387229.362 8   -763468.534 8
  23985474.852    23985481.004    14436612.113 9  11410897.757 8
  20734395.888    20734398.756   -11992009.942 8  -8664294.300 8
  20876354.985    20876359.473    -1470243.959 8   3824783.652 9
 86  6 19  0 29 17.0800000  0  4G 6G 8G 9G11
  20517511.087    20517515.422    -1381818.996 8   -759252.666 7
  23989640.521    23989645.271    14458499.354 7  11427952.755 9
  20732114.891    20732119.130   -12003991.755 8  -8673630.772 8
  20877919.784    20877924.709    -1462019.258 8   3831192.508 8
 86  6 19  0 29 23.0800000  0  4G 6G 8G 9G11
  20518543.557    20518549.039    -1376386.771 7   -755019.771 7
  23993805.776    23993810.963    14480388.170 8  11445008.965 9
  20729837.942    20729842.126   -12015957.623 9  -8682954.823 8
  20879488.493    20879492.673    -1453777.339 9   3837614.774 9
 86  6 19  0 29 29.0800000  0  4G 6G 8G 9G11
  20519582.633    20519586.097    -1370932.701 8   -750769.837 8
  23997971.591    23997976.523    14502278.615 8  11462066.441 8
  20727563.699    20727567.918   -12027907.332 9  -8692266.280 8
  20881060.229    20881065.175    -1445518.277 9   3844050.412 8
 86  6 19  0 29 35.0800000  0  4G 6G 8G 9G11
  20520624.314    20520627.303    -1365456.718 8   -746502.847 7
  24002137.781    24002141.769    14524170.621 9  11479125.133 8
  20725293.881    20725295.964   -12039840.916 9  -8701565.177 8
  20882634.923    20882639.205    -1437242.020 8   3850499.439 7
 86  6 19  0 29 41.0800000  0  4G 6G 8G 9G11
  20521670.438    20521674.967    -1359958.859 8   -742218.792 8
  24006304.314    24006308.720    14546064.189 7  11496185.058 8
  20723025.803    20723029.918   -12051758.361 8  -8710851.502 9
  20884213.259    20884218.226    -1428948.634 8   3856961.826 8
 86  6 19  0 29 47.0800000  0  4G 6G 8G 9G11
  20522721.861    20522724.137    -1354439.155 7   -737917.733 8
  24010470.341    24010474.962    14567959.215 9  11513246.102 8
  20720760.900    20720765.722   -12063659.722 8  -8720125.300 8
  20885795.045    20885798.857    -1420638.156 8   3863437.521 8
 86  6 19  0 29 53.0800000  0  4G 6G 8G 9G11
  20523775.419    20523779.766    -1348897.613 7   -733599.651 8
  24014636.247    24014641.775    14589855.713 7  11530308.304 9
  20718500.052    20718503.211   -12075544.910 9  -8729386.463 9
  20887379.672    20887382.539    -1412310.676 9   3869926.470 9
 86  6 19  0 29 59.0800000  0  4G 6G 8G 9G11
  20524835.326    20524839.482    -1343334.306 7   -729264.607 7
  24018803.977    24018808.715    14611753.608 8  11547371.580 9
  20716241.825    20716244.420   -12087413.997 7  -8738635.105 7
  20888967.181    20888971.900    -1403966.184 9   3876428.659 9
 86  6 19  0 30  5.0800000  0  4G 6G 8G 9G11
  20525897.570    20525901.055    -1337749.184 8   -724912.567 8
  24022971.481    24022975.581    14633652.842 8  11564435.909 8
  20713985.299    20713989.598   -12099267.050 9  -8747871.243 8
  20890558.417    20890562.910    -1395604.763 9   3882944.050 7
 86  6 19  0 30 11.0800000  0  4G 6G 8G 9G11
  20526963.377    20526967.832    -1332142.296 8   -720543.550 8
  24027138.401    24027144.346    14655553.406 8  11581501.271 8
  20711733.712    20711736.474   -12111103.914 8  -8757094.763 8
  20892153.333    20892157.717    -1387226.431 8   3889472.621 8
 86  6 19  0 30 17.0800000  0  4G 6G 8G 9G11
  20528035.355    20528039.361    -1326513.595 8   -716157.558 8
  24031306.562    24031311.761    14677455.241 8  11598567.640 8
  20709483.336    20709486.668   -12122924.553 8  -8766305.653 7
  20893749.800    20893754.957    -1378831.129 8   3896014.414 8
 86  6 19  0 30 23.0800000  0  4G 6G 8G 9G11
  20529111.321    20529113.466    -1320863.099 7   -711754.568 7
  24035475.082    24035479.611    14699358.390 8  11615635.015 9
  20707238.871    20707239.899   -12134729.038 8  -8775503.960 9
  20895351.175    20895356.117    -1370418.896 8   3902569.396 8
 86  6 19  0 30 29.0800000  0  4G 6G 8G 9G11
  20530190.586    20530194.193    -1315190.807 9   -707334.608 8
  24039644.454    24039647.701    14721262.833 8  11632703.409 8
  20704994.146    20704997.558   -12146517.293 8  -8784689.604 8
  20896957.120    20896959.575    -1361989.756 8   3909137.562 8
 86  6 19  0 30 35.0800000  0  4G 6G 8G 9G11
  20531274.237    20531277.168    -1309496.751 8   -702897.680 8
  24043811.700    24043816.026    14743168.512 9  11649772.757 9
  20702754.619    20702757.076   -12158289.435 8  -8793862.704 8
  20898561.565    20898566.936    -1353543.727 8   3915718.882 7
 86  6 19  0 30 41.0800000  0  4G 6G 8G 9G11
  20532360.411    20532365.410    -1303780.904 9   -698443.768 7
  24047979.968    24047984.769    14765075.396 8  11666843.033 9
  20700517.300    20700520.806   -12170045.219 8  -8803023.048 8
  20900171.994    20900178.180    -1345080.866 9   3922313.309 8
 86  6 19  0 30 47.0800000  0  4G 6G 8G 9G11
  20533452.964    20533456.678    -1298043.232 8   -693972.856 8
  24052148.862    24052154.645    14786983.463 8  11683914.263 7
  20698282.795    20698286.480   -12181784.771 8  -8812170.743 8
  20901786.573    20901791.532    -1336601.201 8   3928920.835 8
 86  6 19  0 30 53.0800000  0  4G 6G 8G 9G11
  20534549.620    20534553.096    -1292283.748 9   -689484.953 7
  24056318.309    24056323.256    14808892.759 9  11700986.433 9
  20696051.738    20696054.657   -12193508.028 8  -8821305.747 9
  20903403.749    20903407.983    -1328104.765 9   3935541.442 9
 86  6 19  0 30 59.0800000  0  4G 6G 8G 9G11
  20535649.788    20535652.449    -1286502.493 8   -684980.085 8
  24060487.415    24060492.096    14830803.205 9  11718059.493 8
  20693824.178    20693827.027   -12205214.986 8  -8830428.049 9
  20905022.920    20905027.727    -1319591.580 8   3942175.088 9
 86  6 19  0 31  5.0800000  0  4G 6G 8G 9G11
  20536753.767    20536756.406    -1280699.418 8   -680458.207 8
  24064658.448    24064661.978    14852714.791 8  11735133.444 8
  20691599.379    20691602.483   -12216905.619 8  -8839537.636 8
  20906647.274    20906650.714    -1311061.739 9   3948821.717 8
 86  6 19  0 31 11.0800000  0  4G 6G 8G 9G11
  20537861.642    20537865.525    -1274874.497 7   -675919.312 8
  24068826.764    24068832.415    14874627.494 8  11752208.276 8
  20689378.478    20689382.014   -12228579.926 8  -8848634.499 9
  20908272.346    20908278.010    -1302515.044 9   3955481.474 8
 86  6 19  0 31 17.0800000  0  4G 6G 8G 9G11
  20538974.427    20538978.287    -1269027.696 8   -671363.370 7
  24072997.141    24073002.943    14896541.344 8  11769283.995 8
  20687158.859    20687163.119   -12240237.760 9  -8857718.511 7
  20909902.444    20909907.495    -1293951.538 8   3962154.340 8
 86  6 19  0 31 23.0800000  0  4G 6G 8G 9G11
  20540090.610    20540095.258    -1263159.050 8   -666790.390 8
  24077167.486    24077173.112    14918456.342 8  11786360.603 8
  20684943.445    20684947.527   -12251879.094 8  -8866789.681 8
  20911535.328    20911540.098    -1285371.226 9   3968840.290 8
 86  6 19  0 31 29.0800000  0  4G 6G 8G 9G11
  20541211.641    20541216.640    -1257268.425 9   -662200.311 8
  24081338.069    24081343.354    14940372.521 9  11803438.139 8
  20682731.251    20682736.279   -12263503.885 8  -8875847.956 8
  20913171.064    20913174.913    -1276774.099 8   3975539.350 8
 86  6 19  0 31 35.0800000  0  4G 6G 8G 9G11
  20542338.698    20542341.261    -1251355.903 8   -657593.136 8
  24085509.908    24085513.842    14962289.844 9  11820516.558 8
  20680522.930    20680526.250   -12275112.166 7  -8884893.357 8
  20914809.604    20914814.861    -1268160.136 8   3982251.520 8
 86  6 19  0 31 41.0800000  0  4G 6G 8G 9G11
  20543466.713    20543469.433    -1245421.349 8   -652968.826 9
  24089680.522    24089684.622    14984208.309 8  11837595.878 8
  20678317.870    20678320.742   -12286703.752 8  -8893925.778 8
  20916451.755    20916457.155    -1259529.350 9   3988976.818 8
 86  6 19  0 31 47.0800000  0  4G 6G 8G 9G11
  20544600.745    20544603.661    -1239464.863 8   -648327.408 7
  24093850.771    24093856.095    15006127.929 8  11854676.088 8
  20676114.783    20676117.580   -12298278.844 8  -8902945.319 8
  20918098.165    20918103.723    -1250881.797 8   3995715.154 8
 86  6 19  0 31 53.0800000  0  4G 6G 8G 9G11
  20545737.263    20545741.986    -1233486.490 8   -643668.945 8
  24098021.334    24098026.384    15028048.566 8  11871757.097 8
  20673914.869    20673919.164   -12309837.287 8  -8911951.891 7
  20919747.606    20919751.225    -1242217.568 9   4002466.505 8
 86  6 19  0 31 59.0800000  0  4G 6G 8G 9G11
  20546880.400    20546882.882    -1227486.134 9   -638993.348 7
  24102193.911    24102198.784    15049970.319 8  11888838.972 8
  20671718.443    20671722.775   -12321379.045 8  -8920945.467 8
  20921398.629    20921403.460    -1233536.601 9   4009230.889 8
 86  6 19  0 32  5.0800000  0  4G 6G 8G 9G11
  20548026.169    20548028.947    -1221463.765 8   -634300.592 7
  24106365.776    24106371.579    15071893.122 8  11905921.664 8
  20669524.939    20669528.998   -12332904.149 9  -8929926.067 8
  20923054.426    20923058.834    -1224838.911 9   4016008.313 8
 86  6 19  0 32 11.0800000  0  4G 6G 8G 9G11
  20549176.220    20549180.166    -1215419.414 9   -629590.712 8
  24110537.985    24110542.016    15093817.003 7  11923005.193 8
  20667335.492    20667338.178   -12344412.435 7  -8938893.561 8
  20924712.598    20924716.858    -1216124.478 8   4022798.782 9
 86  6 19  0 32 17.0800000  0  4G 6G 8G 9G11
  20550329.933    20550335.331    -1209353.159 8   -624863.771 8
  24114709.380    24114714.845    15115741.873 9  11940089.492 9
  20665148.321    20665152.273   -12355904.153 8  -8947848.128 8
  20926374.273    20926378.738    -1207393.420 9   4029602.197 8
 86  6 19  0 32 23.0800000  0  4G 6G 8G 9G11
  20551489.972    20551493.924    -1203264.999 8   -620119.763 7
  24118881.346    24118886.387    15137667.636 8  11957174.509 8
  20662964.824    20662969.028   -12367379.122 8  -8956789.664 9
  20928038.751    20928043.516    -1198645.811 8   4036418.520 8
 86  6 19  0 32 29.0800000  0  4G 6G 8G 9G11
  20552651.996    20552656.078    -1197154.963 9   -615358.692 7
  24123054.387    24123060.052    15159594.284 9  11974260.188 8
  20660784.693    20660787.795   -12378837.346 8  -8965718.152 8
  20929705.934    20929711.137    -1189881.627 9   4043247.742 9
 86  6 19  0 32 35.0800000  0  4G 6G 8G 9G11
  20553818.555    20553822.545    -1191023.015 9   -610580.542 8
  24127226.647    24127232.492    15181521.849 8  11991346.598 7
  20658608.775    20658611.740   -12390278.905 7  -8974633.645 8
  20931375.446    20931380.974    -1181100.884 8   4050089.889 8
 86  6 19  0 32 41.0800000  0  4G 6G 8G 9G11
  20554989.444    20554993.094    -1184869.194 8   -605785.375 7
  24131399.983    24131404.938    15203450.203 8  12008433.601 9
  20656432.162    20656437.114   -12401703.759 8  -8983536.136 7
  20933050.822    20933056.054    -1172303.700 9   4056944.839 8
 86  6 19  0 32 47.0800000  0  4G 6G 8G 9G11
  20556164.650    20556167.764    -1178693.428 8   -600973.089 8
  24135572.781    24135577.957    15225379.381 8  12025521.280 8
  20654261.426    20654266.030   -12413111.870 7  -8992425.567 8
  20934726.938    20934733.577    -1163490.110 9   4063812.569 8
 86  6 19  0 32 53.0800000  0  4G 6G 8G 9G11
  20557344.345    20557346.564    -1172495.878 8   -596143.827 8
  24139746.160    24139752.457    15247309.328 7  12042609.529 8
  20652094.239    20652096.904   -12424503.188 8  -9001301.916 8
  20936407.975    20936411.989    -1154660.073 9   4070693.123 8
 86  6 19  0 32 59.0800000  0  4G 6G 8G 9G11
  20558527.940    20558531.130    -1166276.394 8   -591297.484 8
  24143919.272    24143924.589    15269240.072 7  12059698.414 9
  20649930.002    20649933.529   -12435877.774 8  -9010165.225 8
  20938091.115    20938095.151    -1145813.619 8   4077586.454 8
 86  6 19  0 33  5.0800000  0  4G 6G 8G 9G11
  20559715.301    20559719.343    -1160035.032 8   -586434.084 8
  24148092.502    24148098.259    15291171.547 8  12076787.863 7
  20647768.185    20647771.576   -12447235.581 8  -9019015.469 9
  20939777.615    20939783.626    -1136950.831 9   4084492.519 9
 86  6 19  0 33 11.0800000  0  4G 6G 8G 9G11
  20560907.881    20560910.986    -1153771.895 8   -581553.708 8
  24152266.379    24152271.999    15313103.678 8  12093877.820 8
  20645610.099    20645613.835   -12458576.601 8  -9027852.626 8
  20941467.396    20941472.128    -1128071.656 8   4091411.343 9
 86  6 19  0 33 17.0800000  0  4G 6G 8G 9G11
  20562103.464    20562106.662    -1147486.891 8   -576656.319 8
  24156440.846    24156445.824    15335036.486 8  12110968.321 8
  20643455.296    20643458.246   -12469900.829 7  -9036676.693 8
  20943161.724    20943165.297    -1119176.163 8   4098342.913 9
 86  6 19  0 33 23.0800000  0  4G 6G 8G 9G11
  20563303.016    20563307.243    -1141180.015 8   -571741.872 8
  24160613.873    24160619.604    15356969.943 8  12128059.314 8
  20641303.401    20641308.742   -12481208.234 8  -9045487.649 8
  20944855.976    20944860.402    -1110264.310 8   4105287.222 8
 86  6 19  0 33 29.0800000  0  4G 6G 8G 9G11
  20564508.549    20564511.498    -1134851.197 9   -566810.315 8
  24164788.811    24164793.343    15378904.067 9  12145150.839 8
  20639155.425    20639159.010   -12492498.875 8  -9054285.559 9
  20946555.177    20946559.914    -1101336.069 8   4112244.281 8
 86  6 19  0 33 35.0800000  0  4G 6G 8G 9G11
  20565716.924    20565720.576    -1128500.517 8   -561861.740 8
  24168962.130    24168967.175    15400838.830 8  12162242.857 8
  20637009.876    20637014.343   -12503772.442 8  -9063070.137 8
  20948257.155    20948263.528    -1092391.517 8   4119214.061 7
 86  6 19  0 33 41.0800000  0  4G 6G 8G 9G11
  20566929.689    20566933.711    -1122127.885 9   -556896.057 8
  24173136.548    24173140.616    15422774.290 7  12179335.396 7
  20634868.694    20634871.405   -12515029.030 8  -9071841.516 8
  20949962.577    20949967.916    -1083430.621 8   4126196.571 7
 86  6 19  0 33 47.0800000  0  4G 6G 8G 9G11
  20568145.889    20568149.269    -1115733.286 9   -551913.265 8
  24177312.190    24177316.456    15444710.450 8  12196428.515 8
  20632728.354    20632733.402   -12526268.621 8  -9080599.647 9
  20951669.626    20951676.698    -1074453.375 8   4133191.848 8
 86  6 19  0 33 53.0800000  0  4G 6G 8G 9G11
  20569366.765    20569370.080    -1109316.645 8   -546913.282 8
  24181485.756    24181488.639    15466647.313 7  12213522.155 8
  20630592.892    20630598.072   -12537491.068 8  -9089344.404 9
  20953382.637    20953386.019    -1065459.740 8   4140199.860 8
 86  6 19  0 33 59.0800000  0  4G 6G 8G 9G11
  20570592.344    20570595.260    -1102877.881 9   -541896.068 8
  24185659.638    24185664.210    15488584.897 7  12230616.368 8
  20628460.968    20628466.428   -12548696.429 9  -9098075.846 8
  20955096.319    20955101.442    -1056449.714 9   4147220.658 9
 86  6 19  0 34  5.0800000  0  4G 6G 8G 9G11
  20571821.512    20571825.832    -1096417.080 8   -536861.675 8
  24189835.767    24189838.265    15510523.174 6  12247711.121 8
  20626332.964    20626336.882   -12559884.520 8  -9106793.834 8
  20956813.251    20956818.792    -1047423.339 8   4154254.198 8
 86  6 19  0 34 11.0800000  0  4G 6G 8G 9G11
  20573056.077    20573057.662    -1089934.195 8   -531810.081 7
  24194008.771    24194014.425    15532462.185 7  12264806.454 7
  20624205.516    20624211.509   -12571055.518 6  -9115498.512 8
  20958535.534    20958539.741    -1038380.523 8   4161300.543 8
 86  6 19  0 34 17.0800000  0  4G 6G 8G 9G11
  20574293.453    20574297.076    -1083429.264 8   -526741.313 8
  24198183.347    24198189.882    15554401.882 7  12281902.301 8
  20622083.310    20622089.203   -12582209.199 8  -9124189.695 8
  20960259.887    20960263.435    -1029321.386 8   4168359.610 8
 86  6 19  0 34 23.0800000  0  4G 6G 8G 9G11
  20575535.373    20575538.458    -1076902.280 8   -521655.348 8
  24202359.410    24202362.546    15576342.109 7  12298998.578 8
  20619965.639    20619968.861   -12593345.630 8  -9132867.431 8
  20961987.502    20961990.640    -1020246.016 9   4175431.332 8
 86  6 19  0 34 29.0800000  0  4G 6G 8G 9G11
  20576781.442    20576785.687    -1070353.417 9   -516552.339 8
  24206534.738    24206538.603    15598282.816 7  12316095.229 9
  20617848.334    20617853.756   -12604465.056 8  -9141531.918 8
  20963716.109    20963722.043    -1011154.531 9   4182515.600 8
 86  6 19  0 34 35.0800000  0  4G 6G 8G 9G11
  20578032.066    20578034.707    -1063782.602 9   -511432.234 8
  24210710.154    24210715.862    15620223.983 7  12333192.228 7
  20615735.872    20615741.095   -12615567.322 7  -9150183.021 8
  20965449.991    20965455.028    -1002046.919 8   4189612.438 8
 86  6 19  0 34 41.0800000  0  4G 6G 8G 9G11
  20579286.806    20579288.538    -1057189.903 9   -506295.070 8
  24214883.012    24214890.392    15642165.555 7  12350289.547 8
  20613625.501    20613630.776   -12626652.480 9  -9158820.824 8
  20967184.791    20967190.028     -992923.221 7   4196721.820 7
 86  6 19  0 34 47.0800000  0  4G 6G 8G 9G11
  20580544.233    20580547.771    -1050575.337 8   -501140.864 8
  24219058.114    24219065.751    15664107.556 7  12367387.197 8
  20611521.299    20611524.602   -12637720.384 8  -9167445.149 8
  20968924.516    20968930.284     -983783.441 8   4203843.721 8
 86  6 19  0 34 53.0800000  0  4G 6G 8G 9G11
  20581807.726    20581811.550    -1043938.812 8   -495969.555 8
  24223237.016    24223242.204    15686049.923 6  12384485.137 7
  20609417.384    20609422.578   -12648771.189 8  -9176056.163 7
  20970667.916    20970673.256     -974627.603 8   4210978.144 8
 86  6 19  0 34 59.0800000  0  4G 6G 8G 9G11
  20583075.594    20583077.557    -1037280.344 7   -490781.135 8
  24227410.040    24227415.302    15707992.638 6  12401583.350 7
  20607318.368    20607323.101   -12659804.694 8  -9184653.708 8
  20972411.494    20972418.653     -965455.675 9   4218125.092 9
 86  6 19  0 35  5.0800000  0  4G 6G 8G 9G11
  20584346.598    20584349.723    -1030599.835 9   -485575.549 7
  24231585.732    24231591.120    15729935.803 6  12418681.885 6
  20605221.869    20605225.355   -12670820.912 8  -9193237.781 8
  20974161.013    20974166.875     -956267.728 8   4225284.538 8
 86  6 19  0 35 11.0800000  0  4G 6G 8G 9G11
  20585621.465    20585624.113    -1023897.403 8   -480352.869 8
  24235761.114    24235767.395    15751879.331 7  12435780.721 7
  20603128.795    20603132.798   -12681819.766 7  -9201808.306 8
  20975912.105    20975917.299     -947063.717 9   4232456.484 8
 86  6 19  0 35 17.0800000  0  4G 6G 8G 9G11
  20586900.752    20586903.877    -1017172.959 8   -475113.058 7
  24239938.211    24239942.273    15773823.211 6  12452879.850 7
  20601038.796    20601043.545   -12692801.233 8  -9210365.297 7
  20977667.984    20977671.281     -937843.630 8   4239640.950 9
 86  6 19  0 35 23.0800000  0  4G 6G 8G 9G11
  20588184.822    20588189.084    -1010426.509 8   -469856.073 7
  24244113.538    24244120.248    15795767.474 6  12469979.259 7
  20598953.861    20598956.918   -12703765.342 8  -9218908.755 8
  20979425.054    20979429.986     -928607.521 8   4246837.931 9
 86  6 19  0 35 29.0800000  0  4G 6G 8G 9G11
  20589472.699    20589475.304    -1003658.041 8   -464581.951 9
  24248290.291    24248296.603    15817712.070 6  12487078.916 7
  20596869.327    20596875.094   -12714712.106 8  -9227438.695 8
  20981185.223    20981189.806     -919355.337 9   4254047.420 8
 86  6 19  0 35 35.0800000  0  4G 6G 8G 9G11
  20590765.489    20590768.274     -996867.566 8   -459290.682 8
  24252465.402    24252470.978    15839656.971 4  12504178.841 6
  20594789.972    20594793.942   -12725641.417 7  -9235955.043 7
  20982948.411    20982951.984     -910087.159 7   4261269.378 7
 86  6 19  0 35 41.0800000  0  4G 6G 8G 9G11
  20592060.991    20592065.634     -990055.183 8   -453982.331 8
  24256641.634    24256648.106    15861602.080 6  12521278.923 6
  20592713.084    20592718.449   -12736553.357 8  -9244457.874 8
  20984715.909    20984721.485     -900803.092 9   4268503.720 7
 86  6 19  0 35 47.0800000  0  4G 6G 8G 9G11
  20593361.950    20593366.779     -983220.883 8   -448656.910 8
  24260816.507    24260822.201    15883547.403 6  12538379.161 5
  20590640.567    20590645.192   -12747448.007 8  -9252947.191 8
  20986486.282    20986491.143     -891503.181 8   4275750.395 8
 86  6 19  0 35 53.0800000  0  4G 6G 8G 9G11
  20594664.814    20594670.853     -976364.688 9   -443314.416 8
  24264994.344    24264999.500    15905492.852 7  12555479.502 7
  20588570.310    20588574.931   -12758325.277 9  -9261422.988 8
  20988258.895    20988263.650     -882187.407 8   4283009.448 8
 86  6 19  0 35 59.0800000  0  4G 6G 8G 9G11
  20595975.078    20595979.928     -969486.570 8   -437954.852 7
  24269169.380    24269176.382    15927438.432 6  12572579.950 6
  20586504.034    20586507.736   -12769185.137 8  -9269885.215 9
  20990034.122    20990038.819     -872855.781 8   4290280.832 9
 86  6 19  0 36  5.0800000  0  4G 6G 8G 9G11
  20597289.038    20597292.262     -962586.487 8   -432578.166 7
  24273345.984    24273353.544    15949384.197 7  12589680.516 7
  20584439.892    20584445.248   -12780027.550 9  -9278333.850 8
  20991812.343    20991817.577     -863508.346 9   4297564.558 8
 86  6 19  0 36 11.0800000  0  4G 6G 8G 9G11
  20598605.880    20598609.449     -955664.419 8   -427184.349 8
  24277521.662    24277528.669    15971330.147 6  12606781.241 6
  20582381.441    20582385.175   -12790852.410 8  -9286768.801 8
  20993595.025    20993599.100     -854144.970 8   4304860.693 8
 86  6 19  0 36 17.0800000  0  4G 6G 8G 9G11
  20599926.247    20599930.897     -948720.281 8   -421773.328 7
  24281698.477    24281701.848    15993276.326 7  12623882.144 6
  20580324.460    20580329.167   -12801659.586 8  -9295189.972 8
  20995378.652    20995384.646     -844765.664 8   4312169.234 8
 86  6 19  0 36 23.0800000  0  4G 6G 8G 9G11
  20601252.418    20601255.615     -941754.070 8   -416345.128 7
  24285874.678    24285880.080    16015222.734 7  12640983.231 7
  20578270.948    20578274.692   -12812449.116 8  -9303597.400 8
  20997167.254    20997171.188     -835370.462 8   4319490.181 8
 86  6 19  0 36 29.0800000  0  4G 6G 8G 9G11
  20602581.832    20602586.881     -934765.729 7   -410899.669 8
  24290051.122    24290056.739    16037169.344 8  12658084.474 7
  20576221.700    20576224.724   -12823220.902 8  -9311990.997 8
  20998958.386    20998962.203     -825959.419 8   4326823.457 8
 86  6 19  0 36 35.0800000  0  4G 6G 8G 9G11
  20603916.742    20603920.422     -927755.383 7   -405437.071 7
  24294228.244    24294232.464    16059116.100 7  12675185.842 7
  20574175.441    20574178.674   -12833975.037 9  -9320370.842 8
  21000752.353    21000756.709     -816532.545 9   4334169.073 8
 86  6 19  0 36 41.0800000  0  4G 6G 8G 9G11
  20605255.060    20605258.473     -920723.023 7   -399957.301 8
  24298405.387    24298408.488    16081062.979 7  12692287.282 7
  20572132.385    20572135.947   -12844711.501 8  -9328736.916 7
  21002547.433    21002553.114     -807089.863 8   4341527.011 7
 86  6 19  0 36 47.0800000  0  4G 6G 8G 9G11
  20606597.328    20606601.657     -913668.582 8   -394460.340 8
  24302581.490    24302586.720    16103009.919 6  12709388.800 6
  20570092.867    20570095.923   -12855430.251 7  -9337089.187 8
  21004349.132    21004353.467     -797631.410 8   4348897.230 8
 86  6 19  0 36 53.0800000  0  4G 6G 8G 9G11
  20607945.336    20607948.068     -906592.191 8   -388946.271 8
  24306757.155    24306761.822    16124956.883 7  12726490.307 6
  20568056.872    20568059.089   -12866131.324 7  -9345427.668 8
  21006151.455    21006155.967     -788157.218 8   4356279.715 8
 86  6 19  0 36 59.0800000  0  4G 6G 8G 9G11
  20609294.275    20609299.038     -899493.760 9   -383415.026 9
  24310933.708    24310938.589    16146903.894 7  12743591.860 7
  20566022.933    20566027.181   -12876814.725 9  -9353752.411 9
  21007956.331    21007962.531     -778667.305 8   4363674.451 8
 86  6 19  0 37  5.0800000  0  4G 6G 8G 9G11
  20610649.601    20610654.369     -892373.314 8   -377866.636 9
  24315110.324    24315115.385    16168850.912 8  12760693.444 7
  20563993.138    20563996.306   -12887480.448 8  -9362063.364 8
  21009767.049    21009770.861     -769161.713 8   4371081.420 7
 86  6 19  0 37 11.0800000  0  4G 6G 8G 9G11
  20612008.627    20612011.766     -885230.918 8   -372301.131 9
  24319286.636    24319291.672    16190797.926 7  12777795.006 7
  20561966.502    20561971.203   -12898128.278 8  -9370360.378 7
  21011578.737    21011582.242     -759640.453 9   4378500.576 8
 86  6 19  0 37 17.0800000  0  4G 6G 8G 9G11
  20613371.733    20613376.152     -878066.574 7   -366718.540 8
  24323462.302    24323467.884    16212744.817 8  12794896.482 7
  20559944.709    20559948.004   -12908758.432 8  -9378643.613 8
  21013393.398    21013397.989     -750103.580 8   4385931.903 7
 86  6 19  0 37 23.0800000  0  4G 6G 8G 9G11
  20614740.068    20614742.547     -870880.236 9   -361118.799 8
  24327638.405    24327643.244    16234691.577 8  12811997.837 7
  20557925.578    20557928.206   -12919370.778 8  -9386912.971 8
  21015211.233    21015215.116     -740551.139 8   4393375.364 8
 86  6 19  0 37 29.0800000  0  4G 6G 8G 9G11
  20616112.749    20616115.582     -863671.899 9   -355501.914 9
  24331815.401    24331819.003    16256638.268 7  12829099.153 7
  20555907.826    20555911.412   -12929965.412 8  -9395168.524 8
  21017031.153    21017036.390     -730983.100 9   4400830.973 8
 86  6 19  0 37 35.0800000  0  4G 6G 8G 9G11
  20617487.135    20617491.225     -856441.499 8   -349867.842 7
  24335990.048    24335996.521    16278584.880 7  12846200.403 7
  20553895.819    20553898.989   -12940542.144 9  -9403410.133 8
  21018854.931    21018860.592     -721399.511 8   4408298.716 8
 86  6 19  0 37 41.0800000  0  4G 6G 8G 9G11
  20618866.255    20618869.882     -849189.176 8   -344216.684 8
  24340168.747    24340172.435    16300531.394 7  12863301.579 6
  20551886.450    20551889.121   -12951101.030 8  -9411637.828 8
  21020682.019    21020686.225     -711800.403 8   4415778.538 7
 86  6 19  0 37 47.0800000  0  4G 6G 8G 9G11
  20620252.660    20620255.540     -841914.779 7   -338548.329 7
  24344343.772    24344349.551    16322477.777 8  12880402.635 7
  20549881.319    20549883.485   -12961641.974 8  -9419851.553 8
  21022511.711    21022517.029     -702185.774 8   4423270.460 8
 86  6 19  0 37 53.0800000  0  4G 6G 8G 9G11
  20621640.341    20621644.278     -834618.429 8   -332862.864 8
  24348518.556    24348524.980    16344423.965 8  12897503.559 8
  20547877.650    20547880.860   -12972165.048 8  -9428051.351 7
  21024343.277    21024348.548     -692555.635 9   4430774.457 7
 86  6 19  0 37 59.0800000  0  4G 6G 8G 9G11
  20623031.849    20623035.785     -827300.044 8   -327160.231 7
  24352696.843    24352703.155    16366370.005 7  12914604.371 6
  20545877.351    20545883.743   -12982670.261 8  -9436237.227 7
  21026179.839    21026183.960     -682909.987 9   4438290.548 8
 86  6 19  0 38  5.0800000  0  4G 6G 8G 9G11
  20624429.187    20624433.624     -819959.656 8   -321440.452 7
  24356871.853    24356876.940    16388315.902 8  12931705.055 7
  20543883.364    20543887.013   -12993157.474 9  -9444409.088 7
  21028018.011    21028022.652     -673248.879 8   4445818.691 7
 86  6 19  0 38 11.0800000  0  4G 6G 8G 9G11
  20625830.150    20625835.442     -812597.193 8   -315703.467 7
  24361049.490    24361052.620    16410261.595 8  12948805.592 8
  20541892.500    20541894.032   -13003626.704 7  -9452566.921 8
  21029859.587    21029863.110     -663572.229 9   4453358.937 8
 86  6 19  0 38 17.0800000  0  4G 6G 8G 9G11
  20627236.316    20627239.436     -805212.719 8   -309949.330 8
  24365225.453    24365228.494    16432207.088 7  12965905.959 6
  20539902.406    20539904.958   -13014077.927 8  -9460710.739 8
  21031703.153    21031707.489     -653880.083 8   4460911.250 7
 86  6 19  0 38 23.0800000  0  4G 6G 8G 9G11
  20628645.395    20628648.361     -797806.195 8   -304178.027 8
  24369401.703    24369405.405    16454152.355 8  12983006.172 6
  20537916.538    20537918.997   -13024511.028 8  -9468840.420 9
  21033551.980    21033555.014     -644172.428 9   4468475.663 7
 86  6 19  0 38 29.0800000  0  4G 6G 8G 9G11
  20630059.094    20630062.650     -790377.633 8   -298389.541 7
  24373577.219    24373581.852    16476097.386 8  13000106.194 7
  20535935.600    20535937.830   -13034926.062 8  -9476956.033 7
  21035401.583    21035405.070     -634449.397 9   4476052.053 8
 86  6 19  0 38 35.0800000  0  4G 6G 8G 9G11
  20631475.741    20631480.077     -782927.057 8   -292583.908 7
  24377752.579    24377757.406    16498042.101 7  13017205.975 7
  20533956.644    20533959.265   -13045323.021 8  -9485057.556 8
  21037253.785    21037259.271     -624710.984 8   4483640.421 9
 86  6 19  0 38 41.0800000  0  4G 6G 8G 9G11
  20632898.847    20632902.767     -775454.518 8   -286761.143 8
  24381929.226    24381934.070    16519986.483 8  13034305.478 7
  20531981.191    20531985.133   -13055701.993 8  -9493145.074 8
  21039110.182    21039114.423     -614957.192 8   4491240.777 7
 86  6 19  0 38 47.0800000  0  4G 6G 8G 9G11
  20634324.901    20634328.187     -767960.021 8   -280921.285 8
  24386104.617    24386109.361    16541930.463 7  13051404.688 6
  20530008.586    20530012.470   -13066062.984 8  -9501218.565 8
  21040970.195    21040973.454     -605188.143 8   4498853.036 7
 86  6 19  0 38 53.0800000  0  4G 6G 8G 9G11
  20635755.641    20635758.761     -760443.536 8   -275064.280 8
  24390281.453    24390285.184    16563874.084 9  13068503.626 7
  20528040.902    20528043.957   -13076405.823 9  -9509277.904 8
  21042831.955    21042836.881     -595403.779 9   4506477.202 8
 86  6 19  0 38 59.0800000  0  4G 6G 8G 9G11
  20637189.880    20637193.042     -752905.043 8   -269190.143 8
  24394456.377    24394461.853    16585817.335 8  13085602.234 7
  20526077.168    20526081.384   -13086730.492 9  -9517323.110 7
  21044695.698    21044700.072     -585604.113 8   4514113.310 8
 86  6 19  0 39  5.0800000  0  4G 6G 8G 9G11
  20638628.097    20638632.280     -745344.543 9   -263298.846 7
  24398631.862    24398637.579    16607760.233 8  13102700.595 7
  20524116.398    20524119.170   -13097037.027 8  -9525354.168 8
  21046563.911    21046569.349     -575789.130 9   4521761.357 8
 86  6 19  0 39 11.0800000  0  4G 6G 8G 9G11
  20640071.331    20640074.453     -737762.012 8   -257390.384 8
  24402806.423    24402811.886    16629702.768 8  13119798.655 7
  20522158.382    20522161.100   -13107325.343 8  -9533371.040 8
  21048435.186    21048439.988     -565958.796 8   4529421.346 7
 86  6 19  0 39 17.0800000  0  4G 6G 8G 9G11
  20641518.526    20641522.670     -730157.366 8   -251464.697 7
  24406982.607    24406987.937    16651644.937 8  13136896.442 7
  20520202.924    20520206.281   -13117595.380 8  -9541373.667 8
  21050308.369    21050313.280     -556113.140 9   4537093.288 7
 86  6 19  0 39 23.0800000  0  4G 6G 8G 9G11
  20642969.707    20642972.914     -722530.531 8   -245521.711 8
  24411157.322    24411163.652    16673586.811 8  13153994.007 8
  20518253.484    20518257.085   -13127846.960 8  -9549361.909 7
  21052184.222    21052189.236     -546252.173 8   4544777.151 8
 86  6 19  0 39 29.0800000  0  4G 6G 8G 9G11
  20644425.426    20644429.568     -714881.547 8   -239561.465 7
  24415332.223    24415338.650    16695528.351 9  13171091.293 8
  20516304.783    20516308.971   -13138080.324 8  -9557335.955 8
  21054064.565    21054068.891     -536375.950 9   4552472.913 8
 86  6 19  0 39 35.0800000  0  4G 6G 8G 9G11
  20645884.857    20645888.473     -707210.530 8   -233584.043 8
  24419507.703    24419514.370    16717469.441 8  13188188.246 7
  20514361.804    20514363.590   -13148295.300 7  -9565295.669 8
  21055946.495    21055951.903     -526484.467 8   4560180.559 8
 86  6 19  0 39 41.0800000  0  4G 6G 8G 9G11
  20647348.688    20647353.016     -699517.443 8   -227589.443 7
  24423682.742    24423689.151    16739410.107 8  13205284.878 7
  20512421.175    20512425.226   -13158491.876 8  -9573241.056 7
  21057831.778    21057836.777     -516577.772 9   4567900.057 8
 86  6 19  0 39 47.0800000  0  4G 6G 8G 9G11
  20648816.046    20648820.314     -691802.289 8   -221577.637 8
  24427858.304    24427863.910    16761350.314 7  13222381.117 8
  20510483.686    20510486.989   -13168670.174 7  -9581172.192 8
  21059718.757    21059723.958     -506655.848 8   4575631.428 7
 86  6 19  0 39 53.0800000  0  4G 6G 8G 9G11
  20650289.378    20650292.464     -684065.090 8   -215548.653 8
  24432034.159    24432038.370    16783289.921 8  13239476.932 7
  20508551.032    20508553.797   -13178830.042 8  -9589088.985 8
  21061611.265    21061614.584     -496718.803 9   4583374.573 8
 86  6 19  0 39 59.0800000  0  4G 6G 8G 9G11
  20651765.641    20651769.439     -676305.939 9   -209502.562 8
  24436208.662    24436214.285    16805229.012 8  13256572.321 6
  20506621.613    20506624.397   -13188971.586 8  -9596991.484 8
  21063504.757    21063508.770     -486766.648 8   4591129.512 8
 86  6 19  0 40  5.0800000  0  4G 6G 8G 9G11
  20653247.464    20653249.348     -668524.843 8   -203439.368 7
  24440382.148    24440388.179    16827167.456 8  13273667.200 7
  20504694.858    20504698.159   -13199094.744 8  -9604879.658 8
  21065400.663    21065405.471     -476799.415 9   4598896.174 8
 86  6 19  0 40 11.0800000  0  4G 6G 8G 9G11
  20654732.109    20654734.334     -660721.716 8   -197359.011 8
  24444557.315    24444563.241    16849105.342 8  13290761.656 8
  20502771.460    20502774.931   -13209199.557 7  -9612753.543 8
  21067300.754    21067304.728     -466817.076 8   4606674.621 7
 86  6 19  0 40 17.0800000  0  4G 6G 8G 9G11
  20656219.128    20656225.405     -652896.510 8   -191261.465 8
  24448732.173    24448737.049    16871042.634 9  13307855.650 8
  20500852.194    20500855.957   -13219285.977 8  -9620613.084 7
  21069202.952    21069208.207     -456819.695 8   4614464.789 7
 86  6 19  0 40 23.0800000  0  4G 6G 8G 9G11
  20657714.070    20657716.519     -645049.257 9   -185146.713 9
  24452908.062    24452912.156    16892979.314 9  13324949.147 7
  20498937.885    20498940.260   -13229353.966 7  -9628458.278 8
  21071108.733    21071113.771     -446807.238 8   4622266.695 8
 86  6 19  0 40 29.0800000  0  4G 6G 8G 9G11
  20659211.033    20659214.495     -637180.041 8   -179014.859 7
  24457080.860    24457086.457    16914915.317 9  13342042.143 8
  20497024.016    20497028.135   -13239403.435 8  -9636289.017 8
  21073017.084    21073020.956     -436779.729 8   4630080.334 8
 86  6 19  0 40 35.0800000  0  4G 6G 8G 9G11
  20660713.204    20660715.585     -629288.779 8   -172865.822 7
  24461254.995    24461260.328    16936850.706 9  13359134.638 8
  20495116.104    20495119.653   -13249434.353 8  -9644105.324 8
  21074927.893    21074931.567     -426737.147 9   4637905.721 8
 86  6 19  0 40 41.0800000  0  4G 6G 8G 9G11
  20662219.095    20662222.367     -621375.515 8   -166699.640 7
  24465429.787    24465435.304    16958785.395 8  13376226.610 7
  20493210.198    20493214.729   -13259446.685 7  -9651907.137 8
  21076841.591    21076845.498     -416679.608 8   4645742.752 7
 86  6 19  0 40 47.0800000  0  4G 6G 8G 9G11
  20663728.805    20663732.493     -613440.234 8   -160516.308 7
  24469602.797    24469608.076    16980719.361 8  13393318.004 7
  20491308.202    20491312.265   -13269440.607 8  -9659694.610 8
  21078757.707    21078763.415     -406607.132 9   4653591.453 7
 86  6 19  0 40 53.0800000  0  4G 6G 8G 9G11
  20665244.059    20665245.712     -605482.971 8   -154315.848 8
  24473777.675    24473781.644    17002652.614 8  13410408.848 8
  20489409.630    20489414.292   -13279415.946 7  -9667467.602 8
  21080677.591    21080681.859     -396519.760 8   4661451.736 8
 86  6 19  0 40 59.0800000  0  4G 6G 8G 9G11
  20666762.067    20666765.784     -597503.680 9   -148098.219 7
  24477950.992    24477957.312    17024585.076 8  13427499.069 8
  20487515.246    20487519.525   -13289372.803 8  -9675226.186 8
  21082599.905    21082604.069     -386417.534 8   4669323.605 8
 86  6 19  0 41  5.0800000  0  4G 6G 8G 9G11
  20668283.777    20668289.277     -589502.467 8   -141863.517 7
  24482124.239    24482130.359    17046516.776 9  13444588.699 8
  20485623.831    20485628.565   -13299310.939 8  -9682970.181 8
  21084524.810    21084530.868     -376300.416 9   4677207.073 7
 86  6 19  0 41 11.0800000  0  4G 6G 8G 9G11
  20669810.883    20669813.668     -581479.233 8   -135611.640 8
  24486297.343    24486302.908    17068447.625 8  13461677.661 7
  20483735.405    20483740.604   -13309230.594 9  -9690699.786 8
  21086453.175    21086458.345     -366168.440 8   4685102.113 8
 86  6 19  0 41 17.0800000  0  4G 6G 8G 9G11
  20671342.326    20671345.694     -573433.925 8   -129342.578 8
  24490470.545    24490476.825    17090377.761 8  13478766.081 8
  20481851.108    20481855.909   -13319131.563 8  -9698414.833 8
  21088384.720    21088388.189     -356021.616 9   4693008.732 7
 86  6 19  0 41 23.0800000  0  4G 6G 8G 9G11
  20672877.008    20672879.891     -565366.593 9   -123056.343 7
  24494643.637    24494649.265    17112307.141 8  13495853.892 9
  20479972.149    20479974.227   -13329013.804 8  -9706115.272 9
  21090317.502    21090321.284     -345859.922 9   4700926.927 7
 86  6 19  0 41 29.0800000  0  4G 6G 8G 9G11
  20674415.335    20674419.401     -557277.198 8   -116752.927 7
  24498816.215    24498822.238    17134235.740 8  13512941.114 9
  20478095.347    20478098.480   -13338877.433 8  -9713801.214 8
  21092254.354    21092258.567     -335683.415 8   4708856.681 8
 86  6 19  0 41 35.0800000  0  4G 6G 8G 9G11
  20675959.788    20675962.361     -549165.718 8   -110432.305 8
  24502990.661    24502994.598    17156163.500 8  13530027.676 9
  20476221.332    20476223.696   -13348722.232 7  -9721472.495 7
  21094193.131    21094199.502     -325492.032 8   4716798.015 8
 86  6 19  0 41 41.0800000  0  4G 6G 8G 9G11
  20677507.070    20677510.961     -541032.161 8   -104094.453 6
  24507162.346    24507166.552    17178090.496 8  13547113.634 8
  20474350.723    20474355.317   -13358548.242 8  -9729129.118 7
  21096136.478    21096140.564     -315285.846 9   4724750.876 7
 86  6 19  0 41 47.0800000  0  4G 6G 8G 9G11
  20679059.875    20679064.204     -532876.587 8    -97739.475 7
  24511334.243    24511339.519    17200016.608 8  13564198.917 8
  20472484.677    20472488.455   -13368355.431 7  -9736771.077 8
  21098081.692    21098085.889     -305064.862 9   4732715.286 7
 86  6 19  0 41 53.0800000  0  4G 6G 8G 9G11
  20680614.871    20680619.618     -524698.967 8    -91367.309 8
  24515506.889    24515511.695    17221941.788 9  13581283.464 8
  20470622.015    20470625.995   -13378143.872 8  -9744398.441 8
  21100029.343    21100033.247     -294829.112 8   4740691.199 8
 86  6 19  0 41 59.0800000  0  4G 6G 8G 9G11
  20682176.805    20682179.034     -516499.296 9    -84977.953 7
  24519678.579    24519683.380    17243866.108 8  13598367.342 8
  20468763.474    20468768.517   -13387913.513 7  -9752011.150 7
  21101979.596    21101983.685     -284578.583 9   4748678.614 8
 86  6 19  0 42  5.0800000  0  4G 6G 8G 9G11
  20683739.398    20683744.056     -508277.654 8    -78571.486 8
  24523850.842    24523855.798    17265789.464 8  13615450.472 8
  20466907.755    20466911.250   -13397664.335 7  -9759609.187 8
  21103932.806    21103937.423     -274313.396 8   4756677.455 8
 86  6 19  0 42 11.0800000  0  4G 6G 8G 9G11
  20685310.294    20685312.130     -500033.963 9    -72147.828 7
  24528022.773    24528028.364    17287711.929 8  13632532.901 9
  20465056.402    20465060.316   -13407396.252 8  -9767192.509 8
  21105888.610    21105893.853     -264033.510 9   4764687.768 8
 86  6 19  0 42 17.0800000  0  4G 6G 8G 9G11
  20686882.543    20686885.817     -491768.281 9    -65707.039 8
  24532194.704    24532199.825    17309633.395 8  13649614.560 8
  20463206.763    20463211.940   -13417109.257 7  -9774761.074 8
  21107847.542    21107852.648     -253738.929 8   4772709.509 7
 86  6 19  0 42 23.0800000  0  4G 6G 8G 9G11
  20688459.498    20688462.134     -483480.551 8    -59249.076 7
  24536364.823    24536370.583    17331553.902 7  13666695.463 9
  20461363.679    20461366.734   -13426803.412 8  -9782314.963 9
  21109811.065    21109813.940     -243429.660 9   4780742.701 9
 86  6 19  0 42 29.0800000  0  4G 6G 8G 9G11
  20690041.199    20690045.005     -475170.740 8    -52773.902 8
  24540536.997    24540542.021    17353473.491 8  13683775.660 8
  20459520.902    20459526.094   -13436478.615 7  -9789854.067 8
  21111774.796    21111779.393     -233105.728 8   4788787.326 8
 86  6 19  0 42 35.0800000  0  4G 6G 8G 9G11
  20691626.646    20691629.601     -466838.876 9    -46281.544 8
  24544707.468    24544713.145    17375392.080 8  13700855.068 9
  20457683.503    20457688.671   -13446134.872 8  -9797378.436 8
  21113742.404    21113746.230     -222767.150 9   4796843.360 7
 86  6 19  0 42 41.0800000  0  4G 6G 8G 9G11
  20693215.726    20693218.744     -458484.965 8    -39772.018 8
  24548878.790    24548884.738    17397309.695 7  13717933.733 8
  20455849.324    20455854.380   -13455772.097 8  -9804887.954 8
  21115711.554    21115716.167     -212413.882 9   4804910.851 8
 86  6 19  0 42 47.0800000  0  4G 6G 8G 9G11
  20694810.420    20694813.475     -450108.991 9    -33245.283 7
  24553048.720    24553054.288    17419226.255 7  13735011.562 8
  20454019.369    20454024.027   -13465390.342 8  -9812382.692 8
  21117685.730    21117688.919     -202046.019 9   4812989.694 7
 86  6 19  0 42 53.0800000  0  4G 6G 8G 9G11
  20696408.389    20696411.931     -441711.018 9    -26701.414 7
  24557219.146    24557225.383    17441141.778 6  13752088.581 8
  20452192.963    20452197.942   -13474989.578 8  -9819862.623 8
  21119661.611    21119664.426     -191663.582 9   4821079.909 8
 86  6 19  0 42 59.0800000  0  4G 6G 8G 9G11
  20698010.181    20698013.114     -433291.038 8    -20140.377 8
  24561388.641    24561394.802    17463056.170 7  13769164.736 8
  20450369.692    20450374.324   -13484569.813 8  -9827327.734 7
  21121639.760    21121644.112     -181266.643 9   4829181.419 8
 86  6 19  0 43  5.0800000  0  4G 6G 8G 9G11
  20699616.135    20699619.789     -424849.097 9    -13562.249 8
  24565560.411    24565564.947    17484969.415 7  13786239.982 9
  20448550.733    20448554.426   -13494131.057 8  -9834778.047 8
  21123621.280    21123624.333     -170855.245 8   4837294.196 8
 86  6 19  0 43 11.0800000  0  4G 6G 8G 9G11
  20701227.378    20701230.251     -416385.160 8     -6966.983 7
  24569728.728    24569735.263    17506881.518 7  13803314.354 8
  20446734.089    20446739.387   -13503673.220 7  -9842213.510 8
  21125604.928    21125607.177     -160429.352 9   4845418.259 7
 86  6 19  0 43 17.0800000  0  4G 6G 8G 9G11
  20702842.612    20702845.794     -407899.178 8      -354.534 7
  24573899.511    24573904.819    17528792.457 7  13820387.806 9
  20444922.762    20444926.903   -13513196.323 8  -9849634.092 8
  21127591.093    21127596.012     -149988.983 8   4853553.617 7
 86  6 19  0 43 23.0800000  0  4G 6G 8G 9G11
  20704461.022    20704464.285     -399391.185 9      6275.076 8
  24578069.290    24578073.384    17550702.231 7  13837460.357 9
  20443113.346    20443119.014   -13522700.308 8  -9857039.787 9
  21129581.101    21129585.579     -139534.158 8   4861700.239 8
 86  6 19  0 43 29.0800000  0  4G 6G 8G 9G11
  20706084.667    20706088.018     -390861.238 9     12921.779 7
  24582237.128    24582242.699    17572610.858 7  13854532.016 8
  20441310.221    20441313.004   -13532185.232 8  -9864430.633 8
  21131572.515    21131577.046     -129064.899 8   4869858.101 9
 86  6 19  0 43 35.0800000  0  4G 6G 8G 9G11
  20707711.209    20707715.656     -382309.269 7     19585.653 8
  24586406.750    24586412.146    17594518.280 6  13871602.716 8
  20439505.738    20439511.010   -13541650.951 7  -9871806.530 8
  21133568.405    21133571.959     -118581.233 8   4878027.186 8
 86  6 19  0 43 41.0800000  0  4G 6G 8G 9G11
  20709342.899    20709347.356     -373735.253 8     26266.696 8
  24590574.216    24590580.631    17616424.472 6  13888672.483 8
  20437710.892    20437715.119   -13551097.506 8  -9879167.483 7
  21135564.917    21135570.380     -108083.134 9   4886207.515 8
 86  6 19  0 43 47.0800000  0  4G 6G 8G 9G11
  20710978.851    20710983.024     -365139.218 8     32964.905 7
  24594740.606    24594749.053    17638329.455 6  13905741.264 8
  20435916.138    20435920.142   -13560524.886 8  -9886513.496 8
  21137566.674    21137570.680      -97570.677 8   4894399.044 7
 86  6 19  0 43 53.0800000  0  4G 6G 8G 9G11
  20712618.489    20712621.224     -356521.220 8     39680.216 8
  24598911.759    24598916.554    17660233.166 5  13922809.086 8
  20434125.268    20434130.460   -13569933.048 8  -9893844.520 9
  21139568.671    21139572.680      -87043.918 9   4902601.701 7
 86  6 19  0 43 59.0800000  0  4G 6G 8G 9G11
  20714263.671    20714266.572     -347881.293 8     46412.637 8
  24603078.195    24603084.433    17682135.607 6  13939875.916 8
  20432340.734    20432342.751   -13579322.001 7  -9901160.584 8
  21141575.117    21141579.047      -76502.876 9   4910815.505 8
 86  6 19  0 44  5.0800000  0  4G 6G 8G 9G11
  20715911.010    20715914.573     -339219.343 8     53162.204 8
  24607248.008    24607252.128    17704036.729 4  13956941.707 9
  20430555.666    20430560.342   -13588691.750 9  -9908461.673 7
  21143583.580    21143588.116      -65947.536 9   4919040.444 8
 86  6 19  0 44 11.0800000  0  4G 6G 8G 9G11
  20717563.558    20717568.634     -330535.407 9     59928.896 7
  24611411.628    24611420.241    17725936.532 5  13974006.477 8
  20428777.098    20428781.059   -13598042.265 7  -9915747.788 8
  21145595.752    21145598.794      -55377.885 9   4927276.531 8
 86  6 19  0 44 17.0800000  0  4G 6G 8G 9G11
  20719220.358    20719225.044     -321829.438 8     66712.769 8
  24615579.587    24615586.712    17747835.027 5  13991070.220 8
  20427001.148    20427003.906   -13607373.457 8  -9923018.855 7
  21147609.369    21147613.157      -44794.003 9   4935523.721 8
 86  6 19  0 44 23.0800000  0  4G 6G 8G 9G11
  20720881.975    20720883.704     -313101.481 8     73513.758 7
  24619746.501    24619753.205    17769732.176 3  14008132.938 8
  20425229.530    20425233.479   -13616685.398 7  -9930274.910 8
  21149626.704    21149630.667      -34195.862 9   4943781.998 8
 86  6 19  0 44 29.0800000  0  4G 6G 8G 9G11
  20722546.874    20722550.687     -304351.564 8     80331.880 7
  24623914.405    24623920.093    17791627.998 4  14025194.614 8
  20423461.957    20423463.872   -13625977.984 7  -9937515.877 7
  21151646.246    21151649.017      -23583.459 9   4952051.404 8
 86  6 19  0 44 35.0800000  0  4G 6G 8G 9G11
  20724216.450    20724218.827     -295579.656 8     87167.121 8
  24628081.757    24628086.770    17813522.405 1  14042255.177 8
  20421695.542    20421699.573   -13635251.100 8  -9944741.678 8
  21153667.456    21153671.525      -12956.825 8   4960331.896 8
 86  6 19  0 44 41.0800000  0  4G 6G 8G 9G11
  20725889.706    20725893.480     -286785.732 8     94019.529 8
  24632242.386    24632253.051    17835415.504 4  14059314.641 8
  20419935.015    20419938.659   -13644504.907 8  -9951952.439 7
  21155692.909    21155696.114       -2315.971 9   4968623.472 8
 86  6 19  0 44 47.0800000  0  4G 6G 8G 9G11
  20727566.727    20727568.921     -277969.804 8    100889.077 7
  24636409.684    24636418.280    17857307.147 1  14076373.073 9
  20418178.751    20418180.938   -13653739.216 8  -9959148.010 7
  21157720.611    21157724.689        8339.094 9   4976926.130 9
 86  6 19  0 44 53.0800000  0  3G 6G 9G11
  20729249.864    20729252.355     -269131.871 9    107775.782 8
  20416424.713    20416428.386   -13662954.098 8  -9966328.416 7
  21159750.799    21159754.736       19008.350 9   4985239.822 8
 86  6 19  0 44 59.0800000  0  3G 6G 9G11
  20730934.972    20730937.749     -260271.956 9    114679.601 7
  20414675.208    20414678.504   -13672149.576 7  -9973493.720 8
  21161783.443    21161787.108       29691.740 9   4993564.541 8
 86  6 19  0 45  5.0800000  0  3G 6G 9G11
  20732625.251    20732627.526     -251390.012 8    121600.598 7
  20412927.851    20412932.448   -13681325.510 8  -9980643.804 8
  21163819.465    21163823.447       40389.351 9   5001900.332 8
 86  6 19  0 45 11.0800000  0  3G 6G 9G11
  20734319.873    20734321.580     -242486.034 8    128538.762 8
  20411186.271    20411190.580   -13690481.876 8  -9987778.640 7
  21165857.318    21165861.220       51101.044 8   5010247.114 9
 86  6 19  0 45 17.0800000  0  3G 6G 9G11
  20736018.198    20736021.785     -233560.007 8    135494.095 7
  20409446.039    20409451.372   -13699618.783 8  -9994898.317 8
  21167897.886    21167901.702       61826.823 9   5018604.867 8
 86  6 19  0 45 23.0800000  0  3G 6G 9G11
  20737720.338    20737723.450     -224612.051 8    142466.524 8
  20407711.515    20407715.953   -13708736.190 8 -10002002.774 7
  21169942.092    21169946.294       72566.635 8   5026973.547 8
 86  6 19  0 45 29.0800000  0  3G 6G 9G11
  20739427.863    20739431.683     -215642.130 9    149456.069 8
  20405981.201    20405984.625   -13717834.029 7 -10009092.005 7
  21171990.076    21171993.433       83320.526 9   5035353.195 8
 86  6 19  0 45 35.0800000  0  3G 6G 9G11
  20741140.084    20741142.256     -206650.245 8    156462.719 7
  20404251.805    20404256.540   -13726912.411 7 -10016166.056 7
  21174038.055    21174042.109       94088.381 8   5043743.738 7
 86  6 19  0 45 41.0800000  0  3G 6G 9G11
  20742853.638    20742856.481     -197636.443 8    163486.468 7
  20402528.991    20402534.202   -13735971.205 7 -10023224.854 7
  21176089.811    21176092.453      104870.172 8   5052145.129 8
 86  6 19  0 45 47.0800000  0  3G 6G 9G11
  20744573.874    20744576.712     -188600.647 9    170527.351 7
  20400807.930    20400813.860   -13745010.377 7 -10030268.361 7
  21178143.314    21178148.036      115665.935 8   5060557.412 8
 86  6 19  0 45 53.0800000  0  3G 6G 9G11
  20746296.749    20746300.982     -179543.025 8    177585.243 8
  20399092.197    20399097.153   -13754029.955 7 -10037296.603 8
  21180200.030    21180205.078      126475.612 9   5068980.522 8
 86  6 19  0 45 59.0800000  0  3G 6G 9G11
  20748024.706    20748028.672     -170463.396 8    184660.260 7
  20397379.705    20397384.914   -13763029.879 7 -10044309.539 7
  21182259.566    21182264.303      137299.170 8   5077414.465 8
 86  6 19  0 46  5.0800000  0  3G 6G 9G11
  20749756.466    20749760.469     -161361.763 8    191752.449 8
  20395670.722    20395675.509   -13772010.087 8 -10051307.095 7
  21184322.036    21184327.051      148136.732 8   5085859.317 9
 86  6 19  0 46 11.0800000  0  3G 6G 9G11
  20751493.197    20751495.076     -152238.050 8    198861.815 8
  20393965.798    20393971.821   -13780970.586 7 -10058289.298 7
  21186386.482    21186392.133      158988.229 9   5094315.028 7
 86  6 19  0 46 17.0800000  0  3G 6G 9G11
  20753232.950    20753236.239     -143092.414 7    205988.289 8
  20392263.326    20392268.145   -13789911.351 7 -10065256.126 8
  21188454.746    21188458.838      169853.608 8   5102781.550 8
 86  6 19  0 46 23.0800000  0  3G 6G 9G11
  20754978.377    20754980.781     -133924.825 9    213131.871 7
  20390566.812    20390572.538   -13798832.364 7 -10072207.572 8
  21190524.246    21190529.320      180732.890 9   5111258.908 8
 86  6 19  0 46 29.0800000  0  3G 6G 9G11
  20756727.386    20756730.549     -124735.212 8    220292.589 7
  20388873.349    20388878.066   -13807733.573 7 -10079143.573 7
  21192598.855    21192602.628      191626.071 7   5119747.103 8
 86  6 19  0 46 35.0800000  0  3G 6G 9G11
  20758478.873    20758482.729     -115523.684 9    227470.416 8
  20387181.740    20387187.751   -13816615.075 7 -10086064.224 8
  21194673.075    21194678.329      202533.083 9   5128246.075 8
 86  6 19  0 46 41.0800000  0  3G 6G 9G11
  20760235.673    20760239.750     -106290.204 8    234665.339 7
  20385495.858    20385501.931   -13825476.769 8 -10092969.438 9
  21196750.622    21196755.631      213453.924 8   5136755.812 8
 86  6 19  0 46 47.0800000  0  3G 6G 9G11
  20761996.628    20762001.047      -97034.805 8    241877.320 7
  20383814.394    20383819.197   -13834318.678 7 -10099859.239 8
  21198832.892    21198837.018      224388.503 9   5145276.255 8
 86  6 19  0 46 53.0800000  0  3G 6G 9G11
  20763762.410    20763767.409      -87757.458 8    249106.426 8
  20382134.651    20382140.604   -13843140.738 8 -10106733.573 8
  21200915.973    21200921.389      235336.829 8   5153807.428 8
 86  6 19  0 46 59.0800000  0  3G 6G 9G11
  20765532.352    20765536.584      -78458.208 8    256352.583 7
  20380461.007    20380465.341   -13851943.023 7 -10113592.499 8
  21203002.018    21203006.659      246298.819 8   5162349.237 8
 86  6 19  0 47  5.0800000  0  3G 6G 9G11
  20767305.301    20767310.059      -69137.034 8    263615.839 7
  20378788.717    20378793.827   -13860725.449 8 -10120435.949 8
  21205090.993    21205095.534      257274.554 8   5170901.753 8
 86  6 19  0 47 11.0800000  0  3G 6G 9G11
  20769085.030    20769088.339      -59793.878 8    270896.216 7
  20377121.404    20377126.494   -13869487.920 7 -10127263.858 8
  21207180.976    21207186.621      268264.023 8   5179464.975 8
 86  6 19  0 47 17.0800000  0  3G 6G 9G11
  20770866.226    20770870.988      -50428.819 8    278193.659 8
  20375459.595    20375465.130   -13878230.388 7 -10134076.163 8
  21209276.274    21209281.019      279267.187 8   5188038.873 8
 86  6 19  0 47 23.0800000  0  3G 6G 9G11
  20772652.418    20772657.007      -41041.769 8    285508.245 8
  20373799.213    20373803.409   -13886952.907 8 -10140872.927 8
  21211372.045    21211377.737      290284.124 8   5196623.495 8
 86  6 19  0 47 29.0800000  0  3G 6G 9G11
  20774442.936    20774446.570      -31632.688 8    292839.986 7
  20372143.093    20372147.866   -13895655.428 7 -10147654.110 8
  21213472.000    21213475.197      301314.758 9   5205218.796 8
 86  6 19  0 47 35.0800000  0  3G 6G 9G11
  20776238.674    20776242.248      -22201.576 9    300188.906 8
  20370488.689    20370495.917   -13904337.849 6 -10154419.634 8
  21215571.726    21215578.304      312359.049 8   5213824.726 8
 86  6 19  0 47 41.0800000  0  3G 6G 9G11
  20778037.094    20778040.748      -12748.510 8    307554.939 7
  20368842.598    20368847.476   -13913000.218 8 -10161169.534 8
  21217677.539    21217681.773      323416.934 9   5222441.265 8
 86  6 19  0 47 47.0800000  0  3G 6G 9G11
  20779839.317    20779843.361       -3273.537 8    314938.024 7
  20367198.138    20367202.869   -13921642.579 7 -10167903.844 8
  21219784.051    21219788.622      334488.381 8   5231068.360 8
 86  6 19  0 47 53.0800000  0  3G 6G 9G11
  20781647.279    20781650.052        6223.325 8    322338.179 7
  20365557.883    20365562.531   -13930264.907 7 -10174622.541 8
  21221893.574    21221899.084      345573.372 9   5239706.016 8
 86  6 19  0 47 59.0800000  0  3G 6G 9G11
  20783457.122    20783462.534       15742.089 8    329755.392 8
  20363920.714    20363925.482   -13938867.278 7 -10181325.689 8
  21224004.763    21224011.721      356671.884 8   5248354.210 9
 86  6 19  0 48  5.0800000  0  3G 6G 9G11
  20785274.054    20785277.521       25282.744 8    337189.667 7
  20362287.530    20362291.168   -13947449.550 8 -10188013.158 8
  21226120.276    21226124.484      367783.894 8   5257012.907 8
 86  6 19  0 48 11.0800000  0  3G 6G 9G11
  20787093.714    20787097.331       34845.310 9    344641.010 7
  20360658.457    20360662.464   -13956011.647 7 -10194684.935 8
  21228235.910    21228241.234      378909.409 9   5265682.135 8
 86  6 19  0 48 17.0800000  0  3G 6G 9G11
  20788916.950    20788920.936       44429.792 8    352109.434 8
  20359031.098    20359036.970   -13964553.644 8 -10201341.022 8
  21230356.411    21230361.872      390048.433 9   5274361.896 8
 86  6 19  0 48 23.0800000  0  3G 6G 9G11
  20790745.023    20790749.127       54036.215 8    359594.955 7
  20357411.463    20357413.198   -13973075.405 7 -10207981.354 8
  21232478.727    21232483.784      401200.972 8   5283052.185 9
 86  6 19  0 48 29.0800000  0  3G 6G 9G11
  20792576.615    20792580.932       63664.601 8    367097.597 8
  20355792.590    20355796.647   -13981576.995 8 -10214605.962 9
  21234603.113    21234609.268      412366.971 8   5291752.962 8
 86  6 19  0 48 35.0800000  0  3G 6G 9G11
  20794412.972    20794416.901       73314.912 8    374617.313 8
  20354180.006    20354184.197   -13990058.357 7 -10221214.813 7
  21236730.953    21236735.865      423546.403 7   5300464.211 9
 86  6 19  0 48 41.0800000  0  3G 6G 9G11
  20796254.684    20796257.150       82987.094 9    382154.072 8
  20352567.592    20352573.184   -13998519.525 7 -10227807.939 9
  21238861.381    21238866.216      434739.235 8   5309185.898 8
 86  6 19  0 48 47.0800000  0  3G 6G 9G11
  20798099.530    20798102.473       92681.166 8    389707.897 7
  20350962.760    20350967.291   -14006960.571 8 -10234385.371 8
  21240993.498    21240998.497      445945.436 9   5317917.997 8
 86  6 19  0 48 53.0800000  0  3G 6G 9G11
  20799949.113    20799952.735      102397.073 8    397278.737 7
  20349361.109    20349364.999   -14015381.258 8 -10240946.935 8
  21243128.767    21243133.141      457164.982 9   5326660.498 8
 86  6 19  0 48 59.0800000  0  3G 6G 9G11
  20801801.102    20801804.338      112134.909 8    404866.658 7
  20347762.041    20347765.748   -14023781.654 7 -10247492.702 8
  21245266.436    21245272.442      468397.901 8   5335413.418 8
 86  6 19  0 49  5.0800000  0  3G 6G 9G11
  20803659.658    20803661.698      121894.620 9    412471.614 8
  20346166.954    20346171.622   -14032161.827 7 -10254022.701 8
  21247406.470    21247411.751      479644.116 8   5344176.703 8
 86  6 19  0 49 11.0800000  0  3G 6G 9G11
  20805519.171    20805523.880      131676.244 8    420093.664 8
  20344576.105    20344580.809   -14040521.659 7 -10260536.862 8
  21249548.858    21249553.076      490903.675 9   5352950.380 8
 86  6 19  0 49 17.0800000  0  3G 6G 9G11
  20807385.400    20807389.389      141479.827 8    427732.796 7
  20342989.289    20342992.898   -14048861.162 7 -10267035.181 8
  21251694.397    21251698.765      502176.585 9   5361734.460 8
 86  6 19  0 49 23.0800000  0  3G 6G 9G11
  20809255.476    20809258.887      151305.228 8    435388.968 8
  20341406.832    20341410.034   -14057180.357 7 -10273517.662 8
  21253842.040    21253846.767      513462.736 8   5370528.867 8
 86  6 19  0 49 29.0800000  0  3G 6G 9G11
  20811129.323    20811131.879      161152.419 8    443062.097 6
  20339827.906    20339830.645   -14065479.169 7 -10279984.272 8
  21255992.048    21255996.475      524762.106 8   5379333.565 8
 86  6 19  0 49 35.0800000  0  3G 6G 9G11
  20813006.574    20813010.143      171021.477 8    450752.268 7
  20338250.518    20338255.172   -14073757.599 7 -10286434.986 8
  21258145.024    21258149.778      536074.628 8   5388148.508 8
 86  6 19  0 49 41.0800000  0  3G 6G 9G11
  20814888.634    20814891.782      180912.354 9    458459.441 8
  20336679.694    20336683.850   -14082015.717 7 -10292869.881 8
  21260299.849    21260304.609      547400.305 8   5396973.709 8
 86  6 19  0 49 47.0800000  0  3G 6G 9G11
  20816774.315    20816779.959      190825.116 8    466183.672 7
  20335112.254    20335116.204   -14090253.336 8 -10299288.808 7
  21262458.301    21262462.178      558739.150 8   5405809.177 7
 86  6 19  0 49 53.0800000  0  3G 6G 9G11
  20818666.555    20818670.083      200759.737 9    473924.940 8
  20333548.463    20333552.563   -14098470.486 6 -10305691.778 7
  21264617.897    21264623.104      570091.164 8   5414654.903 8
 86  6 19  0 49 59.0800000  0  3G 6G 9G11
  20820560.913    20820564.313      210716.265 8    481683.262 7
  20331988.565    20331992.377   -14106667.160 7 -10312078.798 8
  21266780.659    21266785.405      581456.406 9   5423510.923 8
 86  6 19  0 50  5.0800000  0  3G 6G 9G11
  20822459.350    20822463.634      220694.695 8    489458.656 8
  20330433.627    20330436.676   -14114843.227 7 -10318449.772 7
  21268945.759    21268950.090      592834.813 9   5432377.209 8
 86  6 19  0 50 11.0800000  0  3G 6G 9G11
  20824362.579    20824366.470      230694.973 9    497251.074 8
  20328881.131    20328883.867   -14122998.771 6 -10324804.731 7
  21271113.607    21271119.068      604226.420 9   5441253.779 8
 86  6 19  0 50 17.0800000  0  3G 6G 9G11
  20826269.618    20826273.503      240717.129 8    505060.537 8
  20327333.264    20327336.670   -14131133.844 8 -10331143.742 7
  21273282.884    21273289.287      615631.080 9   5450140.529 7
 86  6 19  0 50 23.0800000  0  3G 6G 9G11
  20828180.737    20828184.850      250761.108 8    512887.017 8
  20325789.261    20325792.023   -14139248.355 8 -10337466.743 8
  21275457.709    21275461.515      627048.802 8   5459037.454 8
 86  6 19  0 50 29.0800000  0  3G 6G 9G11
  20830098.504    20830099.274      260826.859 8    520730.451 8
  20324247.708    20324252.892   -14147342.331 7 -10343773.743 8
  21277632.025    21277636.331      638479.599 9   5467944.562 8
 86  6 19  0 50 35.0800000  0  3G 6G 9G11
  20832017.171    20832019.207      270914.550 9    528590.981 8
  20322713.338    20322716.745   -14155415.604 8 -10350064.598 8
  21279809.187    21279813.447      649923.442 9   5476861.845 8
 86  6 19  0 50 41.0800000  0  3G 6G 9G11
  20833940.674    20833943.648      281024.156 8    536468.612 8
  20321179.011    20321183.852   -14163468.183 7 -10356339.342 8
  21281989.575    21281993.805      661380.385 9   5485789.329 8
 86  6 19  0 50 47.0800000  0  3G 6G 9G11
  20835868.924    20835870.862      291155.622 8    544363.248 9
  20319652.029    20319655.810   -14171500.149 7 -10362598.009 7
  21284171.898    21284177.244      672850.321 9   5494726.938 8
 86  6 19  0 50 53.0800000  0  3G 6G 9G11
  20837799.655    20837803.401      301308.889 8    552274.880 8
  20318125.747    20318130.161   -14179511.398 8 -10368840.546 8
  21286357.645    21286361.571      684333.154 9   5503674.606 8
 86  6 19  0 50 59.0800000  0  3G 6G 9G11
  20839735.878    20839740.161      311483.946 8    560203.488 8
  20316605.737    20316610.465   -14187502.008 7 -10375066.998 8
  21288544.944    21288548.932      695828.921 9   5512632.342 9
 86  6 19  0 51  5.0800000  0  3G 6G 9G11
  20841676.522    20841680.430      321680.771 8    568149.050 8
  20315087.663    20315093.512   -14195472.101 8 -10381277.443 8
  21290735.026    21290739.306      707337.558 8   5521600.114 8
 86  6 19  0 51 11.0800000  0  3G 6G 9G11
  20843620.987    20843625.190      331899.351 8    576111.583 7
  20313576.408    20313580.205   -14203421.426 7 -10387471.737 7
  21292927.543    21292931.436      718859.069 9   5530577.903 8
 86  6 19  0 51 17.0800000  0  3G 6G 9G11
  20845569.653    20845572.845      342139.656 8    584091.026 8
  20312067.735    20312071.845   -14211350.084 8 -10393649.897 7
  21295122.130    21295127.466      730393.441 8   5539565.722 8
 86  6 19  0 51 23.0800000  0  3G 6G 9G11
  20847522.428    20847525.151      352401.747 8    592087.454 8
  20310562.128    20310567.795   -14219258.093 7 -10399811.985 7
  21297320.027    21297325.149      741940.629 9   5548563.529 9
 86  6 19  0 51 29.0800000  0  3G 6G 9G11
  20849478.662    20849483.811      362685.603 8    600100.847 7
  20309061.617    20309065.816   -14227145.287 7 -10405957.856 8
  21299519.549    21299523.528      753500.603 9   5557571.300 8
 86  6 19  0 51 35.0800000  0  3G 6G 9G11
  20851440.318    20851444.003      372991.300 8    608131.258 8
  20307565.011    20307570.789   -14235011.700 8 -10412087.520 7
  21301722.087    21301727.105      765073.406 9   5566589.062 8
 86  6 19  0 51 41.0800000  0  3G 6G 9G11
  20853406.070    20853410.414      383318.794 8    616178.634 7
  20306072.098    20306075.309   -14242857.246 8 -10418200.939 8
  21303926.809    21303931.196      776659.058 8   5575616.853 8
 86  6 19  0 51 47.0800000  0  3G 6G 9G11
  20855375.567    20855379.240      393668.086 8    624243.007 9
  20304583.543    20304588.438   -14250681.936 6 -10424298.090 7
  21306133.353    21306137.569      788257.507 8   5584654.597 8
 86  6 19  0 51 53.0800000  0  3G 6G 9G11
  20857349.414    20857352.743      404039.182 8    632324.394 8
  20303098.827    20303103.525   -14258485.710 7 -10430378.948 8
  21308343.593    21308347.826      799868.766 9   5593702.328 9
 86  6 19  0 51 59.0800000  0  3G 6G 9G11
  20859326.433    20859330.406      414432.126 7    640422.769 7
  20301617.294    20301622.856   -14266268.629 8 -10436443.568 8
  21310555.412    21310559.635      811492.813 9   5602760.029 9
 86  6 19  0 52  5.0800000  0  3G 6G 9G11
  20861308.485    20861310.893      424846.842 8    648538.145 7
  20300139.473    20300144.292   -14274030.623 8 -10442491.870 7
  21312770.142    21312773.827      823129.614 9   5611827.664 8
 86  6 19  0 52 11.0800000  0  3G 6G 9G11
  20863293.971    20863298.296      435283.308 8    656670.461 7
  20298668.125    20298671.669   -14281771.675 8 -10448523.863 7
  21314985.325    21314990.408      834779.157 9   5620905.222 7
 86  6 19  0 52 17.0800000  0  3G 6G 9G11
  20865283.988    20865288.723      445741.566 8    664819.730 8
  20297198.740    20297203.231   -14289491.876 6 -10454539.602 7
  21317204.717    21317209.260      846441.381 9   5629992.677 7
 86  6 19  0 52 23.0800000  0  3G 6G 9G11
  20867278.208    20867282.209      456221.530 8    672985.936 7
  20295734.077    20295736.836   -14297191.098 7 -10460538.995 8
  21319427.798    21319431.773      858116.254 9   5639089.973 8
 86  6 19  0 52 29.0800000  0  3G 6G 9G11
  20869277.565    20869280.692      466723.156 7    681169.017 7
  20294271.268    20294276.341   -14304869.516 8 -10466522.178 8
  21321651.523    21321655.287      869803.664 9   5648197.043 8
 86  6 19  0 52 35.0800000  0  3G 6G 9G11
  20871279.756    20871284.124      477246.545 8    689369.051 7
  20292814.961    20292818.749   -14312526.833 8 -10472488.926 7
  21323878.839    21323881.835      881503.716 8   5657313.958 9
 86  6 19  0 52 41.0800000  0  3G 6G 9G11
  20873285.590    20873290.686      487791.747 9    697586.085 7
  20291362.845    20291365.536   -14320163.128 8 -10478439.279 8
  21326107.925    21326111.501      893216.429 9   5666440.754 8
 86  6 19  0 52 47.0800000  0  3G 6G 9G11
  20875297.095    20875300.657      498358.715 8    705820.079 7
  20289913.509    20289916.475   -14327778.277 8 -10484373.157 8
  21328337.402    21328341.457      904941.803 9   5675577.415 8
 86  6 19  0 52 53.0800000  0  3G 6G 9G11
  20877312.067    20877315.492      508947.462 8    714071.040 8
  20288467.502    20288471.693   -14335372.373 8 -10490290.649 9
  21330571.673    21330575.722      916679.786 9   5684723.880 8
 86  6 19  0 52 59.0800000  0  3G 6G 9G11
  20879332.361    20879334.803      519557.981 8    722338.979 8
  20287027.316    20287031.502   -14342945.438 7 -10496191.736 8
  21332807.403    21332811.992      928430.295 8   5693880.120 8
 86  6 19  0 53  5.0800000  0  3G 6G 9G11
  20881355.272    20881357.458      530190.256 8    730623.861 8
  20285590.092    20285593.997   -14350497.432 7 -10502076.395 7
  21335046.272    21335049.233      940193.322 8   5703046.118 8
 86  6 19  0 53 11.0800000  0  3G 6G 9G11
  20883382.198    20883385.441      540844.243 8    738925.666 8
  20284157.834    20284160.532   -14358028.200 8 -10507944.538 7
  21337287.310    21337291.273      951968.862 8   5712221.860 8
 86  6 19  0 53 17.0800000  0  3G 6G 9G11
  20885413.812    20885416.784      551519.984 8    747244.423 8
  20282727.455    20282732.107   -14365537.782 8 -10513796.164 8
  21339530.533    21339533.924      963756.875 8   5721407.319 8
 86  6 19  0 53 23.0800000  0  3G 6G 9G11
  20887448.637    20887453.698      562217.380 8    755580.052 8
  20281302.902    20281306.368   -14373026.355 8 -10519631.407 9
  21341775.568    21341779.943      975557.379 9   5730602.524 7
 86  6 19  0 53 29.0800000  0  3G 6G 9G11
  20889488.613    20889492.044      572936.454 9    763932.573 7
  20279882.788    20279884.887   -14380493.690 8 -10525450.107 8
  21344023.309    21344028.498      987370.322 9   5739807.410 8
 86  6 19  0 53 35.0800000  0  3G 6G 9G11
  20891532.824    20891536.445      583677.229 8    772302.009 7
  20278466.747    20278468.738   -14387939.955 7 -10531252.377 8
  21346273.941    21346278.324      999195.634 9   5749021.923 8
 86  6 19  0 53 41.0800000  0  3G 6G 9G11
  20893580.781    20893584.353      594439.699 8    780688.341 8
  20277052.483    20277054.990   -14395365.013 7 -10537038.151 8
  21348525.831    21348530.227     1011033.319 8   5758246.096 8
 86  6 19  0 53 47.0800000  0  3G 6G 9G11
  20895633.030    20895635.844      605223.867 8    789091.589 8
  20275643.190    20275645.994   -14402768.803 8 -10542807.342 8
  21350781.220    21350786.510     1022883.371 9   5767479.909 8
 86  6 19  0 53 53.0800000  0  3G 6G 9G11
  20897689.665    20897693.615      616029.679 9    797511.696 7
  20274238.791    20274241.710   -14410151.401 8 -10548559.999 7
  21353039.006    21353043.481     1034745.845 8   5776723.397 8
 86  6 19  0 53 59.0800000  0  3G 6G 9G11
  20899750.345    20899753.483      626857.191 8    805948.701 7
  20272838.004    20272841.044   -14417512.718 8 -10554296.094 8
  21355298.780    21355302.979     1046620.710 9   5785976.531 9
 86  6 19  0 54  5.0800000  0  3G 6G 9G11
  20901813.509    20901817.780      637706.335 8    814402.582 8
  20271441.477    20271444.549   -14424852.740 8 -10560015.587 7
  21357560.262    21357565.528     1058507.912 9   5795239.280 8
 86  6 19  0 54 11.0800000  0  3G 6G 9G11
  20903884.115    20903886.614      648577.136 8    822873.322 7
  20270049.309    20270051.255   -14432171.590 7 -10565718.594 8
  21359824.520    21359829.443     1070407.367 8   5804511.577 8
 86  6 19  0 54 17.0800000  0  3G 6G 9G11
  20905955.501    20905958.221      659469.585 8    831360.937 8
  20268660.568    20268662.318   -14439469.091 8 -10571404.955 7
  21362092.174    21362096.266     1082319.093 8   5813793.441 8
 86  6 19  0 54 23.0800000  0  3G 6G 9G11
  20908033.515    20908034.917      670383.685 8    839865.432 7
  20267274.741    20267279.333   -14446745.317 8 -10577074.753 7
  21364360.310    21364364.827     1094243.086 8   5823084.868 7
 86  6 19  0 54 29.0800000  0  3G 6G 9G11
  20910113.823    20910117.158      681319.367 8    848386.740 8
  20265894.177    20265898.640   -14454000.248 8 -10582727.937 7
  21366631.775    21366637.269     1106179.290 8   5832385.809 8
 86  6 19  0 54 35.0800000  0  3G 6G 9G11
  20912199.306    20912203.176      692276.712 8    856924.918 7
  20264518.317    20264520.343   -14461233.798 9 -10588364.466 7
  21368906.205    21368909.635     1118127.703 8   5841696.253 7
